[[{"header":{"parameterUnit":"m.s-1","parameterCategory":1,"la1":30.6,"la2":28.766,"lo1":-90.7593,"lo2":-88.6598,"dy":0.0162,"dx":0.0183,"nx":116,"ny":114,"refTime":"2023-04-16T06:00:00:Z","depth":0,"parameterNumber":2,"parameterNumberName":"U-component_of_WINDS"},"data":[0.0,0.0,0.0,0.0,0.0,0.0,0.0,0.0,0.0,0.0,0.0,0.0,0.0,0.0,0.0,0.0,0.0,0.0,0.0,0.0,0.0,0.0,0.0,0.0,0.0,0.0,0.0,0.0,0.0,0.0,0.0,0.0,0.0,0.0,0.0,0.0,0.0,0.0,0.0,0.0,0.0,0.0,0.0,0.0,0.0,0.0,0.0,0.0,0.0,0.0,0.0,0.0,0.0,0.0,0.0,0.0,0.0,0.0,0.0,0.0,0.0,0.0,0.0,0.0,0.0,0.0,0.0,0.0,0.0,0.0,0.0,0.0,0.0,0.0,0.0,0.0,0.0,0.0,0.0,0.0,0.0,0.0,0.0,0.0,0.0,0.0,0.0,0.0,0.0,0.0,0.0,0.0,0.0,0.0,0.0,0.0,0.0,0.0,0.0,0.0,0.0,0.0,0.0,0.0,0.0,0.0,0.0,0.0,0.0,0.0,0.0,0.0,0.0,0.0,0.0,0.0,0.0,0.0,0.0,0.0,0.0,0.0,0.0,0.0,0.0,0.0,0.0,0.0,0.0,0.0,0.0,0.0,0.0,0.0,0.0,0.0,0.0,0.0,0.0,0.0,0.0,0.0,0.0,0.0,0.0,0.0,0.0,0.0,0.0,0.0,0.0,0.0,0.0,0.0,0.0,0.0,0.0,0.0,0.0,0.0,0.0,0.0,0.0,0.0,0.0,0.0,0.0,0.0,0.0,0.0,0.0,0.0,0.0,0.0,0.0,0.0,0.0,0.0,0.0,0.0,0.0,0.0,0.0,0.0,0.0,0.0,0.0,0.0,0.0,0.0,0.0,0.0,0.0,0.0,0.0,0.0,0.0,0.0,0.0,0.0,0.0,0.0,0.0,0.0,0.0,0.0,0.0,0.0,0.0,0.0,0.0,0.0,0.0,0.0,0.0,0.0,0.0,0.0,0.0,0.0,0.0,0.0,0.0,0.0,0.0,0.0,0.0,0.0,0.0,0.0,0.0,0.0,0.0,0.0,0.0,0.0,0.0,0.0,0.0,0.0,0.0,0.0,0.0,0.0,0.0,0.0,0.0,0.0,0.0,0.0,0.0,0.0,0.0,0.0,0.0,0.0,0.0,0.0,0.0,0.0,0.0,0.0,0.0,0.0,0.0,0.0,0.0,0.0,0.0,0.0,0.0,0.0,0.0,0.0,0.0,0.0,0.0,0.0,0.0,0.0,0.0,0.0,0.0,0.0,0.0,0.0,0.0,0.0,0.0,0.0,0.0,0.0,0.0,0.0,0.0,0.0,0.0,0.0,0.0,0.0,0.0,0.0,0.0,0.0,0.0,0.0,0.0,0.0,0.0,0.0,0.0,0.0,0.0,0.0,0.0,0.0,0.0,0.0,0.0,0.0,0.0,0.0,0.0,0.0,0.0,0.0,0.0,0.0,0.0,0.0,0.0,0.0,0.0,0.0,0.0,0.0,0.0,0.0,0.0,0.0,0.0,0.0,0.0,0.0,0.0,0.0,0.0,0.0,0.0,0.0,0.0,0.0,0.0,0.0,0.0,0.0,0.0,0.0,0.0,0.0,0.0,0.0,0.0,0.0,0.0,0.0,0.0,0.0,0.0,0.0,0.0,0.0,0.0,0.0,0.0,0.0,0.0,0.0,0.0,0.0,0.0,0.0,0.0,0.0,0.0,0.0,0.0,0.0,0.0,0.0,0.0,0.0,0.0,0.0,0.0,0.0,0.0,0.0,0.0,0.0,0.0,0.0,0.0,0.0,0.0,0.0,0.0,0.0,0.0,0.0,0.0,0.0,0.0,0.0,0.0,0.0,0.0,0.0,0.0,0.0,0.0,0.0,0.0,0.0,0.0,0.0,0.0,0.0,0.0,0.0,0.0,0.0,0.0,0.0,0.0,0.0,0.0,0.0,0.0,0.0,0.0,0.0,0.0,0.0,0.0,0.0,0.0,0.0,0.0,0.0,0.0,0.0,0.0,0.0,0.0,0.0,0.0,0.0,0.0,0.0,0.0,0.0,0.0,0.0,0.0,0.0,0.0,0.0,0.0,0.0,0.0,0.0,0.0,0.0,0.0,0.0,0.0,0.0,0.0,0.0,0.0,0.0,0.0,0.0,0.0,0.0,0.0,0.0,0.0,0.0,0.0,0.0,0.0,0.0,0.0,0.0,0.0,0.0,0.0,0.0,0.0,0.0,0.0,0.0,0.0,0.0,0.0,0.0,0.0,0.0,0.0,0.0,0.0,0.0,0.0,0.0,0.0,0.0,0.0,0.0,0.0,0.0,0.0,0.0,0.0,0.0,0.0,0.0,0.0,0.0,0.0,0.0,0.0,0.0,0.0,0.0,0.0,0.0,0.0,0.0,0.0,0.0,0.0,0.0,0.0,0.0,0.0,0.0,0.0,0.0,0.0,0.0,0.0,0.0,0.0,0.0,0.0,0.0,0.0,0.0,0.0,0.0,0.0,0.0,0.0,0.0,0.0,0.0,0.0,0.0,0.0,0.0,0.0,0.0,0.0,0.0,0.0,0.0,0.0,0.0,0.0,0.0,0.0,0.0,0.0,0.0,0.0,0.0,0.0,0.0,0.0,0.0,0.0,0.0,0.0,0.0,0.0,0.0,0.0,0.0,0.0,0.0,0.0,0.0,0.0,0.0,0.0,0.0,0.0,0.0,0.0,0.0,0.0,0.0,0.0,0.0,0.0,0.0,0.0,0.0,0.0,0.0,0.0,0.0,0.0,0.0,0.0,0.0,0.0,0.0,0.0,0.0,0.0,0.0,0.0,0.0,0.0,0.0,0.0,0.0,0.0,0.0,0.0,0.0,0.0,0.0,0.0,0.0,0.0,0.0,0.0,0.0,0.0,0.0,0.0,0.0,0.0,0.0,0.0,0.0,0.0,0.0,0.0,0.0,0.0,0.0,0.0,0.0,0.0,0.0,0.0,0.0,0.0,0.0,0.0,0.0,0.0,0.0,0.0,0.0,0.0,0.0,0.0,0.0,0.0,0.0,0.0,0.0,0.0,0.0,0.0,0.0,0.0,0.0,0.0,0.0,0.0,0.0,0.0,0.0,0.0,0.0,0.0,0.0,0.0,0.0,0.0,0.0,0.0,0.0,0.0,0.0,0.0,0.0,0.0,0.0,0.0,0.0,0.0,0.0,0.0,0.0,0.0,0.0,0.0,0.0,0.0,0.0,0.0,0.0,0.0,0.0,0.0,0.0,0.0,0.0,0.0,0.0,0.0,0.0,0.0,0.0,0.0,0.0,0.0,0.0,0.0,0.0,0.0,0.0,0.0,0.0,0.0,0.0,0.0,0.0,0.0,0.0,0.0,0.0,0.0,0.0,0.0,0.0,0.0,0.0,0.0,0.0,0.0,0.0,0.0,0.0,0.0,0.0,0.0,0.0,0.0,0.0,0.0,0.0,0.0,0.0,0.0,0.0,0.0,0.0,0.0,0.0,0.0,0.0,0.0,0.0,0.0,0.0,0.0,0.0,0.0,0.0,0.0,0.0,0.0,0.0,0.0,0.0,0.0,0.0,0.0,0.0,0.0,0.0,0.0,0.0,0.0,0.0,0.0,0.0,0.0,0.0,0.0,0.0,0.0,0.0,0.0,0.0,0.0,0.0,0.0,0.0,0.0,0.0,0.0,0.0,0.0,0.0,0.0,0.0,0.0,0.0,0.0,0.0,0.0,0.0,0.0,0.0,0.0,0.0,0.0,0.0,0.0,0.0,0.0,0.0,0.0,0.0,0.0,0.0,0.0,0.0,0.0,0.0,0.0,0.0,0.0,0.0,0.0,0.0,0.0,0.0,0.0,0.0,0.0,0.0,0.0,0.0,0.0,0.0,0.0,0.0,0.0,0.0,0.0,0.0,0.0,0.0,0.0,0.0,0.0,0.0,0.0,0.0,0.0,0.0,0.0,0.0,0.0,0.0,0.0,0.0,0.0,0.0,0.0,0.0,0.0,0.0,0.0,0.0,0.0,0.0,0.0,0.0,0.0,0.0,0.0,0.0,0.0,0.0,0.0,0.0,0.0,0.0,0.0,0.0,0.0,0.0,0.0,0.0,0.0,0.0,0.0,0.0,0.0,0.0,0.0,0.0,0.0,0.0,0.0,0.0,0.0,0.0,0.0,0.0,0.0,0.0,0.0,0.0,0.0,0.0,0.0,0.0,0.0,0.0,0.0,0.0,0.0,0.0,0.0,0.0,0.0,0.0,0.0,0.0,0.0,0.0,0.0,0.0,0.0,0.0,0.0,0.0,0.0,0.0,0.0,0.0,0.0,0.0,0.0,0.0,0.0,0.0,0.0,0.0,0.0,0.0,0.0,0.0,0.0,0.0,0.0,0.0,0.0,0.0,0.0,0.0,0.0,0.0,0.0,0.0,0.0,0.0,0.0,0.0,0.0,0.0,0.0,0.0,0.0,0.0,0.0,0.0,0.0,0.0,0.0,0.0,0.0,0.0,0.0,0.0,0.0,0.0,0.0,0.0,0.0,0.0,0.0,0.0,0.0,0.0,0.0,0.0,0.0,0.0,0.0,0.0,0.0,0.0,0.0,0.0,0.0,0.0,0.0,0.0,0.0,0.0,0.0,0.0,0.0,0.0,0.0,0.0,0.0,0.0,0.0,0.0,0.0,0.0,0.0,0.0,0.0,0.0,0.0,0.0,0.0,0.0,0.0,0.0,0.0,0.0,0.0,0.0,0.0,0.0,0.0,0.0,0.0,0.0,0.0,0.0,0.0,0.0,0.0,0.0,0.0,0.0,0.0,0.0,0.0,0.0,0.0,0.0,0.0,0.0,0.0,0.0,0.0,0.0,0.0,0.0,0.0,0.0,0.0,0.0,0.0,0.0,0.0,0.0,0.0,0.0,0.0,0.0,0.0,0.0,0.0,0.0,0.0,0.0,0.0,0.0,0.0,0.0,0.0,0.0,0.0,0.0,0.0,0.0,0.0,0.0,0.0,0.0,0.0,0.0,0.0,0.0,0.0,0.0,0.0,0.0,0.0,0.0,0.0,0.0,0.0,0.0,0.0,0.0,0.0,0.0,0.0,0.0,0.0,0.0,0.0,0.0,0.0,0.0,0.0,0.0,0.0,0.0,0.0,0.0,0.0,0.0,0.0,0.0,0.0,0.0,0.0,0.0,0.0,0.0,0.0,0.0,0.0,0.0,0.0,0.0,0.0,0.0,0.0,0.0,0.0,0.0,0.0,0.0,0.0,0.0,0.0,0.0,0.0,0.0,0.0,0.0,0.0,0.0,0.0,0.0,0.0,0.0,0.0,0.0,0.0,0.0,0.0,0.0,0.0,0.0,0.0,0.0,0.0,0.0,0.0,0.0,0.0,0.0,0.0,0.0,0.0,0.0,0.0,0.0,0.0,0.0,0.0,0.0,0.0,0.0,0.0,0.0,0.0,0.0,0.0,0.0,0.0,0.0,0.0,0.0,0.0,0.0,0.0,0.0,0.0,0.0,0.0,0.0,0.0,0.0,0.0,0.0,0.0,0.0,0.0,0.0,0.0,0.0,0.0,0.0,0.0,0.0,0.0,0.0,0.0,0.0,0.0,0.0,0.0,0.0,0.0,0.0,0.0,0.0,0.0,0.0,0.0,0.0,0.0,0.0,0.0,0.0,0.0,0.0,0.0,0.0,0.0,0.0,0.0,0.0,0.0,0.0,0.0,0.0,0.0,0.0,0.0,0.0,0.0,0.0,0.0,0.0,0.0,0.0,0.0,0.0,0.0,0.0,0.0,0.0,0.0,0.0,0.0,0.0,0.0,0.0,0.0,0.0,0.0,0.0,0.0,0.0,0.0,0.0,0.0,0.0,0.0,0.0,0.0,0.0,0.0,0.0,0.0,0.0,0.0,0.0,0.0,0.0,0.0,0.0,0.0,0.0,0.0,0.0,0.0,0.0,0.0,0.0,0.0,0.0,0.0,0.0,0.0,0.0,0.0,0.0,0.0,0.0,0.0,0.0,0.0,0.0,0.0,0.0,0.0,0.0,0.0,0.0,0.0,0.0,0.0,0.0,0.0,0.0,0.0,0.0,0.0,0.0,0.0,0.0,0.0,0.0,-1.0971,0.0,0.0,0.0,0.0,0.0,0.0,0.0,0.0,0.0,0.0,0.0,0.0,0.0,0.0,0.0,0.0,0.0,0.0,0.0,0.0,0.0,0.0,0.0,0.0,0.0,0.0,0.0,0.0,0.0,0.0,0.0,0.0,0.0,0.0,0.0,0.0,0.0,0.0,0.0,0.0,0.0,0.0,0.0,0.0,0.0,0.0,0.0,0.0,0.0,0.0,0.0,0.0,0.0,0.0,0.0,0.0,0.0,0.0,0.0,0.0,0.0,0.0,0.0,0.0,0.0,0.0,0.0,0.0,0.0,0.0,0.0,0.0,0.0,0.0,0.0,0.0,0.0,0.0,0.0,0.0,0.0,0.0,0.0,0.0,0.0,0.0,0.0,0.0,0.0,0.0,0.0,0.0,0.0,0.0,0.0,0.0,0.0,0.0,0.0,0.0,0.0,0.0,0.0,0.0,0.0,0.0,0.0,0.0,0.0,0.0,0.0,0.0,0.0,0.0,0.0,0.0,-1.0975,0.0,0.0,0.0,0.0,0.0,0.0,0.0,0.0,0.0,0.0,0.0,0.0,0.0,0.0,0.0,0.0,0.0,0.0,0.0,0.0,0.0,0.0,0.0,0.0,0.0,0.0,0.0,0.0,0.0,0.0,0.0,0.0,0.0,0.0,0.0,0.0,0.0,0.0,0.0,0.0,0.0,0.0,0.0,0.0,0.0,0.0,0.0,0.0,0.0,0.0,0.0,0.0,0.0,0.0,0.0,0.0,0.0,0.0,0.0,0.0,0.0,0.0,0.0,0.0,0.0,0.0,0.0,0.0,0.0,0.0,0.0,0.0,0.0,0.0,0.0,0.0,0.0,0.0,0.0,0.0,0.0,0.0,0.0,0.0,0.0,0.0,0.0,0.0,0.0,0.0,0.0,0.0,0.0,0.0,0.0,0.0,0.0,0.0,0.0,0.0,0.0,0.0,0.0,0.0,0.0,0.0,0.0,0.0,-1.2317,-1.2393,-1.2346,-1.2399,-1.2313,-1.2149,-1.1808,-1.155,-1.1345,-1.1141,0.0,0.0,0.0,0.0,0.0,0.0,0.0,0.0,0.0,0.0,0.0,0.0,0.0,0.0,0.0,0.0,0.0,0.0,0.0,0.0,0.0,0.0,0.0,0.0,0.0,0.0,0.0,0.0,0.0,0.0,0.0,0.0,0.0,0.0,0.0,0.0,0.0,0.0,-2.1785,-2.1785,-2.1933,-2.2227,0.0,0.0,0.0,0.0,0.0,0.0,0.0,0.0,0.0,0.0,0.0,0.0,0.0,0.0,0.0,0.0,0.0,0.0,0.0,0.0,0.0,0.0,0.0,0.0,0.0,0.0,0.0,0.0,0.0,0.0,0.0,0.0,0.0,0.0,0.0,0.0,0.0,0.0,0.0,0.0,0.0,0.0,0.0,0.0,-1.6908,-1.6908,0.0,0.0,0.0,0.0,0.0,0.0,0.0,0.0,0.0,0.0,0.0,0.0,0.0,-1.3034,-1.3852,-1.3125,-1.2948,-1.3285,-1.2947,-1.2679,-1.2496,-1.2698,-1.2806,-1.2766,-1.273,0.0,-1.123,-1.1191,0.0,0.0,0.0,0.0,0.0,0.0,0.0,0.0,0.0,0.0,0.0,0.0,0.0,0.0,0.0,0.0,0.0,0.0,0.0,0.0,0.0,0.0,0.0,0.0,0.0,0.0,0.0,0.0,0.0,0.0,0.0,0.0,0.0,0.0,0.0,0.0,-2.2276,-2.2536,-2.2669,-2.2669,-2.2601,-2.2574,-2.2942,-2.2764,-2.2216,-2.2075,0.0,0.0,0.0,0.0,0.0,0.0,0.0,0.0,0.0,0.0,0.0,0.0,0.0,0.0,0.0,0.0,0.0,0.0,0.0,0.0,0.0,0.0,0.0,0.0,0.0,0.0,0.0,0.0,0.0,0.0,0.0,0.0,0.0,0.0,0.0,0.0,0.0,0.0,0.0,-1.666,-1.6466,-1.6289,-1.5255,-1.4455,0.0,0.0,0.0,0.0,0.0,0.0,0.0,0.0,0.0,-1.3554,-1.3267,-1.3307,-1.3722,-1.361,-1.3664,-1.3841,-1.3713,-1.3584,-1.347,-1.359,-1.356,-1.3461,-1.3298,-1.2777,-1.2018,-1.1646,-1.1471,-1.1397,0.0,0.0,0.0,0.0,-1.1152,-1.1166,0.0,0.0,0.0,0.0,0.0,0.0,0.0,0.0,0.0,0.0,0.0,0.0,0.0,0.0,0.0,-2.3413,0.0,0.0,0.0,0.0,0.0,0.0,0.0,0.0,0.0,0.0,0.0,0.0,-2.1957,-2.2343,-2.2485,-2.2606,-2.2457,-2.2031,-2.2031,-2.187,-2.155,-2.1481,-2.1286,0.0,0.0,0.0,0.0,0.0,0.0,0.0,0.0,0.0,0.0,0.0,0.0,0.0,0.0,0.0,0.0,0.0,0.0,0.0,0.0,0.0,0.0,0.0,0.0,0.0,0.0,0.0,0.0,0.0,0.0,0.0,0.0,0.0,0.0,0.0,0.0,0.0,0.0,-1.6534,-1.6248,-1.5415,-1.4876,-1.4343,0.0,0.0,0.0,0.0,0.0,0.0,-1.3797,-1.3415,-1.3287,-1.3573,-1.3604,-1.368,-1.3717,-1.4079,-1.4201,-1.4172,-1.411,-1.4087,-1.4024,-1.4093,-1.4033,-1.3884,-1.3668,-1.3334,-1.2837,-1.2126,-1.1859,-1.179,-1.1326,-1.1162,-1.1188,-1.1371,-1.1515,-1.1647,0.0,0.0,0.0,0.0,0.0,0.0,0.0,0.0,0.0,0.0,0.0,0.0,0.0,0.0,-2.292,-2.3364,-2.2989,-2.2534,0.0,0.0,0.0,0.0,0.0,0.0,0.0,0.0,0.0,-1.9706,-2.0653,-2.073,-2.0005,-2.0427,-2.0246,-1.9499,-1.9499,-2.0323,-2.1769,-2.1444,-2.1057,-2.06,0.0,0.0,0.0,0.0,0.0,0.0,0.0,0.0,0.0,0.0,0.0,0.0,0.0,0.0,0.0,0.0,0.0,0.0,0.0,0.0,0.0,0.0,0.0,0.0,0.0,0.0,0.0,0.0,0.0,0.0,0.0,0.0,0.0,0.0,0.0,0.0,0.0,0.0,0.0,-1.4341,-1.4659,0.0,0.0,0.0,0.0,-1.2515,-1.2777,-1.3051,-1.3302,-1.3539,-1.3781,-1.4059,-1.4363,-1.4677,-1.493,-1.4734,-1.4521,-1.4304,-1.4049,-1.3801,-1.3525,-1.3819,-1.3934,-1.3888,-1.3876,-1.3713,-1.3411,-1.259,-1.2229,-1.2157,-1.2132,-1.212,-1.212,-1.2138,-1.219,-1.2222,0.0,0.0,0.0,0.0,0.0,0.0,0.0,0.0,0.0,0.0,0.0,0.0,0.0,-2.3081,-2.3086,-2.2667,-2.2804,-2.2553,-2.1752,0.0,0.0,0.0,0.0,0.0,0.0,0.0,-2.1102,-2.0694,-2.1365,-2.1347,-2.0655,-2.0814,-2.0469,-1.9678,-1.9678,-1.9795,-1.9991,-2.0024,-2.0049,-2.0082,-1.9949,-1.9944,0.0,0.0,0.0,0.0,0.0,0.0,0.0,0.0,0.0,0.0,0.0,0.0,0.0,0.0,0.0,0.0,0.0,0.0,0.0,0.0,0.0,0.0,0.0,0.0,0.0,0.0,0.0,0.0,0.0,0.0,0.0,0.0,0.0,0.0,0.0,0.0,0.0,-1.5597,-1.5064,0.0,-1.3698,-1.3338,-1.3256,-1.3579,-1.3551,-1.3758,-1.4166,-1.4282,-1.4459,-1.4728,-1.5033,-1.5135,-1.5056,-1.4968,-1.492,-1.4811,-1.437,-1.4208,-1.4286,-1.4195,-1.4159,-1.4147,-1.3978,-1.3851,-1.3731,-1.3272,-1.2772,-1.2237,-1.2067,-1.2,-1.2024,-1.2195,-1.2275,-1.2324,0.0,0.0,0.0,0.0,0.0,0.0,0.0,0.0,0.0,0.0,0.0,-2.333,-2.242,-2.28,-2.2956,-2.251,-2.2637,0.0,0.0,0.0,0.0,0.0,0.0,0.0,0.0,-2.1054,-2.1167,-2.0722,-2.1231,-2.1202,-2.066,-2.066,-2.0391,-1.9857,-1.9857,-1.9582,-1.9071,-1.9223,-1.9349,-1.9411,-1.9411,-1.9426,-1.9424,0.0,0.0,0.0,0.0,0.0,0.0,0.0,0.0,0.0,0.0,0.0,0.0,0.0,0.0,0.0,0.0,0.0,0.0,0.0,0.0,0.0,0.0,0.0,0.0,0.0,0.0,0.0,0.0,0.0,0.0,0.0,0.0,0.0,0.0,0.0,-1.5849,-1.5481,-1.5205,-1.4784,-1.4095,-1.4087,-1.4178,-1.4355,-1.431,-1.4467,-1.4829,-1.4932,-1.5059,-1.5234,-1.5493,-1.5505,-1.524,-1.5155,-1.5107,-1.5101,-1.4654,-1.4582,-1.4841,-1.4564,-1.4437,-1.4425,-1.4153,-1.3984,-1.3894,-1.3719,-1.3284,-1.2705,-1.253,-1.2457,-1.2439,-1.2656,-1.2777,-1.285,0.0,0.0,0.0,0.0,0.0,0.0,0.0,0.0,0.0,0.0,0.0,-2.2787,-2.2751,-2.241,-2.2404,-2.292,0.0,0.0,0.0,0.0,0.0,0.0,0.0,0.0,-1.9765,-2.055,-2.0516,-1.9604,-1.9993,-2.0053,-1.9768,-1.9768,-1.9768,-1.9768,-1.9768,-1.9547,-1.9227,-1.9227,-1.9026,-1.8713,-1.8695,-1.8901,-1.9187,0.0,0.0,0.0,0.0,0.0,0.0,0.0,0.0,0.0,0.0,0.0,0.0,0.0,0.0,0.0,0.0,0.0,0.0,0.0,0.0,0.0,0.0,0.0,0.0,0.0,0.0,0.0,0.0,0.0,0.0,0.0,0.0,0.0,-1.5303,-1.5951,-1.5878,-1.3917,-1.5162,-1.5596,-1.4108,-1.4443,-1.4751,-1.4751,-1.4986,-1.5131,-1.5131,-1.5372,-1.5511,-1.5511,-1.5759,-1.5765,-1.5499,-1.5246,-1.5119,-1.5119,-1.4853,-1.4865,-1.5113,-1.4847,-1.4721,-1.4653,-1.4425,-1.4159,-1.3871,-1.3871,-1.3721,-1.3492,-1.3519,-1.3468,-1.3468,-1.3468,-1.367,-1.3809,0.0,0.0,0.0,0.0,0.0,0.0,0.0,0.0,0.0,0.0,-2.2587,-2.2191,-2.1974,-2.1869,-2.1929,0.0,0.0,0.0,0.0,0.0,0.0,0.0,0.0,0.0,-2.0414,-2.0234,-2.0063,-1.9942,-2.0083,-1.9865,-1.9341,-1.9341,-1.9341,-1.9341,-1.9341,-1.9366,-1.9423,-1.9423,-1.9259,-1.9066,-1.8948,-1.9081,-1.9245,0.0,0.0,0.0,0.0,0.0,0.0,0.0,0.0,0.0,0.0,0.0,0.0,0.0,0.0,0.0,0.0,0.0,0.0,0.0,0.0,0.0,0.0,0.0,0.0,0.0,0.0,0.0,0.0,0.0,0.0,0.0,0.0,-1.8105,-1.8364,-1.7728,-1.7273,-1.7253,-1.6521,-1.5817,-1.5412,-1.5481,-1.5565,-1.5565,-1.5638,-1.5674,-1.5674,-1.5741,-1.5783,-1.5783,-1.5849,-1.5765,-1.5499,-1.5427,-1.539,-1.539,-1.5125,-1.5137,-1.5384,-1.5119,-1.4795,-1.4412,-1.4335,-1.406,-1.3628,-1.3628,-1.3588,-1.3489,-1.3481,-1.3377,-1.319,-1.319,-1.3119,-1.3001,0.0,0.0,0.0,0.0,0.0,0.0,0.0,0.0,0.0,0.0,-2.2731,-2.2309,-2.1916,-2.1808,-2.1696,0.0,0.0,0.0,0.0,0.0,0.0,0.0,0.0,-2.0258,-2.0958,-2.0558,-2.0365,-2.0332,-2.0332,-2.012,-1.9641,-1.9641,-1.9641,-1.9641,-1.9641,-1.9643,-1.9575,-1.9575,-1.9574,-1.9542,-1.9321,-1.9129,-1.9015,-1.8789,-1.8701,-1.8725,-1.8788,-1.9003,-1.9189,-1.9283,0.0,0.0,0.0,0.0,0.0,0.0,0.0,0.0,0.0,0.0,0.0,0.0,0.0,0.0,0.0,0.0,0.0,0.0,0.0,0.0,0.0,0.0,0.0,0.0,-1.8939,-1.9479,-1.9884,-1.8872,-1.8074,-1.8226,-1.7259,-1.6418,-1.5945,-1.5891,-1.5891,-1.5891,-1.5891,-1.5891,-1.5891,-1.5891,-1.5891,-1.5891,-1.5891,-1.5765,-1.5499,-1.539,-1.5336,-1.533,-1.4963,-1.4925,-1.517,-1.4755,-1.4454,-1.4103,-1.3999,-1.3774,-1.3491,-1.3491,-1.3491,0.0,0.0,0.0,0.0,0.0,-1.3118,-1.2853,0.0,0.0,0.0,0.0,0.0,0.0,0.0,0.0,0.0,0.0,0.0,-2.2628,-2.2255,-2.1876,-2.1507,0.0,0.0,0.0,0.0,0.0,0.0,-2.1127,-2.1222,-2.132,-2.1338,-2.1027,-2.0778,-2.0561,-2.0561,-2.043,-2.0201,-2.0292,-2.0292,-2.0292,-2.0292,-2.0112,-1.9759,-1.9759,-1.9866,-2.0018,-1.967,-1.9289,-1.8887,-1.8842,-1.916,-1.9565,-1.9223,-1.9444,-1.982,-1.9487,0.0,0.0,0.0,0.0,0.0,0.0,0.0,0.0,0.0,0.0,0.0,0.0,0.0,0.0,0.0,0.0,0.0,0.0,0.0,0.0,0.0,0.0,0.0,0.0,-2.0574,-2.0985,-2.0714,-1.9938,-1.8942,-1.7713,-1.7477,-1.7014,-1.6035,-1.5934,-1.5934,-1.5934,-1.5934,-1.5922,-1.5891,0.0,0.0,0.0,0.0,-1.5777,-1.5547,-1.5261,-1.5128,-1.5098,-1.4613,-1.4468,-1.4679,-1.4199,-1.3979,-1.3889,-1.3667,-1.3494,-1.3443,-1.3443,-1.3443,-1.3443,-1.3443,-1.3443,-1.3443,-1.3443,-1.3278,-1.3051,0.0,0.0,0.0,0.0,0.0,0.0,0.0,0.0,0.0,-2.3421,-2.2158,-2.1509,-2.2274,-2.134,-2.0803,0.0,0.0,-2.0545,0.0,0.0,-2.0692,-2.1292,-2.0904,-2.0737,-2.0808,-1.9913,-1.9529,-1.9802,-1.9802,-1.9798,-1.9737,-2.011,-2.0292,-2.0292,-2.0292,-2.0249,-2.0189,-2.0189,-2.0018,-1.9779,-1.9702,-1.9844,-2.0057,-1.9704,-1.9676,-1.9729,-1.9658,-1.9718,-1.9813,-1.9733,-1.9707,-1.9635,-1.9235,0.0,0.0,0.0,0.0,0.0,0.0,0.0,0.0,0.0,0.0,0.0,0.0,0.0,0.0,0.0,0.0,0.0,0.0,0.0,0.0,-2.0891,-2.173,-2.2442,-2.2994,-2.2869,-2.1494,-1.7991,-1.6789,-1.6238,-1.6241,-1.6205,-1.6205,-1.6205,-1.6205,-1.6109,-1.5897,-1.5891,-1.5891,-1.5891,-1.5891,-1.5867,-1.5813,-1.5565,-1.5323,-1.5104,0.0,0.0,-1.4706,-1.4602,-1.4304,-1.3897,-1.3847,-1.3507,-1.2958,-1.2958,-1.2958,-1.2958,-1.3098,-1.3195,-1.3195,-1.3195,-1.3045,-1.2839,0.0,0.0,0.0,0.0,0.0,0.0,0.0,0.0,0.0,0.0,-2.2479,-2.1857,-2.2002,-2.1214,0.0,0.0,-2.0224,0.0,0.0,-2.1331,-2.1655,-2.2094,-2.1665,-2.1204,-2.0642,-1.9768,-1.9282,-1.9188,-1.9188,-1.9188,-1.9188,-1.9425,-1.9563,-1.9563,-1.9563,-1.97,-1.9965,-1.9965,-1.9954,-2.0018,0.0,0.0,-2.0305,-1.973,-1.9677,-1.9939,-1.9939,-2.0016,-2.0094,-2.0094,-1.997,-1.9775,-1.9572,-1.9236,-1.8846,0.0,0.0,0.0,0.0,0.0,0.0,0.0,0.0,0.0,0.0,0.0,0.0,0.0,0.0,-1.8545,0.0,0.0,-2.0896,-2.2081,-2.274,-2.3081,-2.2863,-2.2852,-2.2065,-2.0014,-1.8749,-1.79,-1.7437,-1.6864,-1.6489,-1.6489,-1.6489,-1.6368,-1.6103,-1.6085,-1.6024,-1.5891,-1.5891,-1.5838,-1.5684,-1.5447,-1.5159,-1.4815,-1.4356,-1.4156,-1.428,-1.4043,-1.3756,-1.3483,-1.3483,-1.3231,-1.2813,-1.2813,-1.2813,-1.2813,-1.2905,-1.2953,-1.2953,-1.2953,-1.2882,-1.2784,0.0,0.0,0.0,0.0,0.0,0.0,0.0,0.0,0.0,0.0,0.0,-2.2526,-2.177,-2.1285,-2.0655,0.0,0.0,0.0,0.0,-2.2035,-2.2614,-2.2928,-2.2582,-2.1819,-2.0637,-1.982,-1.9234,-1.8781,-1.8689,-1.8689,-1.8781,-1.8781,-1.8781,-1.8781,-1.892,-1.9188,-1.96,-1.9691,-1.9965,0.0,0.0,0.0,-2.0232,-1.9754,-1.9833,-2.027,-2.0191,-2.0236,-2.036,-2.036,-2.0114,-1.9797,-1.9797,-1.9577,-1.9226,-1.8719,-1.8482,0.0,0.0,0.0,0.0,0.0,0.0,0.0,0.0,0.0,-1.8252,-1.8888,-1.9144,-1.9632,-2.0865,-2.1448,-2.209,-2.316,-2.358,-2.3527,-2.2665,-2.2565,-2.2565,-2.2565,-2.1201,-1.9888,-1.9002,-1.803,-1.7378,-1.7166,-1.711,-1.6931,-1.6374,-1.6362,-1.6241,-1.5922,-1.5916,-1.5737,-1.5428,-1.5153,-1.4838,-1.448,-1.3869,-1.3634,-1.3833,-1.342,-1.3243,-1.3238,-1.3147,-1.2974,-1.2813,-1.2813,-1.2813,-1.2813,-1.2813,-1.2813,-1.2813,-1.2813,-1.2813,-1.2813,0.0,0.0,0.0,0.0,0.0,0.0,0.0,0.0,0.0,0.0,0.0,0.0,0.0,0.0,0.0,0.0,0.0,0.0,0.0,-2.2211,-2.2757,-2.3374,-2.279,-2.1819,-2.0637,-1.9463,-1.8874,-1.8781,-1.8365,-1.8411,-1.8781,-1.8781,-1.8781,-1.8827,-1.9279,-1.9546,-1.9646,-2.0056,0.0,0.0,0.0,0.0,-2.0317,-2.0591,-2.0766,-2.0758,-2.0406,-2.0268,-2.0314,-2.0314,-2.0028,-1.9719,-1.9719,-1.9694,-1.9513,-1.8826,0.0,-1.7587,-1.7458,-1.7205,-1.7132,-1.7718,-1.7897,-1.8417,0.0,0.0,-2.0095,-2.0531,-2.1148,-2.167,-2.1841,-2.2449,-2.3186,-2.3928,-2.4091,-2.4236,-2.4467,-2.4463,-2.4463,-2.4463,-2.2041,-2.0413,-2.0526,-2.0388,-1.9829,-1.8731,-1.8675,-1.8049,-1.6726,-1.6652,-1.642,-1.5938,-1.5926,-1.565,-1.5041,-1.4793,-1.4445,-1.3964,-1.3819,-1.3699,-1.3537,-1.3663,-1.3739,-1.3717,-1.3292,-1.2974,-1.2813,-1.2813,-1.2813,-1.2813,-1.2813,-1.2813,-1.2813,-1.2813,-1.2813,-1.2813,0.0,0.0,0.0,0.0,0.0,0.0,0.0,0.0,0.0,0.0,0.0,0.0,0.0,0.0,0.0,0.0,0.0,0.0,-2.1735,-2.249,-2.3063,-2.3497,-2.2809,-2.1819,-2.0637,-1.9729,-1.9096,-1.8781,-1.8596,-1.8458,-1.8411,-1.8411,-1.8411,-1.8411,-1.8635,-1.905,-1.9592,-1.9828,-2.0056,-2.0309,0.0,0.0,-2.0651,-2.0814,-2.0883,-2.0823,-2.0429,-2.0009,0.0,0.0,-1.9384,-1.911,-1.9341,-1.911,-1.864,-1.8324,-1.804,0.0,-1.8057,-1.8006,-1.8023,0.0,-1.9025,-1.9615,-2.0643,-2.0754,-2.0912,-2.1736,-2.2148,-2.2518,-2.3177,-2.3554,-2.3939,0.0,-2.4573,-2.4633,-2.4795,-2.4821,-2.4735,-2.4504,-2.281,-2.1766,-2.2042,-2.1391,-2.0423,-1.9196,-1.9145,-1.8504,-1.6998,-1.6666,-1.6295,-1.5924,-1.5548,-1.5198,-1.4767,-1.4659,-1.4399,-1.4095,-1.3759,-1.3642,-1.3674,-1.3486,-1.3405,-1.3383,-1.305,-1.2899,-1.2813,-1.2813,-1.2813,-1.2813,-1.2813,-1.2813,-1.2813,-1.2813,-1.2813,-1.2813,0.0,0.0,0.0,0.0,0.0,0.0,0.0,0.0,0.0,0.0,0.0,0.0,0.0,0.0,0.0,0.0,0.0,0.0,0.0,-2.2644,-2.333,-2.3596,-2.3013,0.0,-2.0943,-2.0221,-1.9592,-1.9004,-1.8969,-1.8877,-1.8645,-1.8457,-1.8448,-1.8597,-1.8597,-1.9059,-1.9898,-1.9937,-2.023,-2.0617,-2.0805,-2.0883,-2.0883,-2.0883,-2.0686,-2.0369,-2.0086,-1.9564,0.0,0.0,-1.8596,-1.8348,-1.8733,-1.8485,-1.8,-1.8,-1.8,-1.8059,-1.8365,0.0,0.0,-1.9358,-2.0043,-2.0728,-2.1225,-2.1422,-2.1756,-2.2714,-2.2989,-2.3263,-2.4085,-2.427,-2.4432,-2.4778,-2.4821,-2.4821,-2.4821,-2.4727,-2.4556,-2.421,-2.3424,-2.2897,-2.2855,-2.1741,-2.053,-1.937,-1.9203,-1.8506,-1.7047,-1.6508,-1.6086,-1.5649,-1.5235,-1.4834,-1.4504,-1.4504,-1.4363,-1.4089,-1.3739,-1.3626,-1.3717,-1.3367,-1.3168,-1.3093,-1.2926,-1.2872,-1.2813,-1.2813,-1.2813,-1.2813,-1.2813,-1.2813,-1.2813,-1.2813,-1.2813,-1.2813,0.0,0.0,0.0,0.0,0.0,0.0,0.0,0.0,0.0,0.0,0.0,0.0,0.0,0.0,0.0,0.0,0.0,0.0,0.0,-2.2624,-2.3401,-2.3877,-2.3619,-2.2916,-2.1695,-2.0943,-2.0229,-1.9592,-1.9434,-1.9604,-2.0044,-1.9372,-1.9334,-1.9836,-1.9836,-2.0127,-2.0659,-2.0831,-2.1062,-2.1345,-2.1011,-2.0883,-2.0883,-2.0883,-2.0189,-1.9264,-1.9256,0.0,0.0,0.0,-1.7817,-1.7608,-1.7914,-1.8017,0.0,-1.8,-1.8,0.0,0.0,0.0,-1.9376,-2.0069,-2.0823,-2.1576,-2.2371,-2.2783,-2.316,-2.3606,-2.3922,-2.4142,-2.4176,-2.4547,-2.4804,-2.4821,-2.4821,-2.4821,-2.4821,-2.4432,-2.4193,-2.4176,-2.3905,-2.333,0.0,-2.1456,-2.0421,-1.9357,-1.9016,-1.8204,-1.6805,-1.6397,-1.5818,-1.5032,-1.501,-1.4735,-1.4196,-1.4191,-1.4073,-1.383,-1.382,-1.3696,-1.3486,-1.3475,-1.3335,-1.3104,-1.3093,-1.2969,-1.2813,-1.2813,-1.2813,-1.2813,-1.2813,-1.2813,-1.2813,-1.2813,-1.2813,-1.2813,0.0,0.0,0.0,0.0,0.0,0.0,0.0,0.0,0.0,0.0,0.0,0.0,0.0,0.0,0.0,0.0,0.0,0.0,0.0,-2.1866,-2.2105,-2.2302,-2.1943,-2.1503,-2.11,-2.0649,-2.0283,-2.0056,-2.0298,-2.0295,-2.0107,-2.0135,-2.0265,-2.041,-2.041,-2.07,-2.1165,-2.119,-2.1302,-2.1379,-2.102,-2.0883,-2.0797,-2.008,-1.935,-1.8691,0.0,0.0,0.0,0.0,-1.6787,-1.6781,-1.7137,0.0,0.0,-1.7179,-1.7826,-1.8459,-1.8716,0.0,-2.042,-2.0908,-2.1422,-2.1996,-2.2749,-2.3023,-2.322,-2.3641,-2.3418,-2.3194,-2.3443,-2.3391,-2.3391,-2.3648,-2.4056,-2.4342,-2.4085,-2.3837,-2.3511,-2.3026,-2.1884,0.0,0.0,0.0,0.0,-1.8948,-1.8961,-1.8267,-1.6204,-1.5807,-1.5485,-1.5027,-1.4653,-1.4375,-1.4196,-1.4029,-1.3906,-1.382,-1.3497,-1.3227,-1.3056,-1.3056,-1.3007,-1.2877,-1.2877,-1.2883,-1.2813,-1.2813,-1.2813,-1.2813,-1.2813,-1.2813,-1.2813,-1.2813,-1.2813,-1.2813,0.0,0.0,0.0,0.0,0.0,0.0,0.0,0.0,0.0,0.0,0.0,0.0,0.0,0.0,0.0,0.0,0.0,0.0,0.0,0.0,-2.1555,-2.1773,-2.1518,-2.1344,-2.1282,-2.1067,-2.0853,-2.0598,-2.0763,-2.0706,-2.0513,-2.047,-2.0624,-2.0942,-2.0757,-2.0942,-2.1388,-2.1122,-2.1088,-2.1165,-2.0523,-2.0266,-2.0155,-1.9153,-1.8528,0.0,0.0,0.0,0.0,0.0,-1.6103,-1.6208,-1.6556,-1.673,-1.6888,-1.7364,-1.8126,-1.9007,-1.9752,-2.0506,-2.1225,-2.1859,-2.221,-2.2552,-2.3169,-2.3314,-2.3391,-2.3675,-2.3229,-2.2834,-2.2895,-2.2766,-2.2585,-2.2509,-2.3023,-2.3286,-2.3011,-2.2781,-2.2457,-2.2042,-2.0956,-2.0031,0.0,0.0,0.0,-1.8192,-1.8218,-1.7528,-1.5602,-1.5261,-1.4988,-1.474,-1.4375,-1.4196,-1.4196,-1.4035,-1.3868,-1.3696,-1.3383,-1.3071,-1.2813,-1.2813,-1.2813,-1.2813,-1.2813,-1.2813,-1.2813,-1.2813,-1.2813,-1.2813,-1.2813,-1.2813,-1.2813,-1.2813,-1.2813,-1.2813,0.0,0.0,0.0,0.0,0.0,0.0,0.0,0.0,0.0,0.0,0.0,0.0,0.0,0.0,0.0,0.0,0.0,0.0,0.0,0.0,0.0,-2.2209,-2.2327,-2.2249,-2.1983,-2.1993,-2.1663,-2.101,-2.0808,-2.0843,-2.1141,-2.0373,-2.0512,-2.1341,-2.0833,-2.0945,-2.1371,-2.0629,-2.0552,-2.0792,-1.9668,-1.9213,-1.9093,-1.8305,0.0,0.0,0.0,0.0,0.0,0.0,0.0,0.0,0.0,-1.6927,-1.7711,-1.8425,-1.8981,-1.9625,-2.102,-2.1439,-2.173,-2.2809,-2.3083,-2.3186,-2.3554,-2.3639,-2.3578,-2.3561,-2.3228,-2.2835,0.0,0.0,-2.2227,-2.1477,-2.1724,-2.1919,-2.1735,-2.1403,-2.1259,0.0,0.0,0.0,0.0,0.0,0.0,-1.7265,0.0,-1.6198,-1.512,-1.4746,-1.4483,-1.4256,-1.4191,-1.4196,-1.4196,-1.4186,-1.3933,-1.3459,-1.3459,-1.3217,-1.2813,-1.2813,-1.2813,-1.2813,-1.2813,-1.2813,-1.2813,-1.2813,-1.2813,-1.2813,-1.2813,-1.2813,-1.2813,-1.2813,-1.2813,-1.2813,0.0,0.0,0.0,0.0,0.0,0.0,0.0,0.0,0.0,0.0,0.0,0.0,0.0,0.0,0.0,0.0,0.0,0.0,0.0,0.0,0.0,0.0,0.0,0.0,0.0,0.0,0.0,0.0,0.0,-2.0463,-2.0532,-2.0598,-2.0705,0.0,-2.1174,-2.1354,-2.1443,-2.1096,-2.1014,-2.1032,0.0,-1.9213,-1.9059,0.0,0.0,0.0,0.0,0.0,0.0,0.0,0.0,0.0,0.0,-1.792,-1.8451,-1.9222,-1.9924,-2.0583,-2.1234,-2.1824,-2.2379,-2.2671,-2.274,-2.2741,-2.2649,-2.248,-2.2177,-2.1792,-2.098,-2.0329,0.0,0.0,0.0,-2.0885,-2.162,0.0,-2.175,-2.1386,0.0,-2.0862,0.0,-1.9985,-1.9747,-1.9619,0.0,0.0,-1.7895,-1.7462,-1.6316,-1.5783,-1.539,-1.5148,-1.4563,-1.4196,-1.4196,-1.4008,-1.3674,-1.32,-1.32,-1.3044,-1.2813,-1.2813,-1.2813,-1.2813,-1.2813,-1.2813,-1.2813,-1.2813,-1.2813,-1.2813,-1.2813,-1.2813,-1.2813,-1.2813,-1.2813,-1.2813,0.0,0.0,0.0,0.0,0.0,0.0,0.0,0.0,0.0,0.0,0.0,0.0,0.0,0.0,0.0,0.0,0.0,0.0,0.0,0.0,0.0,0.0,0.0,0.0,0.0,0.0,0.0,0.0,0.0,0.0,0.0,-2.0473,-2.0576,-2.0941,-2.1226,-2.132,-2.1287,0.0,0.0,0.0,0.0,0.0,0.0,0.0,0.0,0.0,0.0,0.0,0.0,0.0,0.0,-1.8072,-1.8417,-1.8905,-1.9487,-2.0249,0.0,-2.1225,-2.1764,-2.2268,-2.2637,-2.2808,-2.28,-2.2664,-2.1986,-2.1826,-2.15,-2.0561,-1.9846,0.0,-1.9192,0.0,0.0,0.0,0.0,0.0,-2.0532,-2.033,-2.021,0.0,-1.9968,0.0,-1.9952,-1.9681,-1.9326,0.0,-1.8448,-1.7643,-1.6258,-1.6173,-1.597,-1.5512,-1.5035,-1.4617,-1.4196,-1.4051,-1.3744,-1.327,-1.327,-1.3093,-1.2813,-1.2813,-1.2813,-1.2813,0.0,-1.2813,-1.2813,-1.2813,-1.2813,-1.2813,-1.2813,-1.2813,-1.2813,-1.2813,-1.2813,-1.2813,0.0,0.0,0.0,0.0,0.0,0.0,0.0,0.0,0.0,0.0,0.0,0.0,0.0,0.0,0.0,0.0,0.0,0.0,0.0,0.0,0.0,0.0,0.0,0.0,0.0,0.0,0.0,0.0,0.0,0.0,0.0,0.0,0.0,0.0,0.0,0.0,0.0,0.0,0.0,0.0,0.0,0.0,0.0,0.0,0.0,0.0,0.0,0.0,0.0,0.0,-1.8742,-1.8819,-1.9316,-1.9915,-2.0591,-2.1336,-2.1559,-2.1704,-2.2414,-2.2637,-2.274,-2.2972,-2.2954,-2.2571,-2.1379,-2.1229,-2.094,-1.9527,0.0,-1.902,-1.8635,-1.8657,-1.861,-1.8312,0.0,-1.8871,-1.9124,-1.9143,-1.9327,-1.9779,-1.9918,-1.9981,-2.0161,-1.9952,-1.9801,-1.9757,-1.878,-1.7516,-1.6092,-1.6571,-1.6465,-1.5506,-1.5506,-1.5089,-1.4196,-1.4196,-1.3954,-1.348,-1.348,-1.3227,-1.2813,-1.2813,-1.2813,-1.2813,-1.2813,0.0,-1.2813,-1.2813,-1.2813,-1.2813,-1.2813,-1.2813,-1.2813,-1.2813,-1.2813,-1.2813,0.0,0.0,0.0,0.0,0.0,0.0,0.0,0.0,0.0,0.0,-2.4062,-2.4097,0.0,0.0,0.0,0.0,0.0,0.0,0.0,0.0,0.0,0.0,0.0,0.0,0.0,0.0,0.0,0.0,0.0,0.0,0.0,0.0,0.0,0.0,0.0,0.0,0.0,0.0,0.0,0.0,0.0,0.0,0.0,0.0,0.0,0.0,0.0,0.0,0.0,0.0,-1.9495,-1.9674,-2.0711,-2.1114,-2.1362,-2.2173,-2.2397,-2.2431,-2.256,-2.2775,-2.2954,-2.2757,-2.2156,-2.1371,-2.0394,-1.9635,0.0,0.0,-1.7695,-1.7591,-1.7271,-1.7811,-1.8357,-1.8526,0.0,0.0,0.0,0.0,-2.0013,0.0,0.0,0.0,0.0,0.0,0.0,0.0,-1.9197,-1.8959,-1.8639,-1.8101,-1.7094,-1.5559,-1.5506,-1.5089,-1.4196,-1.4196,-1.3954,-1.348,-1.348,-1.3227,-1.2813,-1.2813,-1.2813,-1.2813,-1.2813,0.0,-1.2813,-1.2813,-1.2813,-1.2813,-1.2813,-1.2813,-1.2813,-1.2813,-1.2813,-1.2813,0.0,0.0,0.0,0.0,0.0,0.0,0.0,-2.4554,-2.42,-2.42,-2.42,-2.42,-2.42,-2.42,-2.42,0.0,0.0,0.0,0.0,0.0,0.0,0.0,0.0,0.0,0.0,0.0,0.0,0.0,0.0,0.0,0.0,0.0,0.0,0.0,0.0,0.0,0.0,0.0,0.0,0.0,0.0,0.0,0.0,0.0,0.0,0.0,0.0,0.0,0.0,0.0,-1.9581,-1.993,-2.1293,-2.185,-2.2122,-2.2491,-2.274,-2.2843,-2.2843,-2.3117,-2.3314,-2.2937,-2.2207,-2.1188,-1.9765,0.0,0.0,0.0,-1.696,-1.7033,-1.6925,-1.7264,0.0,0.0,0.0,0.0,0.0,0.0,0.0,0.0,0.0,0.0,0.0,0.0,0.0,0.0,0.0,-1.9116,-1.8632,-1.8251,-1.7404,-1.6146,-1.6146,-1.5512,-1.4196,-1.4062,-1.3825,-1.3475,-1.3346,-1.3098,-1.2813,-1.2813,-1.2813,-1.2813,-1.2813,0.0,-1.2813,-1.2813,-1.2813,-1.2813,-1.2813,-1.2813,-1.2813,-1.2813,-1.2613,-1.237,0.0,0.0,0.0,0.0,0.0,0.0,0.0,-2.4539,-2.42,-2.42,-2.42,-2.42,-2.42,-2.42,-2.42,0.0,0.0,0.0,0.0,0.0,0.0,0.0,0.0,0.0,0.0,0.0,0.0,0.0,0.0,0.0,0.0,0.0,0.0,0.0,0.0,0.0,0.0,0.0,0.0,0.0,0.0,0.0,0.0,0.0,0.0,0.0,0.0,0.0,0.0,0.0,-1.9376,-1.9811,-2.1208,-2.1996,-2.2465,-2.2379,-2.2689,-2.3117,-2.3117,-2.3323,-2.3477,-2.3186,-2.2248,-2.0966,-1.9394,-1.8504,0.0,0.0,-1.6727,-1.6983,-1.691,-1.6903,-1.7005,0.0,-1.7279,0.0,0.0,0.0,0.0,0.0,0.0,0.0,0.0,0.0,0.0,0.0,0.0,0.0,-1.8042,-1.7989,-1.7516,-1.6465,-1.6465,-1.5725,-1.4191,-1.3943,-1.3706,-1.3475,-1.3227,-1.2985,-1.2813,-1.2813,-1.2813,-1.2813,-1.2813,0.0,0.0,-1.2613,-1.2565,-1.2467,-1.2467,-1.2467,-1.2467,-1.2467,-1.2175,-1.1829,0.0,0.0,0.0,0.0,0.0,0.0,0.0,-2.4539,-2.42,-2.42,-2.42,-2.42,-2.42,-2.42,-2.42,0.0,0.0,0.0,0.0,0.0,0.0,0.0,0.0,0.0,0.0,0.0,0.0,0.0,0.0,0.0,0.0,0.0,0.0,0.0,0.0,0.0,0.0,0.0,0.0,0.0,0.0,0.0,0.0,0.0,0.0,0.0,0.0,0.0,0.0,0.0,0.0,-1.941,-2.0189,-2.1182,-2.1978,-2.1619,0.0,0.0,-2.3117,-2.3143,-2.316,-2.3126,-2.1603,-1.991,-1.918,0.0,0.0,-1.6551,-1.6857,-1.7201,-1.6954,-1.6903,-1.7005,0.0,0.0,-1.7669,0.0,0.0,0.0,0.0,0.0,0.0,0.0,0.0,0.0,0.0,-1.8593,0.0,-1.7989,-1.7989,-1.7252,-1.5666,-1.5613,-1.5143,-1.4196,-1.3943,-1.3706,-1.3475,-1.3227,-1.2985,-1.2813,-1.2813,-1.2813,-1.2813,-1.2813,0.0,0.0,-1.2078,-1.178,-1.134,-1.134,-1.134,-1.134,-1.134,-1.134,-1.1292,0.0,0.0,0.0,0.0,0.0,0.0,-2.4503,-2.4334,-2.42,-2.42,-2.42,-2.42,-2.42,-2.42,-2.42,-2.42,0.0,0.0,0.0,0.0,0.0,0.0,0.0,0.0,0.0,0.0,0.0,0.0,0.0,0.0,0.0,0.0,0.0,0.0,0.0,0.0,0.0,0.0,0.0,0.0,0.0,0.0,0.0,0.0,0.0,0.0,0.0,0.0,0.0,0.0,0.0,0.0,-1.8913,-1.9718,0.0,0.0,-2.1901,-2.2544,-2.2997,-2.328,-2.3391,-2.3169,-2.1495,-1.9766,-1.9164,0.0,-1.6674,-1.6463,-1.6771,-1.7049,-1.6925,-1.6903,-1.6939,0.0,0.0,0.0,0.0,0.0,0.0,0.0,0.0,0.0,0.0,0.0,0.0,-1.8586,-1.8199,0.0,-1.6564,-1.6935,-1.667,-1.5559,-1.5506,-1.5089,-1.4196,-1.3943,-1.3776,-1.368,-1.3292,-1.3055,-1.2964,-1.2872,-1.2813,-1.2759,-1.2467,0.0,0.0,-1.1639,-1.1389,-1.1194,-1.1194,-1.1194,-1.1194,-1.1194,-1.0998,-1.0703,0.0,0.0,0.0,0.0,0.0,-2.42,-2.42,-2.42,-2.42,-2.42,-2.42,-2.42,-2.42,-2.42,-2.42,-2.42,-2.42,0.0,0.0,0.0,0.0,0.0,0.0,0.0,0.0,0.0,0.0,0.0,0.0,0.0,0.0,0.0,0.0,0.0,0.0,0.0,0.0,0.0,0.0,0.0,0.0,0.0,0.0,0.0,0.0,0.0,0.0,0.0,0.0,0.0,0.0,0.0,0.0,0.0,0.0,0.0,-2.1259,-2.1961,-2.2612,-2.3057,-2.3323,-2.3006,-2.1387,-1.9686,0.0,-1.7719,-1.6558,-1.6558,-1.6815,-1.7042,-1.7042,-1.7042,-1.7042,0.0,0.0,-1.7186,0.0,0.0,0.0,0.0,0.0,-1.8774,0.0,-1.9005,-1.8684,-1.8042,-1.7569,0.0,-1.5559,-1.5773,-1.5725,-1.5143,-1.5143,-1.4826,-1.4196,-1.3943,-1.3787,-1.3717,-1.3303,-1.3071,-1.3001,-1.2834,-1.2813,-1.2764,-1.2224,0.0,0.0,-1.1194,-1.085,-1.0708,-1.0708,-1.0708,-1.0708,-1.0708,-1.0511,-1.0167,0.0,0.0,0.0,0.0,0.0,0.0,-2.42,-2.42,-2.42,-2.42,-2.42,-2.42,-2.42,-2.42,-2.42,-2.42,-2.42,0.0,0.0,0.0,0.0,0.0,0.0,0.0,0.0,0.0,0.0,-2.42,-2.42,0.0,0.0,0.0,0.0,0.0,0.0,0.0,0.0,0.0,0.0,0.0,0.0,0.0,0.0,0.0,0.0,0.0,0.0,0.0,0.0,0.0,0.0,0.0,0.0,0.0,0.0,0.0,-2.0249,-2.1499,-2.1901,-2.2328,-2.2603,-2.2603,-2.1063,-1.9406,0.0,-1.785,-1.6895,-1.6895,-1.7106,-1.7279,-1.7279,-1.7279,-1.7279,-1.7279,-1.7279,0.0,-1.7772,0.0,0.0,0.0,0.0,0.0,-1.876,-1.8337,-1.7989,-1.7989,-1.6458,0.0,-1.5506,-1.4665,-1.4191,-1.4191,-1.4191,-1.4196,-1.4196,-1.3943,-1.3706,-1.348,-1.3227,-1.2985,-1.2813,-1.2813,-1.2813,-1.2764,0.0,0.0,0.0,-1.0605,-1.0117,-0.9628,-0.9628,-0.9628,-0.9628,-0.9628,-0.9628,-0.9628,0.0,0.0,0.0,0.0,0.0,0.0,0.0,-2.42,-2.42,-2.42,-2.42,-2.42,-2.42,-2.42,-2.42,-2.42,-2.42,0.0,0.0,0.0,0.0,0.0,0.0,0.0,0.0,0.0,-2.42,-2.42,-2.42,-2.42,-2.4189,-2.3934,0.0,0.0,0.0,0.0,0.0,0.0,0.0,0.0,0.0,0.0,0.0,0.0,0.0,0.0,0.0,0.0,0.0,0.0,0.0,0.0,0.0,0.0,0.0,0.0,0.0,0.0,-2.0939,-2.1017,-2.087,-2.0778,-1.951,-1.831,-1.8388,-1.7462,-1.6631,-1.6859,-1.7106,-1.7279,-1.7279,-1.7279,-1.7279,-1.7279,-1.7279,0.0,0.0,0.0,0.0,0.0,0.0,0.0,0.0,0.0,-1.7509,-1.6405,-1.5826,0.0,-1.4617,-1.4353,-1.4196,-1.4196,-1.4196,-1.4196,-1.4196,-1.4116,-1.404,-1.3965,-1.3556,-1.3324,-1.3294,-1.2959,-1.2813,0.0,0.0,0.0,0.0,-1.0216,-0.9776,-0.9579,-0.9579,-0.9579,-0.9579,-0.9579,-0.9579,-0.9579,0.0,0.0,0.0,0.0,0.0,0.0,0.0,-2.42,-2.42,-2.42,-2.42,-2.42,-2.42,-2.42,-2.42,-2.42,-2.42,0.0,0.0,0.0,0.0,0.0,0.0,0.0,0.0,-2.42,-2.42,-2.42,-2.42,-2.42,-2.42,-2.4043,-2.3751,-2.3372,0.0,0.0,0.0,0.0,0.0,0.0,0.0,0.0,-1.8768,0.0,0.0,0.0,0.0,0.0,0.0,0.0,0.0,0.0,0.0,0.0,0.0,0.0,-1.9098,0.0,0.0,-2.0178,-1.9956,-1.9622,-1.8707,0.0,-1.7972,-1.7259,-1.669,-1.6967,-1.7186,-1.7279,-1.7279,-1.7279,-1.7279,-1.7279,-1.7279,0.0,0.0,0.0,0.0,0.0,0.0,0.0,0.0,-1.7503,-1.6769,-1.5701,0.0,0.0,-1.4504,-1.4374,-1.432,-1.432,-1.4239,-1.4196,-1.4196,-1.4196,-1.4105,-1.3922,-1.362,-1.3434,-1.3251,-1.2948,-1.2716,0.0,0.0,0.0,0.0,-0.9969,-0.9579,-0.9579,-0.9579,-0.9579,-0.9579,-0.9579,-0.9579,-0.9579,0.0,0.0,0.0,0.0,0.0,0.0,0.0,-2.42,-2.42,-2.42,-2.42,-2.42,-2.42,-2.42,-2.42,-2.42,0.0,0.0,0.0,0.0,0.0,0.0,0.0,0.0,0.0,-2.42,-2.42,-2.42,-2.42,-2.42,-2.42,-2.3824,-2.3409,-2.2964,-2.2553,0.0,0.0,0.0,0.0,0.0,0.0,0.0,0.0,0.0,0.0,0.0,0.0,0.0,0.0,0.0,0.0,0.0,0.0,0.0,0.0,0.0,0.0,0.0,0.0,-1.9586,0.0,0.0,0.0,0.0,-1.7652,-1.7221,0.0,-1.723,-1.7311,-1.7279,-1.7279,-1.7279,-1.7279,-1.7232,-1.7279,-1.7395,0.0,-1.7778,0.0,0.0,-1.8202,0.0,-1.7857,-1.6611,-1.575,-1.5719,0.0,0.0,-1.4869,-1.4643,-1.4464,-1.448,-1.4315,-1.4196,-1.4196,-1.4196,-1.3965,-1.3502,-1.3486,-1.3233,-1.2835,-1.277,-1.2467,0.0,0.0,0.0,0.0,-0.9821,-0.9579,-0.9579,-0.9579,-0.9579,-0.9579,-0.9579,-0.9579,-0.9579,0.0,0.0,0.0,0.0,0.0,0.0,0.0,0.0,0.0,0.0,-2.42,-2.42,-2.42,-2.42,-2.42,0.0,0.0,0.0,0.0,0.0,0.0,0.0,0.0,0.0,0.0,-2.42,-2.42,-2.42,-2.42,-2.42,-2.42,-2.4116,-2.3677,-2.2964,-2.2419,0.0,0.0,0.0,0.0,0.0,0.0,0.0,0.0,0.0,0.0,0.0,-1.8263,-1.8128,0.0,0.0,0.0,0.0,0.0,0.0,0.0,0.0,-1.8478,-1.8409,-1.8128,0.0,-1.7988,-1.7723,-1.7427,-1.7181,0.0,0.0,0.0,0.0,0.0,0.0,0.0,-1.7279,-1.7138,-1.6567,-1.6951,-1.72,-1.6987,0.0,0.0,-1.8753,-1.7911,-1.709,-1.6658,-1.5972,-1.5352,0.0,0.0,-1.4449,-1.4859,-1.4498,-1.4352,-1.4475,-1.4315,-1.4196,-1.4196,-1.4196,-1.404,-1.3739,-1.3561,-1.3319,-1.3017,-1.2448,-1.2127,0.0,0.0,0.0,-1.0364,-0.9821,-0.9579,-0.9579,-0.9579,-0.9579,-0.9579,-0.9579,-0.9579,-0.9579,0.0,0.0,0.0,0.0,0.0,0.0,0.0,0.0,0.0,0.0,0.0,0.0,0.0,0.0,0.0,0.0,0.0,0.0,0.0,0.0,0.0,0.0,0.0,0.0,-2.42,-2.42,-2.42,-2.42,-2.4418,-2.4522,-2.4533,-2.4341,-2.4018,-2.3581,-2.2067,0.0,0.0,0.0,0.0,0.0,-1.9281,0.0,0.0,0.0,0.0,0.0,-1.8128,-1.7878,0.0,-1.7716,-1.7595,-1.7441,0.0,0.0,0.0,0.0,-1.8011,-1.786,-1.7206,-1.7026,-1.6944,-1.6712,-1.6769,-1.6822,-1.6491,0.0,0.0,0.0,0.0,0.0,0.0,0.0,0.0,-1.6756,-1.7167,0.0,0.0,0.0,0.0,-1.8516,-1.7596,-1.6769,0.0,0.0,0.0,0.0,0.0,-1.4789,-1.5036,-1.4708,-1.4519,-1.448,-1.4315,-1.4196,-1.4196,-1.4196,-1.4019,-1.3658,-1.354,-1.3191,-1.2597,-1.2178,-1.1736,0.0,0.0,0.0,-1.0019,-0.9727,-0.9579,-0.9579,-0.9579,-0.9579,-0.9579,-0.9579,-0.9579,-0.9579,0.0,0.0,0.0,0.0,0.0,0.0,0.0,0.0,0.0,0.0,0.0,0.0,0.0,0.0,0.0,0.0,0.0,0.0,0.0,0.0,0.0,0.0,0.0,-2.42,-2.42,-2.42,-2.42,-2.42,-2.4682,-2.4912,-2.4886,-2.4637,-2.4382,-2.4071,-2.1635,-1.9982,0.0,0.0,0.0,0.0,-1.9495,0.0,0.0,0.0,0.0,0.0,0.0,0.0,0.0,-1.7392,-1.7106,-1.68,-1.7429,0.0,0.0,0.0,0.0,0.0,-1.6551,-1.6345,-1.625,-1.6038,-1.6389,-1.6675,-1.6045,0.0,0.0,0.0,0.0,0.0,0.0,0.0,0.0,0.0,0.0,0.0,-1.8145,-1.753,-1.7264,-1.8036,-1.7075,0.0,-1.638,0.0,0.0,0.0,0.0,-1.5113,-1.5188,-1.4982,-1.4724,-1.4432,-1.4299,-1.4159,-1.4083,-1.4121,-1.3916,-1.348,-1.3392,-1.2833,-1.198,-1.1829,-1.1247,-1.0413,0.0,0.0,-0.9579,-0.9579,-0.9579,-0.9579,-0.9579,-0.9579,-0.9579,-0.9579,-0.9579,-0.9579,0.0,0.0,0.0,0.0,0.0,0.0,0.0,0.0,0.0,0.0,0.0,0.0,0.0,0.0,0.0,0.0,0.0,0.0,0.0,0.0,0.0,0.0,-2.42,-2.42,-2.42,-2.42,-2.42,-2.42,-2.4682,-2.4912,-2.4923,-2.5298,-2.4598,-2.2974,-2.1452,-2.0109,-1.9029,-1.9277,-1.9103,-1.8708,-1.9102,0.0,0.0,0.0,0.0,0.0,0.0,0.0,0.0,-1.7392,-1.7106,-1.6713,-1.6816,0.0,0.0,0.0,0.0,0.0,-1.6123,-1.5987,-1.6038,-1.6287,-1.6419,-1.6397,-1.6001,0.0,0.0,0.0,0.0,0.0,0.0,0.0,-1.7091,0.0,0.0,-1.6605,0.0,0.0,-1.6204,-1.68,0.0,-1.4987,-1.5435,0.0,0.0,0.0,0.0,-1.4764,-1.5172,-1.4775,-1.4482,-1.4256,-1.4213,-1.3997,-1.3593,-1.3782,-1.3744,-1.3475,-1.2805,-1.2323,-1.198,-1.1051,-1.056,-1.0364,0.0,-0.9677,-0.9579,-0.9579,-0.9579,-0.9579,-0.9579,-0.9579,-0.9579,-0.9579,-0.9579,-0.9579,0.0,0.0,0.0,0.0,0.0,0.0,0.0,0.0,0.0,0.0,0.0,0.0,0.0,0.0,0.0,0.0,0.0,0.0,0.0,0.0,0.0,-2.42,-2.42,-2.42,-2.42,-2.4453,-2.4579,-2.4579,-2.5371,-2.575,-2.575,-2.5727,-2.4379,-2.198,-2.1271,-2.0051,-1.846,-1.8877,-1.887,-1.8622,0.0,0.0,0.0,0.0,0.0,0.0,0.0,0.0,0.0,0.0,-1.6376,-1.6035,-1.6217,0.0,0.0,0.0,0.0,0.0,-1.5744,-1.5608,-1.5687,-1.5826,-1.6118,-1.6243,-1.576,0.0,0.0,0.0,0.0,0.0,0.0,0.0,-1.7621,-1.7846,0.0,-1.685,-1.7809,-1.6361,-1.5323,0.0,0.0,-1.5102,0.0,0.0,0.0,0.0,0.0,0.0,-1.5047,-1.4724,-1.4314,-1.4003,-1.4121,-1.3965,-1.3486,-1.3583,-1.3358,-1.2866,-1.25,-1.1885,-1.1096,-1.0605,-1.0216,-0.9969,0.0,-0.9579,-0.9579,-0.9579,-0.9579,-0.9579,-0.9579,-0.9579,-0.9579,-0.9579,-0.9579,-0.9579,0.0,0.0,0.0,0.0,0.0,0.0,0.0,0.0,0.0,0.0,0.0,0.0,0.0,0.0,0.0,0.0,0.0,0.0,0.0,0.0,-2.42,-2.42,-2.4303,-2.4361,-2.4361,-2.4728,-2.4969,-2.5107,-2.6053,-2.6439,-2.6331,-2.547,-2.3804,-2.1498,-2.1164,-2.0002,-1.8259,-1.8544,-1.8583,-1.8485,0.0,0.0,0.0,0.0,0.0,0.0,0.0,0.0,0.0,0.0,0.0,0.0,0.0,0.0,0.0,-1.5761,-1.5761,-1.5745,-1.5455,-1.5447,-1.5484,-1.5411,-1.5796,-1.6038,-1.5635,0.0,0.0,0.0,0.0,0.0,0.0,-1.7823,0.0,-1.8874,-1.7888,-1.7136,-1.7543,-1.5866,-1.4687,-1.5075,-1.5175,-1.5208,0.0,0.0,0.0,0.0,0.0,0.0,-1.481,-1.4584,-1.4261,-1.3836,-1.3954,-1.382,-1.3394,-1.3234,-1.2885,-1.2299,-1.2099,-1.1494,-1.0413,-1.0265,-0.9969,-0.9579,-0.9579,-0.9579,-0.9579,-0.9579,-0.9579,-0.9579,-0.9579,-0.9579,-0.9579,-0.9579,-0.9579,-0.9579,0.0,0.0,0.0,0.0,0.0,0.0,0.0,0.0,0.0,0.0,0.0,0.0,0.0,0.0,0.0,0.0,0.0,0.0,0.0,0.0,-2.42,-2.42,-2.4625,-2.4866,-2.4866,-2.49,-2.5153,-2.5658,-2.6198,-2.6278,-2.5795,-2.4098,-2.2879,-2.2084,-2.1233,-2.0109,-1.8922,-1.8949,-1.8598,-1.8034,-1.8068,0.0,0.0,0.0,0.0,0.0,0.0,0.0,0.0,0.0,0.0,0.0,0.0,0.0,-1.5425,-1.5425,-1.5425,-1.5418,-1.5396,-1.5608,-1.5804,-1.5462,-1.5418,0.0,-1.5783,-1.6118,0.0,0.0,0.0,0.0,0.0,-1.8496,-1.8585,-1.8053,-1.7502,-1.689,-1.6412,0.0,-1.4526,-1.4558,-1.4564,0.0,0.0,0.0,0.0,0.0,0.0,0.0,-1.4507,-1.4342,-1.4094,-1.383,-1.3631,-1.34,-1.313,-1.2472,-1.2166,-1.2294,-1.1604,-1.0962,-1.0359,-0.9871,-0.9628,-0.9579,-0.9579,-0.9579,-0.9579,-0.9579,-0.9579,-0.9579,-0.9579,-0.9579,-0.9579,-0.9579,-0.9579,-0.9579,0.0,0.0,0.0,0.0,0.0,0.0,0.0,0.0,0.0,0.0,0.0,0.0,0.0,0.0,0.0,0.0,0.0,0.0,0.0,0.0,-2.42,-2.42,-2.4372,-2.4763,-2.5394,-2.5716,-2.598,-2.6175,-2.6691,-2.6821,-2.664,-2.532,-2.4404,-2.379,-2.2283,-2.0937,-1.9762,-1.9212,-1.8594,-1.8,-1.8,-1.8,0.0,0.0,0.0,0.0,0.0,0.0,0.0,0.0,-1.5555,-1.5389,-1.5389,-1.5389,-1.5389,-1.5389,-1.5389,-1.5389,-1.5389,-1.5476,-1.5542,-1.5418,0.0,0.0,0.0,0.0,0.0,0.0,0.0,0.0,0.0,0.0,-1.8293,-1.8282,-1.7175,-1.6301,-1.6242,-1.5233,-1.448,-1.448,0.0,0.0,0.0,0.0,0.0,0.0,0.0,0.0,-1.448,-1.432,-1.4078,-1.383,-1.389,-1.3663,-1.3109,-1.2806,-1.2273,-1.1604,-1.0986,-1.0408,-0.9875,-0.9677,-0.9579,-0.9579,-0.9579,-0.9579,-0.9579,-0.9579,-0.9579,-0.9579,-0.9579,-0.9579,-0.9579,-0.9579,-0.9579,-0.9579,0.0,0.0,0.0,0.0,0.0,0.0,0.0,0.0,0.0,0.0,0.0,0.0,0.0,0.0,0.0,0.0,0.0,0.0,0.0,-2.42,-2.42,-2.42,-2.4338,-2.4751,-2.544,-2.6117,-2.6582,-2.6703,-2.6751,-2.6745,-2.6723,-2.5636,-2.4843,-2.4217,-2.2775,-2.152,-2.0329,-1.9573,-1.8878,-1.8322,-1.808,-1.8,0.0,0.0,0.0,0.0,0.0,0.0,0.0,0.0,-1.5389,-1.5389,-1.5389,-1.5389,-1.5389,-1.5389,-1.5389,-1.5389,-1.5389,-1.5389,-1.5389,0.0,0.0,0.0,0.0,0.0,0.0,0.0,0.0,0.0,0.0,0.0,0.0,0.0,-1.6735,-1.5999,-1.5867,-1.5132,-1.4616,0.0,0.0,0.0,0.0,0.0,0.0,0.0,0.0,0.0,0.0,-1.4202,-1.4035,-1.3943,-1.3959,-1.3766,-1.3335,-1.2781,-1.2123,-1.1288,-1.0488,-0.9969,-0.9579,-0.9579,-0.9579,-0.9579,-0.9579,-0.9579,-0.9579,-0.9579,-0.9579,-0.9579,-0.9579,-0.9579,-0.9579,-0.9579,-0.9579,-0.9579,0.0,0.0,0.0,0.0,0.0,0.0,0.0,0.0,0.0,0.0,0.0,0.0,0.0,0.0,0.0,0.0,0.0,0.0,-2.42,-2.42,-2.42,-2.42,-2.4659,-2.4912,-2.4923,-2.5945,-2.6726,-2.719,-2.6268,-2.5819,-2.5777,-2.4502,-2.3576,-2.2938,-2.2499,-2.1694,-2.0588,-1.9957,-1.9412,-1.8922,-1.8282,-1.8,-1.8,0.0,0.0,0.0,0.0,0.0,0.0,0.0,-1.5389,-1.5389,-1.5389,-1.5389,-1.5389,-1.5389,-1.5389,-1.5389,-1.5389,-1.5389,-1.5389,0.0,0.0,0.0,0.0,0.0,0.0,0.0,0.0,0.0,0.0,0.0,0.0,-1.609,-1.6263,-1.6178,-1.5026,-1.488,0.0,0.0,0.0,0.0,0.0,0.0,0.0,0.0,0.0,0.0,0.0,-1.3959,-1.3938,-1.4186,-1.3733,-1.3593,-1.3814,-1.2276,-1.1501,-1.1491,-1.0207,-0.9583,-0.9579,-0.9579,-0.9579,-0.9579,-0.9579,-0.9579,-0.9579,-0.9579,-0.9579,-0.9579,-0.9579,-0.9579,-0.9579,-0.9579,-0.9579,-0.9579,0.0,0.0,0.0,0.0,0.0,0.0,0.0,0.0,0.0,0.0,0.0,0.0,0.0,0.0,0.0,0.0,0.0,0.0,0.0,-2.4694,-2.4545,-2.4212,-2.4326,-2.474,-2.5463,-2.6473,-2.7082,-2.719,-2.6921,-2.6787,-2.6775,-2.6064,-2.5817,-2.5848,-2.3912,-2.2839,-2.2312,-2.0374,-1.922,-1.8704,-1.8499,-1.8263,-1.8025,0.0,0.0,0.0,0.0,0.0,0.0,0.0,0.0,0.0,-1.5389,-1.5389,-1.5389,-1.5389,-1.5389,-1.5389,-1.5389,-1.5557,0.0,-1.5447,0.0,0.0,0.0,0.0,0.0,0.0,0.0,0.0,0.0,0.0,0.0,-1.5429,-1.5195,-1.4998,-1.4649,0.0,0.0,0.0,0.0,0.0,0.0,0.0,0.0,0.0,0.0,0.0,0.0,-1.4121,-1.4116,-1.4191,-1.4056,-1.3768,-1.3235,-1.252,-1.1731,-1.0909,-1.0327,-0.9872,-0.9579,-0.9579,-0.9579,-0.9579,-0.9579,-0.9579,-0.9579,-0.9579,-0.9579,-0.9579,-0.9579,-0.9579,-0.9579,-0.9579,-0.9579,-0.9579,0.0,0.0,0.0,0.0,0.0,0.0,0.0,0.0,0.0,0.0,0.0,0.0,0.0,0.0,0.0,0.0,0.0,0.0,0.0,0.0,-2.4694,-2.4212,-2.4237,-2.4619,-2.5459,-2.6078,-2.6483,-2.6685,-2.6674,-2.6562,-2.6382,-2.5891,-2.5744,-2.5788,-2.4148,-2.306,-2.2419,-2.0713,-1.9609,-1.8961,-1.8876,-1.8682,-1.8494,0.0,0.0,0.0,0.0,0.0,0.0,0.0,0.0,0.0,-1.5389,-1.5389,-1.5389,-1.5389,-1.5476,-1.5579,-1.5579,-1.5855,0.0,-1.5843,-1.6588,-1.7206,0.0,0.0,0.0,0.0,0.0,0.0,0.0,0.0,0.0,-1.4693,-1.4542,-1.448,-1.448,0.0,0.0,0.0,0.0,0.0,0.0,0.0,0.0,0.0,0.0,0.0,0.0,-1.4196,-1.4196,-1.4196,-1.4196,-1.3847,-1.3108,-1.2535,-1.1743,-1.0821,-1.0221,-0.9835,-0.9579,-0.9579,-0.9579,-0.9579,-0.9579,-0.9579,-0.9579,-0.9579,-0.9579,-0.9579,-0.9579,-0.9669,-0.9721,-0.9652,-0.9669,-0.973,0.0,0.0,0.0,0.0,0.0,0.0,0.0,0.0,0.0,0.0,0.0,0.0,0.0,0.0,0.0,0.0,0.0,0.0,0.0,0.0,-2.4832,-2.4361,-2.4397,-2.462,-2.5039,-2.5145,-2.5374,-2.5746,-2.5788,-2.557,-2.5044,-2.4724,-2.4317,-2.3877,-2.3477,-2.2637,-2.154,-2.0961,-2.0242,-1.9445,-1.9314,-1.9247,-1.9179,-1.8776,0.0,0.0,0.0,0.0,0.0,0.0,0.0,0.0,-1.5389,-1.5389,-1.5389,-1.5389,-1.5657,-1.5913,-1.5913,0.0,0.0,-1.6421,-1.6845,0.0,-1.6189,0.0,0.0,0.0,0.0,0.0,0.0,-1.5053,-1.4891,-1.3804,-1.404,-1.4393,0.0,0.0,0.0,0.0,0.0,0.0,0.0,0.0,0.0,0.0,0.0,0.0,0.0,-1.4196,-1.4196,-1.4137,-1.4137,-1.3802,-1.3122,-1.225,-1.1521,-1.0906,-1.0008,-0.9644,-0.9579,-0.9579,-0.9579,-0.9579,-0.9579,-0.9579,-0.9579,-0.9579,-0.9579,-0.9579,-0.9579,-0.9726,-0.9843,-0.9685,-0.9726,-0.986,0.0,0.0,0.0,0.0,0.0,0.0,0.0,0.0,0.0,0.0,0.0,0.0,0.0,0.0,0.0,0.0,0.0,0.0,0.0,0.0,-2.5911,-2.5406,-2.5436,-2.5198,-2.457,-2.5328,-2.5393,-2.4699,-2.5491,-2.5515,-2.4861,-2.4798,-2.467,-2.4542,-2.2989,-2.2318,-2.2178,-2.0594,-1.9687,-1.9289,-1.9505,-1.9436,-1.9204,-1.9076,-1.8853,0.0,0.0,0.0,0.0,0.0,0.0,0.0,-1.5389,-1.5389,-1.5389,-1.5389,-1.5657,-1.5913,-1.5913,-1.6198,0.0,0.0,-1.6225,-1.5765,-1.4526,0.0,0.0,0.0,0.0,0.0,0.0,-1.282,-1.2955,-1.2525,-1.3091,0.0,0.0,0.0,0.0,0.0,0.0,0.0,0.0,0.0,0.0,0.0,0.0,0.0,-1.4196,-1.4196,-1.3975,-1.3537,-1.3483,-1.2955,-1.1763,-1.1513,-1.1006,0.0,-0.9914,-0.9758,-0.9579,-0.9579,-0.9579,-0.9579,-0.9579,-0.9579,-0.9579,-0.9579,-0.9579,-0.9579,-0.9579,-0.9603,-0.9681,-0.964,-0.9652,-0.9685,0.0,0.0,0.0,0.0,0.0,0.0,0.0,0.0,0.0,0.0,0.0,0.0,0.0,0.0,0.0,0.0,0.0,0.0,0.0,0.0,0.0,-2.5112,-2.5113,-2.4904,-2.4462,-2.466,-2.4501,-2.3966,-2.4129,-2.4246,0.0,0.0,0.0,-2.3444,0.0,-2.1386,-2.1262,-2.0167,-1.9589,-1.9461,-1.9623,-1.958,-1.9427,-1.9247,-1.893,-1.8537,-1.8128,0.0,0.0,0.0,0.0,0.0,0.0,0.0,-1.5389,-1.5389,-1.576,-1.6089,-1.5959,0.0,0.0,-1.529,0.0,0.0,0.0,0.0,0.0,0.0,0.0,0.0,-1.204,-1.2175,-1.2311,-1.2153,0.0,0.0,0.0,0.0,0.0,0.0,0.0,0.0,0.0,0.0,0.0,0.0,0.0,-1.4196,-1.4196,-1.4196,-1.3921,-1.3315,-1.3209,-1.2554,-1.1323,-1.1137,-1.0686,-0.9884,-0.9803,-0.9713,-0.9579,-0.9579,-0.9579,-0.9579,-0.9579,-0.9579,-0.9579,-0.9579,-0.9579,-0.9579,-0.9579,-0.9681,-0.9742,-0.9657,-0.9681,-0.9762,0.0,0.0,0.0,0.0,0.0,0.0,0.0,0.0,0.0,0.0,0.0,0.0,0.0,0.0,0.0,0.0,0.0,0.0,0.0,0.0,0.0,0.0,-2.4584,-2.4472,-2.4315,-2.3764,-2.346,0.0,0.0,0.0,0.0,0.0,0.0,-2.1954,0.0,-2.049,-2.0184,-1.9945,-1.9759,-1.9708,-1.9768,-1.9794,-1.9751,-1.9418,-1.9067,-1.8725,-1.8288,-1.7556,-1.6768,-1.6713,0.0,0.0,0.0,0.0,-1.5389,-1.5257,-1.5662,-1.603,-1.5644,0.0,-1.4818,-1.3668,-1.289,0.0,0.0,0.0,0.0,0.0,0.0,-1.1859,-1.182,-1.1981,-1.2054,0.0,0.0,0.0,0.0,0.0,0.0,0.0,0.0,0.0,0.0,0.0,0.0,0.0,0.0,-1.4013,-1.3857,-1.3954,-1.3738,-1.2984,-1.2801,-1.2192,-1.1063,-1.0801,-1.0373,-0.9839,-0.9697,-0.9579,-0.9579,-0.9579,-0.9579,-0.9579,-0.9579,-0.9579,-0.9579,-0.9579,-0.9579,-0.9579,-0.9579,-0.9713,-0.9823,-0.9681,-0.9717,-0.9864,0.0,0.0,0.0,0.0,0.0,0.0,0.0,0.0,0.0,0.0,0.0,0.0,0.0,0.0,0.0,0.0,0.0,0.0,0.0,0.0,0.0,0.0,-2.5326,-2.4628,-2.3667,-2.3547,-2.3178,0.0,0.0,0.0,0.0,0.0,0.0,-2.1445,0.0,0.0,-2.0675,-2.0347,-2.0035,-1.9725,-2.0095,-2.0215,-2.018,-1.9759,0.0,0.0,-1.8776,-1.7971,-1.7169,-1.6833,-1.6121,0.0,0.0,0.0,-1.5298,-1.4699,-1.4815,-1.4915,0.0,0.0,-1.3446,0.0,0.0,0.0,0.0,0.0,0.0,0.0,-1.0646,-1.0646,-1.0646,-1.0791,0.0,0.0,0.0,0.0,0.0,0.0,0.0,0.0,0.0,0.0,0.0,0.0,0.0,0.0,-1.3042,-1.3121,-1.2496,-1.3047,-1.2842,-1.1634,-1.1549,-1.1054,-1.011,-1.0061,-0.9911,-0.9661,-0.9591,-0.9579,-0.9579,-0.9579,-0.9579,-0.9579,-0.9579,-0.9579,-0.9579,-0.9579,-0.9579,-0.9579,-0.9579,-0.9595,-0.9661,-0.9587,-0.9595,-0.9665,0.0,0.0,0.0,0.0,0.0,0.0,0.0,0.0,0.0,0.0,0.0,0.0,0.0,0.0,0.0,0.0,0.0,0.0,0.0,0.0,0.0,-2.5137,-2.4914,-2.4572,-2.4067,-2.3309,-2.2711,0.0,0.0,0.0,0.0,-2.0907,-2.1006,0.0,0.0,0.0,0.0,-2.0135,-2.0009,-2.0043,-2.0001,-1.9984,0.0,0.0,0.0,0.0,0.0,0.0,0.0,-1.7101,-1.6404,-1.5701,-1.5701,0.0,0.0,0.0,-1.4653,0.0,-1.3043,-1.2597,-1.2285,0.0,0.0,0.0,0.0,0.0,0.0,0.0,-1.0416,-1.0411,-1.0562,-1.0639,0.0,0.0,0.0,0.0,0.0,0.0,0.0,0.0,0.0,0.0,0.0,0.0,0.0,0.0,-1.2549,-1.2544,-1.2353,-1.2438,-1.2154,-1.1323,-1.1111,-1.066,-0.9888,-0.9786,-0.9701,-0.9579,-0.9579,-0.9579,-0.9579,-0.9579,-0.9579,-0.9579,-0.9579,-0.9579,-0.9579,-0.9579,-0.9579,-0.9579,-0.9579,-0.9579,-0.9579,-0.9579,-0.9579,-0.9657,0.0,0.0,0.0,0.0,0.0,0.0,0.0,0.0,0.0,0.0,0.0,0.0,0.0,0.0,0.0,0.0,0.0,0.0,0.0,0.0,0.0,-2.47,-2.4411,-2.4143,-2.396,-2.2755,0.0,0.0,0.0,0.0,-2.0292,-2.0292,-2.06,0.0,-2.0564,-2.0292,0.0,0.0,0.0,0.0,0.0,-1.9836,0.0,0.0,0.0,0.0,0.0,0.0,0.0,0.0,0.0,-1.6078,-1.5956,-1.5652,0.0,0.0,0.0,0.0,0.0,0.0,0.0,0.0,0.0,0.0,0.0,0.0,0.0,0.0,-1.0306,-1.0461,-1.0542,0.0,0.0,0.0,0.0,0.0,0.0,0.0,0.0,0.0,0.0,0.0,0.0,0.0,0.0,0.0,-1.1993,-1.201,-1.185,-1.1771,-1.1499,-1.0962,-1.069,-1.0319,-0.9819,-0.9693,-0.9579,-0.9579,-0.9579,-0.9579,-0.9579,-0.9579,-0.9579,-0.9579,-0.9579,-0.9579,-0.9579,-0.9579,-0.9579,-0.9579,-0.9579,-0.9579,-0.9579,-0.9579,-0.9579,-0.9665,0.0,0.0,0.0,0.0,0.0,0.0,0.0,0.0,0.0,0.0,0.0,0.0,0.0,0.0,-2.719,-2.719,0.0,0.0,0.0,0.0,0.0,-2.52,-2.4143,0.0,-2.2526,-2.1828,0.0,0.0,0.0,0.0,-2.0292,-2.0292,-2.0337,-2.0382,-2.0337,-2.0292,-2.0292,0.0,0.0,0.0,-2.0275,-2.0266,0.0,0.0,0.0,0.0,0.0,0.0,0.0,0.0,0.0,0.0,0.0,0.0,0.0,0.0,0.0,0.0,0.0,0.0,0.0,0.0,0.0,0.0,0.0,0.0,0.0,0.0,-1.0306,-1.0383,0.0,0.0,0.0,0.0,0.0,0.0,0.0,0.0,0.0,0.0,0.0,0.0,0.0,0.0,0.0,0.0,-1.1188,-1.1235,-1.0362,-1.0957,-1.0932,-1.0022,-0.9947,-0.9857,-0.9644,-0.9583,-0.9579,-0.9579,-0.9579,-0.9579,-0.9579,-0.9579,-0.9579,-0.9579,-0.9579,-0.9579,-0.9579,-0.9579,-0.9579,-0.9579,-0.9579,-0.9579,-0.9579,-0.9579,-0.9579,-0.9579,0.0,0.0,0.0,0.0,0.0,0.0,0.0,0.0,0.0,0.0,0.0,0.0,0.0,-2.719,-2.719,-2.719,-2.6921,0.0,0.0,0.0,0.0,-2.4786,-2.3927,-2.3363,-2.3091,-2.198,0.0,0.0,0.0,-2.0292,-2.0292,-2.0292,-2.0292,-2.0292,-2.0292,-2.0292,-2.0292,-2.0292,0.0,0.0,-2.0292,-2.0292,-2.0292,0.0,0.0,0.0,0.0,0.0,0.0,0.0,0.0,0.0,0.0,0.0,0.0,0.0,0.0,0.0,0.0,0.0,0.0,0.0,0.0,0.0,0.0,0.0,-0.9819,-0.9819,-0.9957,-1.0063,0.0,0.0,0.0,0.0,0.0,0.0,0.0,0.0,0.0,0.0,0.0,0.0,0.0,0.0,0.0,0.0,0.0,-1.0688,-1.0343,-1.0377,-1.0271,-0.9888,-0.9778,-0.9689,-0.9579,-0.9579,-0.9579,-0.9579,-0.9579,-0.9579,-0.9579,-0.9579,-0.9579,-0.9579,-0.9579,-0.9579,-0.9579,-0.9579,-0.9579,-0.9579,-0.9579,-0.9579,-0.9579,-0.9579,-0.9579,-0.9644,0.0,0.0,0.0,0.0,0.0,0.0,0.0,0.0,0.0,0.0,0.0,0.0,0.0,0.0,-2.719,-2.719,-2.6745,-2.6332,-2.5937,-2.5464,-2.4988,-2.4497,-2.3614,-2.3135,-2.3135,0.0,0.0,0.0,0.0,0.0,0.0,-2.0292,-2.0292,-2.0292,-2.0292,-2.0292,0.0,0.0,0.0,-2.0292,-2.0292,-2.0292,-2.0292,0.0,0.0,0.0,0.0,0.0,0.0,0.0,0.0,0.0,0.0,0.0,0.0,0.0,0.0,0.0,0.0,0.0,0.0,0.0,0.0,0.0,0.0,0.0,-0.9579,-0.9579,-0.9766,0.0,0.0,0.0,0.0,0.0,0.0,0.0,0.0,0.0,0.0,0.0,0.0,0.0,0.0,0.0,0.0,0.0,0.0,0.0,-1.0351,-1.0111,-0.9925,-0.9803,-0.9689,-0.9579,-0.9579,-0.9579,-0.9579,-0.9579,-0.9579,-0.9579,-0.9579,-0.9579,-0.9579,-0.9579,-0.9579,-0.9579,-0.9579,-0.9579,-0.9579,-0.9579,-0.9579,-0.9579,-0.9583,-0.9693,-0.9713,-0.973,0.0,0.0,0.0,0.0,0.0,0.0,0.0,0.0,0.0,0.0,0.0,0.0,0.0,0.0,0.0,-2.7149,-2.6745,-2.629,-2.5895,-2.5464,-2.4999,-2.4497,0.0,0.0,0.0,0.0,0.0,0.0,0.0,0.0,0.0,0.0,-2.0292,-2.0292,-2.0292,-2.0292,-2.0292,0.0,-2.0292,-2.0292,0.0,-2.0292,-2.0292,0.0,0.0,0.0,-2.0292,-2.0292,0.0,-1.915,0.0,0.0,0.0,0.0,0.0,0.0,0.0,0.0,0.0,0.0,0.0,0.0,0.0,0.0,-0.9388,0.0,-0.9571,-0.9571,-0.9758,0.0,0.0,0.0,0.0,0.0,0.0,0.0,0.0,0.0,0.0,0.0,0.0,0.0,0.0,0.0,0.0,0.0,-1.0692,-1.0538,-1.0233,-1.0204,-0.9985,-0.9591,-0.9579,-0.9579,-0.9579,-0.9579,-0.9579,-0.9579,-0.9579,-0.9579,-0.9579,-0.9579,-0.9579,-0.9579,-0.9579,-0.9579,-0.9579,-0.9579,-0.9579,-0.9579,-0.9579,-0.9579,-0.9648,-0.9815,-0.9876,-0.988,0.0,0.0,0.0,0.0,0.0,0.0,0.0,0.0,0.0,0.0,0.0,0.0,0.0,0.0,-2.6592,-2.6271,-2.5832,-2.5485,-2.5411,-2.4956,-2.4625,-2.4497,-2.3159,-2.2394,-2.2394,0.0,0.0,0.0,0.0,0.0,0.0,0.0,0.0,0.0,-2.0292,-2.0292,-2.0292,-2.0292,0.0,-2.0292,-2.0292,-2.0292,0.0,0.0,0.0,0.0,0.0,-2.0292,-2.0155,0.0,-1.8764,-1.8263,0.0,0.0,0.0,0.0,0.0,0.0,-1.0727,0.0,0.0,0.0,0.0,0.0,0.0,0.0,0.0,-0.9477,-0.9575,0.0,0.0,0.0,0.0,0.0,0.0,0.0,0.0,0.0,0.0,0.0,0.0,0.0,0.0,0.0,0.0,0.0,-1.0692,-1.0538,-1.0233,-0.9916,-0.973,-0.9579,-0.9579,-0.9579,-0.9579,-0.9579,-0.9579,-0.9579,-0.9579,-0.9579,-0.9579,-0.9579,-0.9579,-0.9579,-0.9579,-0.9579,-0.9579,-0.9579,-0.9579,-0.9579,-0.9579,-0.9579,-0.9583,-0.9681,-0.9697,-0.9598,0.0,0.0,0.0,0.0,0.0,0.0,0.0,0.0,0.0,0.0,0.0,0.0,0.0,0.0,0.0,-2.5653,-2.5346,-2.52,-2.52,-2.4487,-2.4067,-2.4067,-2.2721,-2.1961,-2.1961,-2.0862,0.0,0.0,0.0,0.0,0.0,0.0,0.0,0.0,0.0,0.0,0.0,0.0,0.0,0.0,-2.0292,0.0,0.0,-2.0292,-2.0292,0.0,0.0,0.0,-2.0201,-1.9417,-1.8866,0.0,0.0,0.0,0.0,0.0,0.0,0.0,0.0,0.0,0.0,0.0,0.0,0.0,-0.9132,-0.9178,-0.9294,0.0,-0.9332,0.0,0.0,0.0,0.0,0.0,0.0,0.0,0.0,0.0,0.0,0.0,0.0,0.0,0.0,-1.0586,-1.0615,-1.0684,-1.0627,-1.0428,-1.0067,-0.9778,-0.9579,-0.9579,-0.9579,-0.9579,-0.9579,-0.9579,-0.9579,-0.9579,-0.9579,-0.9579,-0.9579,-0.9579,-0.9579,-0.9579,-0.9579,-0.9579,-0.9579,-0.9579,-0.9579,-0.9579,-0.9579,-0.9579,-0.9587,-0.9709,-0.9534,-0.918,0.0,0.0,0.0,-2.7056,-2.6736,-2.6628,0.0,0.0,0.0,0.0,0.0,0.0,0.0,0.0,0.0,0.0,-2.5059,-2.5041,-2.5041,-2.4069,-2.3503,-2.3503,-2.2157,-2.1401,-2.1401,-2.069,0.0,0.0,0.0,0.0,0.0,0.0,0.0,0.0,0.0,0.0,0.0,0.0,0.0,-2.0292,-2.0292,-2.0292,0.0,0.0,-2.0292,-2.0292,-2.0292,-2.0292,-2.0201,-1.9691,-1.8866,0.0,0.0,0.0,0.0,0.0,-1.244,0.0,0.0,0.0,0.0,0.0,0.0,0.0,-0.9508,-0.9296,-0.9114,-0.9068,-0.9084,0.0,0.0,0.0,0.0,0.0,0.0,0.0,0.0,0.0,0.0,0.0,0.0,0.0,-1.0387,-1.0404,-1.0469,-1.0623,-1.0473,-1.0241,-0.9933,-0.9734,-0.9579,-0.9579,-0.9579,-0.9579,-0.9579,-0.9579,-0.9579,-0.9579,-0.9579,-0.9579,-0.9579,-0.9579,-0.9579,-0.9579,-0.9579,-0.9579,-0.9579,-0.9579,-0.9579,-0.9579,-0.9579,-0.9579,-0.9599,-0.9722,-0.9259,-0.8533,0.0,0.0,0.0,-2.6229,-2.64,-2.6356,-2.5598,0.0,0.0,0.0,0.0,0.0,0.0,0.0,0.0,0.0,-2.4158,-2.4169,-2.4169,-2.3735,-2.3503,-2.3503,-2.2157,-2.1401,-2.1401,-2.069,-2.0292,-2.0292,0.0,0.0,0.0,0.0,0.0,0.0,0.0,0.0,0.0,0.0,0.0,-2.0292,-2.0292,0.0,-2.0292,-2.0292,-2.0292,-2.0292,-2.0292,-2.0292,-2.0155,-1.9234,-1.8589,-1.7738,0.0,0.0,0.0,0.0,0.0,0.0,0.0,0.0,0.0,0.0,0.0,0.0,-0.9566,-0.937,-0.9323,0.0,-0.8995,0.0,0.0,0.0,0.0,0.0,0.0,0.0,0.0,0.0,0.0,0.0,0.0,0.0,-1.0265,-1.0213,-1.0282,-1.0314,-1.0095,-1.0026,-1.0155,-0.9803,-0.9579,-0.9579,-0.9579,-0.9579,-0.9579,-0.9579,-0.9579,-0.9579,-0.9579,-0.9579,-0.9579,-0.9579,-0.9579,-0.9579,-0.9579,-0.9579,-0.9579,-0.9579,-0.9579,-0.9579,-0.9579,-0.9579,-0.9549,-0.9019,-0.8426,-0.7641,0.0,0.0,0.0,-2.5937,-2.6061,-2.6126,-2.5875,0.0,0.0,0.0,0.0,0.0,0.0,0.0,0.0,0.0,0.0,0.0,0.0,-2.2437,-2.2258,-2.2457,-2.1401,-2.0871,-2.0871,-2.0473,-2.0292,-2.0292,0.0,0.0,0.0,0.0,0.0,0.0,0.0,0.0,0.0,0.0,-2.0292,-2.0292,-2.0292,0.0,-2.0292,-2.0292,-2.0292,-2.0292,-2.0292,-2.0292,-2.0155,-1.915,-1.8496,0.0,0.0,-1.5098,-1.4305,0.0,-1.2739,-1.2397,0.0,0.0,0.0,-1.1663,0.0,0.0,0.0,-0.993,-0.9615,-0.9131,-0.9123,-0.9129,-0.8992,0.0,0.0,0.0,0.0,0.0,0.0,0.0,0.0,0.0,0.0,0.0,-1.0014,-1.0073,-1.0073,-1.0073,-1.0073,-1.0073,-1.0073,-0.9851,-0.9758,-0.9758,-0.9673,-0.9579,-0.9579,-0.9579,-0.9579,-0.9579,-0.9579,-0.9579,-0.9579,-0.9579,-0.9579,-0.9579,-0.9579,-0.9579,-0.9579,-0.9579,-0.9579,-0.9579,-0.9179,-0.8981,-0.8889,-0.817,-0.7287,-0.63,0.0,0.0,0.0,-2.5665,-2.5817,-2.6033,0.0,0.0,0.0,0.0,0.0,0.0,0.0,0.0,0.0,0.0,0.0,0.0,0.0,0.0,-2.1075,-2.1382,-2.069,-2.0292,-2.0292,-2.0292,-2.0292,-2.0292,0.0,0.0,0.0,0.0,0.0,0.0,0.0,0.0,0.0,0.0,0.0,-2.0019,0.0,-2.011,-2.0292,-2.0292,-2.0292,-2.0292,-2.0292,-2.0292,-2.0155,-1.915,-1.8442,-1.777,-1.6419,-1.5194,0.0,0.0,0.0,0.0,0.0,0.0,0.0,0.0,0.0,-1.1242,0.0,0.0,0.0,-0.9574,-0.9371,0.0,0.0,0.0,0.0,0.0,0.0,0.0,0.0,0.0,0.0,0.0,0.0,0.0,0.0,-0.9884,-0.9884,-0.9884,-1.011,-1.0131,-0.9896,-0.9884,-0.9868,-0.9835,-0.9701,-0.9579,-0.9579,-0.9579,-0.9579,-0.9579,-0.9579,-0.9579,-0.9579,-0.9579,-0.9579,-0.9579,-0.9579,-0.9579,-0.9579,-0.943,-0.9377,-0.9327,-0.863,-0.8382,-0.8287,-0.7216,-0.6102,-0.4998,-2.5369,-2.5669,0.0,0.0,-2.5667,-2.6128,0.0,0.0,0.0,0.0,0.0,0.0,0.0,0.0,0.0,0.0,0.0,0.0,-2.1698,0.0,0.0,-2.1401,-2.069,-2.0292,-2.0292,-2.0292,-2.0292,-2.0292,-2.0292,0.0,0.0,0.0,0.0,0.0,-1.9646,0.0,0.0,0.0,-1.8966,0.0,-1.8966,-1.9509,0.0,-2.0292,-2.0292,-2.0292,-2.0292,-2.0292,-2.0155,0.0,-1.835,-1.7451,0.0,-1.4621,-1.3806,-1.3113,0.0,0.0,0.0,0.0,0.0,0.0,-1.2308,0.0,0.0,0.0,-1.0766,-1.0265,0.0,0.0,0.0,0.0,0.0,0.0,0.0,0.0,0.0,0.0,0.0,0.0,0.0,0.0,0.0,-0.9884,-0.9884,-0.9884,-1.011,-1.0131,-0.9896,-0.9884,-0.9815,-0.9661,-0.9591,-0.9579,-0.9579,-0.9579,-0.9579,-0.9579,-0.9579,-0.9579,-0.9579,-0.9579,-0.9579,-0.9579,-0.9579,-0.9579,-0.9529,-0.8832,-0.8531,-0.8531,-0.8432,-0.8382,-0.8197,-0.6297,-0.5154,-0.436,-2.5158,-2.5157,0.0,0.0,-2.5189,0.0,0.0,0.0,0.0,0.0,0.0,0.0,0.0,0.0,0.0,0.0,0.0,-2.101,0.0,0.0,0.0,-2.0772,-2.0473,-2.0292,-2.0292,-2.0292,-2.0292,-2.0292,-2.0011,0.0,0.0,0.0,0.0,0.0,-1.9004,0.0,-1.8411,0.0,-1.8781,0.0,0.0,0.0,0.0,-1.9783,-1.9874,-1.9874,-1.9554,-1.9142,-1.8665,0.0,-1.6983,0.0,0.0,0.0,0.0,0.0,0.0,0.0,0.0,0.0,0.0,0.0,0.0,0.0,-1.2051,0.0,-1.149,0.0,0.0,0.0,0.0,0.0,0.0,0.0,-0.9035,0.0,0.0,0.0,0.0,0.0,0.0,0.0,0.0,0.0,0.0,0.0,-0.9998,-1.018,-1.0102,-0.9941,-0.99,-0.9937,-0.9738,-0.9579,-0.9579,-0.9579,-0.9579,-0.9579,-0.9579,-0.9579,-0.9579,-0.9579,-0.9579,-0.9579,-0.9579,-0.9579,-0.9529,-0.873,-0.8382,-0.8283,-0.7388,-0.6989,-0.6795,-0.5179,-0.4236,-0.3652,-2.4946,0.0,0.0,0.0,0.0,0.0,0.0,0.0,0.0,0.0,0.0,0.0,-2.523,-2.4539,0.0,0.0,-2.1981,-2.1229,0.0,0.0,-2.0322,0.0,0.0,0.0,-2.0292,-2.0292,-2.0292,-2.0292,-1.9828,0.0,0.0,0.0,0.0,0.0,0.0,-1.8357,-1.7893,0.0,-1.8404,-1.8404,-1.8404,-1.8504,-1.8635,-1.9188,-1.9371,-1.9325,-1.892,-1.835,-1.7638,-1.7077,-1.5981,0.0,-1.4094,0.0,0.0,0.0,0.0,0.0,-1.2813,0.0,0.0,0.0,0.0,0.0,0.0,0.0,0.0,0.0,0.0,0.0,0.0,0.0,0.0,0.0,0.0,0.0,0.0,0.0,0.0,0.0,0.0,0.0,0.0,0.0,0.0,0.0,0.0,-1.0172,-1.0022,-0.9933,-0.9925,-1.0014,-0.9762,-0.9579,-0.9579,-0.9579,-0.9579,-0.9579,-0.9579,-0.9579,-0.9579,-0.9579,-0.9579,-0.9579,-0.9579,-0.948,-0.9229,-0.8382,-0.7935,-0.7584,-0.6187,-0.5689,-0.5539,-0.4234,-0.3571,-0.3219,-2.4497,-2.4859,0.0,0.0,0.0,0.0,0.0,0.0,0.0,0.0,0.0,0.0,0.0,0.0,0.0,0.0,0.0,-2.2438,-2.2331,0.0,-2.1338,0.0,0.0,-2.0292,0.0,-2.0292,-2.0292,-2.0292,-1.9828,0.0,0.0,0.0,0.0,0.0,0.0,-1.7846,-1.7326,-1.7326,-1.7326,-1.7326,-1.7326,-1.766,-1.8179,0.0,-1.8827,-1.8827,-1.8827,0.0,0.0,-1.7077,-1.5886,0.0,0.0,0.0,0.0,0.0,0.0,0.0,0.0,0.0,0.0,-1.2813,0.0,0.0,0.0,0.0,-1.2404,0.0,0.0,0.0,0.0,0.0,0.0,0.0,0.0,0.0,0.0,0.0,0.0,0.0,0.0,0.0,0.0,0.0,0.0,0.0,0.0,0.0,-0.9623,-0.9799,-0.9811,-0.9648,-0.9583,-0.9579,-0.9579,-0.9579,-0.9579,-0.9579,-0.9579,-0.9579,-0.9579,-0.9579,-0.9579,-0.9579,-0.9579,-0.9179,-0.8382,-0.7587,-0.6789,-0.5992,-0.5186,-0.4834,-0.4684,-0.3632,-0.3266,-0.3167,0.0,0.0,0.0,0.0,0.0,0.0,0.0,-2.6646,0.0,0.0,-2.675,0.0,0.0,-2.5916,-2.5364,0.0,0.0,-2.2447,-2.2071,-2.1184,0.0,0.0,0.0,-2.0292,0.0,0.0,0.0,0.0,0.0,0.0,0.0,0.0,0.0,0.0,0.0,-1.7473,0.0,0.0,0.0,0.0,0.0,-1.7743,-1.7871,0.0,0.0,-1.8272,-1.7939,-1.7037,0.0,-1.5758,-1.4663,-1.3377,-1.3238,-1.3001,-1.2813,-1.2813,-1.2813,0.0,0.0,0.0,-1.2813,-1.2813,0.0,0.0,0.0,0.0,0.0,0.0,0.0,0.0,0.0,0.0,0.0,0.0,0.0,0.0,0.0,0.0,0.0,0.0,0.0,0.0,0.0,0.0,0.0,0.0,0.0,0.0,0.0,-0.9746,-0.9742,-0.9799,-0.9689,-0.9579,-0.9579,-0.9579,-0.9579,-0.9579,-0.9579,-0.9579,-0.9579,-0.9579,-0.9327,-0.8829,-0.8829,-0.8333,-0.7534,-0.6739,-0.6242,-0.5942,-0.5135,-0.4784,-0.4684,-0.3581,-0.3266,-0.3173,-2.5461,0.0,0.0,0.0,0.0,0.0,0.0,0.0,0.0,0.0,-2.7589,0.0,-2.751,0.0,-2.6536,0.0,-2.4408,-2.3205,-2.2748,-2.1446,0.0,-2.069,-2.0419,0.0,0.0,0.0,0.0,0.0,0.0,-1.855,0.0,0.0,0.0,0.0,0.0,-1.7279,-1.7301,-1.7677,-1.7816,0.0,0.0,-1.7816,0.0,0.0,-1.752,-1.7753,0.0,-1.652,-1.5432,-1.5194,-1.4244,-1.3141,-1.2856,-1.2813,-1.2813,-1.2813,-1.2813,-1.2813,-1.2813,-1.2813,0.0,-1.2813,-1.2813,0.0,-1.2813,0.0,0.0,0.0,0.0,0.0,0.0,0.0,0.0,0.0,0.0,0.0,0.0,-0.9555,0.0,0.0,0.0,0.0,0.0,0.0,0.0,0.0,0.0,0.0,0.0,0.0,-0.9681,-0.9791,-0.9685,-0.9579,-0.9579,-0.9579,-0.9579,-0.9579,-0.9579,-0.9579,-0.9579,-0.9327,-0.8882,-0.8382,-0.8084,-0.7537,-0.6739,-0.6189,-0.5839,-0.5539,-0.4985,-0.4784,-0.4684,-0.3581,-0.3024,-0.2627,-2.5906,0.0,0.0,0.0,-2.5637,0.0,0.0,0.0,-2.7769,0.0,-2.8069,-2.8442,-2.7976,-2.7875,-2.7651,-2.7197,-2.5671,-2.4512,-2.4088,-2.2365,0.0,0.0,-2.069,-2.0056,-1.96,0.0,0.0,0.0,0.0,0.0,0.0,0.0,0.0,0.0,-1.7279,0.0,-1.7308,-1.7691,-1.786,-1.7882,-1.7852,-1.7838,-1.7801,-1.741,-1.7279,-1.7232,-1.7232,-1.6763,-1.6001,-1.5289,-1.4526,-1.3715,-1.3001,-1.2813,-1.2813,-1.2813,-1.2813,-1.2813,-1.2813,-1.2813,-1.2813,-1.2813,0.0,0.0,0.0,0.0,-1.2813,0.0,0.0,0.0,0.0,0.0,0.0,0.0,0.0,0.0,0.0,0.0,0.0,0.0,0.0,0.0,0.0,0.0,0.0,0.0,0.0,0.0,0.0,0.0,-0.9579,-0.9579,-0.9579,-0.9579,-0.9579,-0.9579,-0.9579,-0.9579,-0.9579,-0.9579,-0.9525,-0.873,-0.8333,-0.8233,-0.7484,-0.6689,-0.5942,-0.5942,-0.5489,-0.4784,-0.4784,-0.4784,-0.4583,-0.3581,-0.2582,-0.1708,-2.6438,-2.6438,-2.6397,0.0,-2.6366,-2.6594,0.0,0.0,0.0,0.0,-2.8255,-2.8442,-2.7976,-2.7386,-2.6665,-2.5616,-2.4372,0.0,0.0,0.0,0.0,-2.0618,-2.0374,-2.0056,-1.96,-1.9903,0.0,-1.865,0.0,0.0,-1.7875,0.0,0.0,0.0,0.0,0.0,-1.7315,-1.7933,-1.846,-1.8855,-1.8372,-1.8174,0.0,0.0,-1.6951,-1.6473,-1.6473,-1.5615,-1.4478,-1.4286,-1.3715,-1.305,-1.2861,-1.2813,-1.2813,-1.2813,-1.2813,-1.2813,-1.2813,-1.2813,-1.2813,-1.2813,-1.2813,-1.2813,0.0,0.0,0.0,0.0,0.0,0.0,0.0,0.0,0.0,0.0,0.0,0.0,0.0,0.0,0.0,-0.9579,0.0,0.0,0.0,0.0,0.0,0.0,0.0,0.0,0.0,0.0,0.0,-0.9579,-0.9579,-0.9579,-0.9579,-0.9579,-0.9579,-0.9579,-0.9579,-0.9278,-0.868,-0.8482,-0.7736,-0.6589,-0.6389,-0.5839,-0.5085,-0.5085,-0.4985,-0.4784,-0.4784,-0.4334,-0.3581,-0.3281,-0.2582,-0.1705,-2.6915,-2.6915,0.0,-2.6915,0.0,0.0,-2.751,-2.7759,0.0,-2.8204,-2.8628,0.0,-2.8556,-2.7814,-2.7059,-2.6342,-2.4505,0.0,-2.2447,0.0,0.0,-2.0226,-1.9987,-1.9581,-1.8958,-1.9281,0.0,-1.8255,0.0,0.0,-1.7808,0.0,0.0,0.0,0.0,-1.7252,-1.7165,-1.7816,-1.8467,-1.9023,-1.8511,0.0,0.0,-1.7574,-1.6615,-1.5717,-1.5717,-1.5146,-1.4382,-1.3998,-1.3619,-1.3238,-1.2905,-1.2813,-1.2813,-1.2813,-1.2813,-1.2813,-1.2813,-1.2813,-1.2813,-1.2813,-1.2813,-1.2813,-1.2813,-1.2813,-1.2813,0.0,0.0,0.0,0.0,0.0,0.0,0.0,0.0,0.0,0.0,0.0,0.0,0.0,-0.9579,0.0,0.0,0.0,0.0,0.0,0.0,0.0,0.0,0.0,0.0,-0.9579,-0.9701,-0.9705,-0.9579,-0.9701,-0.9701,-0.9579,-0.9229,-0.8832,-0.8382,-0.7686,-0.6839,-0.5992,-0.5639,-0.5238,-0.4784,-0.4784,-0.4784,-0.4784,-0.4784,-0.4282,-0.3534,-0.3308,-0.2599,-0.1706,-2.7309,-2.7351,0.0,0.0,0.0,0.0,0.0,-2.802,0.0,-2.8649,0.0,-2.9312,-2.9034,-2.8191,-2.7552,-2.7328,0.0,-2.3302,-2.3249,-2.1548,-2.0409,-2.0095,-1.9605,-1.8973,-1.8155,-1.8613,-1.8495,0.0,0.0,-1.7948,-1.7874,0.0,0.0,0.0,0.0,0.0,0.0,-1.7604,-1.8233,-1.876,-1.843,-1.8299,-1.8233,-1.7574,-1.6426,-1.5242,-1.5146,-1.4962,-1.4669,-1.3998,-1.3763,-1.3619,-1.3001,-1.2813,-1.2813,-1.2813,-1.2813,-1.2813,-1.2813,-1.2813,-1.2813,-1.2813,-1.2813,-1.2813,-1.2813,-1.2813,-1.2813,-1.2813,-1.2813,-1.2813,0.0,0.0,0.0,0.0,0.0,0.0,0.0,0.0,0.0,0.0,0.0,0.0,0.0,0.0,0.0,0.0,0.0,0.0,0.0,0.0,0.0,-0.9434,-0.962,-0.9636,-0.9462,0.0,-0.9535,-0.9462,-0.8641,-0.8184,-0.8035,-0.6639,-0.5942,-0.5792,-0.5085,-0.4784,-0.4784,-0.4784,-0.4784,-0.4784,-0.4784,-0.4483,-0.3942,-0.3498,-0.2673,-0.1815,-2.7309,0.0,0.0,0.0,0.0,-2.8059,-2.8431,-2.8814,-2.9094,-2.9177,-2.9591,-2.9288,-2.7669,-2.6532,-2.521,-2.3687,-2.2195,0.0,0.0,0.0,0.0,-1.9853,-1.974,-1.9341,-1.8514,-1.8822,-1.8746,0.0,-1.7666,-1.7728,-1.8196,0.0,0.0,0.0,0.0,0.0,-1.7289,-1.794,0.0,-1.876,-1.843,-1.8299,-1.8233,-1.7574,-1.6763,-1.5906,-1.5337,-1.4286,-1.3195,-1.305,-1.3001,-1.2953,-1.2861,-1.2813,-1.2813,-1.2813,-1.2813,-1.2813,-1.2813,-1.2813,-1.2813,-1.2813,-1.2813,-1.2813,-1.2813,-1.2813,-1.2813,-1.2813,-1.2813,-1.2813,-1.2813,0.0,0.0,0.0,0.0,0.0,0.0,0.0,0.0,0.0,0.0,-0.9579,0.0,0.0,0.0,0.0,0.0,0.0,0.0,0.0,0.0,0.0,-0.8656,0.0,0.0,0.0,-0.8069,-0.887,-0.7889,-0.7089,-0.6389,-0.6142,-0.5639,-0.4985,-0.4885,-0.4784,-0.4784,-0.4784,-0.4784,-0.4784,-0.4784,-0.4483,-0.3942,-0.3498,-0.2883,-0.2296,-2.7955,0.0,0.0,0.0,0.0,0.0,0.0,-2.9043,-2.9156,-2.9086,-2.9301,-2.9032,-2.7939,-2.661,-2.5423,-2.4491,-2.2592,-2.1385,-2.1211,-2.0546,-2.0043,-1.9709,-1.9453,-1.892,-1.8215,-1.8308,-1.8293,-1.805,-1.7399,-1.7326,-1.7779,0.0,0.0,0.0,0.0,-1.6872,0.0,0.0,0.0,-1.876,-1.843,-1.8299,-1.8233,-1.7574,-1.6857,-1.6143,-1.5812,-1.4669,-1.3335,-1.2953,-1.2813,-1.2813,-1.2813,-1.2813,-1.2813,-1.2813,-1.2813,-1.2813,-1.2813,-1.2813,-1.2813,-1.2813,-1.2813,-1.2813,-1.2813,-1.2813,-1.2813,-1.2813,-1.2813,-1.2813,-1.2813,-1.2565,0.0,0.0,0.0,0.0,0.0,0.0,0.0,0.0,0.0,0.0,0.0,0.0,0.0,0.0,0.0,0.0,0.0,0.0,0.0,0.0,0.0,0.0,0.0,0.0,0.0,-0.7935,-0.7015,-0.6392,-0.5992,-0.5589,-0.5186,-0.4784,-0.4784,-0.4784,-0.4784,-0.4784,-0.4784,-0.4784,-0.4784,-0.4483,-0.3945,-0.3484,-0.2959,-0.2457,0.0,-2.8433,0.0,0.0,-2.8574,-2.8543,-2.9031,-2.9079,-2.9064,-2.8939,-2.8733,-2.8359,-2.7868,-2.635,-2.5292,-2.4963,-2.2898,-2.1603,-2.1532,-2.0527,-1.981,-1.9545,-1.9072,-1.8518,-1.7933,-1.7918,-1.7882,0.0,-1.7218,-1.7018,0.0,0.0,0.0,0.0,0.0,0.0,0.0,0.0,-1.8321,-1.876,-1.843,-1.8299,-1.8233,-1.7574,-1.6857,-1.619,-1.6001,-1.5092,-1.3811,-1.305,-1.2813,-1.2813,-1.2813,-1.2813,-1.2813,-1.2813,-1.2813,-1.2813,-1.2813,-1.2813,-1.2813,-1.2813,-1.2813,-1.2813,-1.2813,-1.2813,-1.2813,-1.2813,-1.2813,-1.2813,-1.2813,-1.2619,0.0,0.0,0.0,0.0,0.0,0.0,0.0,0.0,0.0,0.0,-0.9579,0.0,0.0,0.0,0.0,-0.977,-0.9583,-0.9589,-0.9163,0.0,0.0,-0.7801,-0.7021,0.0,-0.6946,-0.6977,-0.6152,-0.5739,-0.5739,-0.5087,-0.4784,-0.4784,-0.4784,-0.4784,-0.4784,-0.4784,-0.4784,-0.4784,-0.4784,-0.4533,-0.4098,-0.3503,-0.3024,-0.2564,0.0,0.0,0.0,0.0,0.0,-2.9041,-2.9069,-2.9079,-2.9122,-2.9081,-2.8193,-2.6995,-2.5682,-2.4145,-2.2663,-2.1309,-2.0711,-2.0276,-2.0042,-1.9627,-1.9361,-1.9332,-1.9001,-1.8621,-1.8262,-1.8255,-1.8108,0.0,-1.7218,-1.7018,0.0,0.0,0.0,0.0,0.0,0.0,0.0,-1.8306,-1.873,-1.876,-1.843,-1.8299,-1.8233,-1.7574,-1.6857,-1.6096,-1.5432,-1.4621,-1.3811,-1.305,-1.2813,-1.2813,-1.2813,-1.2813,-1.2813,-1.2813,-1.2813,-1.2813,-1.2813,-1.2813,-1.2813,-1.2813,-1.2813,-1.2813,-1.2813,-1.2813,-1.2813,-1.2813,-1.2813,-1.2813,-1.2813,-1.2029,-1.134,0.0,0.0,0.0,0.0,0.0,0.0,0.0,0.0,0.0,0.0,-0.9579,0.0,0.0,-0.9195,-0.9644,-0.9579,-0.9039,-0.835,-0.7511,0.0,-0.6453,-0.6498,-0.5537,-0.5489,-0.639,-0.5379,-0.4935,-0.4935,-0.4834,-0.4784,-0.4784,-0.4784,-0.4784,-0.4784,-0.4784,-0.4784,-0.4784,-0.4784,-0.4784,-0.4595,-0.3659,-0.3254,-0.3095,0.0,0.0,0.0,0.0,0.0,0.0,0.0,-2.8947,-2.8611,-2.8611,-2.8335,-2.7618,-2.6127,-2.4772,-2.3466,-2.216,-2.1096,-2.0391,-2.0069,-1.9564,-1.9279,-1.9279,-1.8964,-1.8635,-1.8313,-1.8299,-1.805,0.0,0.0,0.0,0.0,0.0,0.0,0.0,0.0,-1.756,-1.7669,-1.846,-1.8906,-1.9038,-1.8511,-1.8299,-1.8233,-1.7574,-1.7138,-1.6763,-1.6001,-1.5289,-1.4478,-1.3715,-1.3195,-1.2813,-1.2813,-1.2813,-1.2813,-1.2813,-1.2813,-1.2813,-1.2813,-1.2813,-1.2813,-1.2813,-1.2813,-1.2813,-1.2813,-1.2813,-1.2813,-1.2813,-1.2813,-1.271,-1.237,-1.198,-1.1487,0.0,0.0,0.0,0.0,0.0,0.0,0.0,0.0,0.0,0.0,0.0,0.0,0.0,0.0,-0.8882,-0.8882,-0.8192,-0.7655,-0.7425,0.0,-0.5904,-0.5543,-0.505,-0.5004,-0.5394,-0.5002,-0.4784,-0.4784,-0.4784,-0.4784,-0.4784,-0.4784,-0.4784,-0.4784,-0.4784,-0.4784,-0.479,-0.4896,-0.4712,-0.4365,-0.3609,-0.3143,-0.2762,-3.045,0.0,-3.0093,0.0,-2.9796,-2.9282,-2.9714,-2.9141,-2.8623,-2.8496,-2.8369,-2.7825,-2.6654,-2.5131,-2.3855,-2.3087,-2.1564,-2.0545,-2.0128,-1.9491,-1.9133,-1.9133,-1.8818,0.0,-1.8445,-1.835,-1.8028,-1.7472,-1.715,0.0,0.0,0.0,0.0,0.0,-1.7472,-1.7882,-1.8138,-1.8694,-1.9008,-1.9081,-1.8525,-1.8247,-1.8101,-1.7538,-1.7185,-1.6904,-1.6143,-1.5384,-1.4621,-1.3859,-1.3238,-1.2813,-1.2813,-1.2813,-1.2813,-1.2813,-1.2813,-1.2813,-1.2813,-1.2813,-1.2813,-1.2813,-1.2813,-1.2813,-1.2813,-1.2813,-1.2764,-1.2613,-1.2565,-1.2419,-1.1878,-1.1634,-1.1292,-1.0511,0.0,0.0,0.0,0.0,0.0,0.0,-0.9579,-0.9579,-0.9579,-0.9579,0.0,0.0,0.0,0.0,-0.8382,-0.7472,0.0,0.0,0.0,0.0,0.0,-0.4881,-0.4784,-0.4784,-0.4784,-0.4784,-0.4784,-0.4784,-0.4784,-0.4784,-0.4784,-0.4784,-0.4784,-0.4784,-0.4784,-0.4794,-0.4937,-0.4663,-0.4105,-0.3595,-0.3069,-0.2516,-3.045,-3.0522,-3.0594,-3.0613,-3.0366,-3.0176,-3.0185,-2.9824,-2.9404,-2.8965,-2.7908,-2.7032,-2.6573,-2.442,-2.303,-2.2974,-2.1564,-2.045,-1.9867,-1.9162,-1.8796,0.0,0.0,-1.846,-1.8774,-1.8467,-1.8138,-1.7808,0.0,0.0,-1.691,0.0,-1.7494,-1.783,-1.8482,-1.8774,-1.8796,-1.9133,-1.9089,-1.8767,-1.8438,-1.8108,-1.7786,-1.741,-1.685,-1.6143,-1.5384,-1.4621,-1.3811,-1.305,-1.2813,-1.2813,-1.2813,-1.2813,-1.2813,-1.2813,-1.2813,-1.2813,-1.2813,-1.2813,-1.2813,-1.2813,-1.2813,-1.2813,-1.2813,-1.2813,-1.2667,-1.2127,-1.2029,-1.1834,-1.1292,-1.0806,-1.0413,-1.0413,0.0,0.0,0.0,0.0,0.0,0.0,-0.9579,-0.9579,-0.9579,-0.9579,0.0,0.0,0.0,0.0,0.0,0.0,0.0,-0.62,-0.5433,0.0,-0.5023,-0.4881,-0.4784,-0.4784,-0.4784,-0.4784,-0.4784,-0.4784,-0.4784,-0.4784,-0.4784,-0.4784,-0.4784,-0.4784,-0.4784,-0.4794,-0.4937,-0.461,-0.4052,-0.3595,-0.3069,-0.2516,-3.0801,-3.0749,-3.079,-3.079,-3.0468,-3.0195,-3.0195,-2.9834,-2.9414,-2.8975,-2.8588,-2.7867,-2.6627,-2.442,-2.2652,0.0,-2.1129,-2.0545,0.0,-1.9477,-1.9118,-1.9118,-1.8811,-1.8686,-1.8789,-1.8686,-1.8364,-1.7816,0.0,0.0,0.0,-1.7282,-1.7337,-1.7501,-1.7933,-1.8123,-1.8145,-1.8474,-1.8555,-1.843,-1.8101,-1.7911,-1.7779,-1.741,-1.7138,-1.685,-1.6096,-1.5384,-1.4621,-1.3811,-1.3238,-1.2813,-1.2813,-1.2813,-1.2813,-1.2813,-1.2813,-1.2813,-1.2813,-1.2813,-1.2813,-1.2813,-1.2813,-1.2813,-1.2813,-1.2516,-1.2127,-1.159,-1.1438,-1.1292,-1.0752,-1.0511,-1.0265,-0.992,-0.9727,0.0,0.0,0.0,0.0,0.0,-0.9579,-0.9579,-0.9579,-0.9579,0.0,0.0,0.0,0.0,0.0,0.0,0.0,0.0,-0.5315,0.0,-0.5023,-0.4881,-0.4784,-0.4784,-0.4784,-0.4784,-0.4784,-0.4784,-0.4784,-0.4784,-0.4784,-0.4583,-0.4234,-0.4234,-0.4062,-0.3805,-0.3876,-0.3828,-0.3603,-0.3084,-0.2796,-0.2611,-3.0956,-3.0889,-3.0889,-3.0889,-3.0644,-3.0459,-3.0459,-3.0234,-2.9902,-2.9463,-2.8461,-2.7364,-2.6186,-2.3842,0.0,-2.1873,-2.1185,-2.0589,-2.0205,-1.963,-1.9279,-1.9279,-1.8964,-1.8847,-1.8972,-1.8847,0.0,-1.8182,-1.8057,-1.783,-1.7468,-1.764,-1.7625,-1.7476,-1.7852,-1.7999,-1.8013,-1.8218,-1.8233,-1.8101,-1.7896,-1.7743,-1.7611,-1.7359,-1.7138,-1.681,-1.6048,-1.5289,-1.4526,-1.3763,-1.319,-1.2813,-1.2813,-1.2662,-1.2521,-1.2521,-1.2521,-1.2467,-1.2273,-1.2224,-1.2224,-1.2224,-1.2224,-1.2224,-1.2224,-1.1932,-1.1536,-1.0998,-1.0904,-1.0757,-1.0216,-1.0117,-0.9969,-0.9677,-0.9579,-0.9579,-0.9579,0.0,0.0,0.0,0.0,0.0,0.0,-0.9579,-0.9325,0.0,0.0,0.0,0.0,0.0,0.0,-0.5681,-0.5115,0.0,-0.492,-0.4863,-0.4784,-0.4784,-0.4869,-0.4869,-0.4786,-0.4871,-0.4867,-0.4784,-0.4784,-0.4483,-0.3982,-0.3982,-0.3705,-0.3292,-0.3373,-0.3269,-0.3087,-0.2728,-0.2488,-0.2293,-3.0937,-3.0889,-3.0889,0.0,-3.0889,0.0,-3.0889,-3.0889,-3.0723,-3.0264,-2.7822,-2.5993,-2.5482,-2.2993,-2.1789,-2.2813,0.0,0.0,0.0,-1.9689,-1.933,-1.9368,-1.9023,-1.8986,-1.9264,-1.8979,-1.8811,-1.8789,-1.846,-1.8145,-1.7852,-1.816,-1.8138,-1.786,-1.8145,-1.8269,-1.8262,-1.8247,-1.8057,-1.7786,-1.7786,-1.7604,-1.7279,-1.7279,-1.6857,-1.6096,-1.5432,-1.4621,-1.3811,-1.3098,-1.2856,-1.2813,-1.2764,-1.2419,-1.198,-1.198,-1.198,-1.1834,-1.1345,-1.1194,-1.1194,-1.1194,-1.1194,-1.1194,-1.1145,-1.1145,-1.0998,-1.0462,-1.0364,-1.0167,-0.9677,-0.9579,-0.9579,-0.9579,-0.9579,-0.9579,-0.9579,0.0,0.0,0.0,0.0,0.0,0.0,-0.9579,-0.9282,0.0,0.0,0.0,0.0,0.0,-0.4937,-0.4788,-0.4784,-0.4784,-0.4784,-0.479,-0.4796,-0.4804,-0.4941,-0.4932,-0.4796,-0.4881,-0.4871,-0.4784,-0.4734,-0.4386,-0.394,-0.3883,-0.3589,-0.3106,-0.3259,-0.293,-0.2461,-0.2505,-0.2212,-0.1784,0.0,0.0,-3.0889,-3.0889,-3.0889,-3.0889,-3.0889,-3.0889,-3.0723,-3.0264,-2.8762,-2.7164,-2.5574,-2.3951,-2.2605,-2.1675,-2.1072,-2.0691,-2.0611,-2.023,-1.9901,-1.9713,-1.9625,-1.95,-1.9279,-1.9199,-1.9038,-1.8789,-1.846,-1.8262,-1.8189,-1.8262,-1.8262,-1.8182,-1.8006,-1.7933,-1.7911,-1.7662,-1.7468,-1.7443,-1.7443,-1.7352,-1.7279,-1.7279,-1.6857,-1.619,-1.6001,-1.5051,-1.3854,-1.3715,-1.3286,-1.2716,-1.2322,-1.2127,-1.198,-1.198,-1.1731,-1.134,-1.1243,-1.1194,-1.1194,-1.1194,-1.1194,-1.1096,-1.0654,-1.0605,-1.0462,-0.9924,-0.9772,-0.9772,-0.9628,-0.9579,-0.9579,-0.9579,-0.9579,-0.9579,-0.9579,-0.9579,0.0,0.0,-0.9579,-0.9579,-0.9579,-0.9579,-0.9283,0.0,0.0,0.0,0.0,-0.5493,-0.5002,-0.479,-0.4784,-0.4784,-0.4784,-0.4904,-0.4975,-0.5045,-0.5065,-0.5028,-0.4941,-0.4551,-0.4564,-0.4734,-0.3932,-0.3558,-0.3444,-0.2992,-0.2534,-0.2146,-0.2134,-0.204,-0.1961,-0.1994,-0.1885,-0.1816,-3.0898,-3.0889,-3.0889,-3.0889,-3.0889,-3.0889,-3.0889,-3.0889,-3.0801,-3.0547,-2.8744,-2.7055,-2.5998,-2.3987,-2.2362,-2.1503,-2.113,-2.0947,-2.0947,-2.0446,-2.0164,-1.9989,-1.9696,-1.9514,-1.9279,-1.9279,-1.9191,-1.9016,-1.8833,-1.8672,-1.8525,-1.8525,-1.8445,-1.8291,-1.8116,-1.7955,-1.7801,-1.7625,-1.7417,-1.7279,-1.7279,-1.7279,-1.7279,-1.7279,-1.6857,-1.6143,-1.5812,-1.4908,-1.3859,-1.3522,-1.3147,-1.271,-1.2175,-1.1829,-1.1585,-1.134,-1.1047,-1.0801,-1.056,-1.0462,-1.0462,-1.0462,-1.0462,-1.0413,-1.0117,-1.0019,-0.9969,-0.9677,-0.9579,-0.9579,-0.9579,-0.9579,-0.9579,-0.9579,-0.9579,-0.9579,-0.9579,-0.9579,0.0,-0.9579,-0.9579,-0.9579,-0.9579,-0.9579,-0.9317,-0.8557,-0.7749,0.0,-0.6249,-0.5484,-0.5,-0.49,-0.4939,-0.4959,-0.4959,-0.501,-0.5059,-0.5108,-0.5151,-0.5122,-0.5035,-0.4496,-0.4364,-0.4497,-0.3619,-0.3121,-0.2884,-0.2597,-0.2158,-0.1727,-0.171,-0.1722,-0.1807,-0.1823,-0.1773,-0.1825,-3.0889,-3.0889,-3.0889,-3.0889,-3.0889,-3.0889,-3.0889,-3.0889,-3.0889,-3.0889,-2.841,-2.6567,-2.6515,-2.3736,-2.1796,-2.1708,-2.1445,-2.1262,-2.1211,-2.0691,-2.0285,-2.0183,-1.9711,-1.9374,-1.9279,-1.9228,-1.9199,-1.9199,-1.9155,-1.9016,-1.8789,-1.8789,-1.8664,-1.8445,-1.8401,-1.8196,-1.7882,-1.7838,-1.7625,-1.7279,-1.7279,-1.7279,-1.7279,-1.7279,-1.6756,-1.5954,-1.5337,-1.4526,-1.3619,-1.3001,-1.2764,-1.2565,-1.2029,-1.1487,-1.0949,-1.0462,-1.0265,-1.0167,-0.9727,-0.9579,-0.9579,-0.9579,-0.9579,-0.9579,-0.9579,-0.9579,-0.9579,-0.9579,-0.9579,-0.9579,-0.9579,-0.9579,-0.9587,-0.9661,-0.9644,-0.9587,-0.9661,0.0,-0.9579,-0.9579,-0.9579,-0.9579,-0.9579,-0.9579,-0.9339,-0.8663,-0.7766,-0.697,-0.6426,-0.5521,-0.5012,-0.5012,-0.5075,-0.5114,-0.5128,-0.5128,-0.5135,-0.5151,-0.5228,-0.5216,-0.5077,-0.4445,-0.4165,-0.4154,-0.3406,-0.2826,-0.2514,-0.24,-0.2138,-0.1718,-0.1713,-0.1727,-0.1805,-0.1815,-0.1774,-0.1786,-3.0889,-3.0889,-3.0889,-3.0889,-3.0889,-3.0889,-3.0889,-3.0889,-3.0889,-3.0889,-2.8596,-2.6799,-2.6541,-2.4084,-2.2271,-2.1737,-2.165,-2.1503,-2.1225,-2.1115,-2.0808,-2.0205,-2.0088,-1.9835,-1.9286,-1.9001,-1.8869,-1.8869,-1.8591,-1.8569,-1.8789,-1.8789,-1.8913,-1.9111,-1.884,-1.8533,-1.8211,-1.7933,-1.7625,-1.7279,-1.7279,-1.7279,-1.7279,-1.7279,-1.6473,-1.5242,-1.5146,-1.4196,-1.2953,-1.2861,-1.2521,-1.2029,-1.1487,-1.0949,-1.0413,-0.9871,-0.9727,-0.9723,-0.9628,-0.9579,-0.9579,-0.9579,-0.9579,-0.9579,-0.9579,-0.9579,-0.9579,-0.9579,-0.9579,-0.9579,-0.9579,-0.9579,-0.9673,-0.9819,-0.9721,-0.9681,-0.9823,0.0,-0.9579,-0.9579,-0.9579,-0.9579,-0.9579,-0.9579,-0.9639,-0.968,-0.8262,-0.7355,-0.7383,-0.5957,-0.5148,-0.5148,-0.5141,-0.5145,-0.5168,-0.5168,-0.5263,-0.5339,-0.5353,-0.5312,-0.5168,-0.4091,-0.3843,-0.41,-0.2609,-0.2202,-0.2557,-0.2036,-0.1789,-0.1778,-0.1807,-0.18,-0.1811,-0.1807,-0.1797,-0.1818,-3.0889,-3.0889,-3.0889,-3.0889,-3.0889,-3.0645,-2.9903,-2.9835,-2.9599,-2.8888,-2.7134,-2.5915,-2.5751,-2.3871,-2.244,-2.2001,-2.1796,-2.1562,-2.1233,-2.1042,-2.0735,-2.0205,-2.0069,-1.9762,-1.9286,-1.8957,-1.8789,-1.8789,-1.846,-1.8379,-1.8525,-1.8525,-1.8606,-1.8745,-1.8591,-1.8445,-1.8291,-1.8138,-1.7991,-1.7838,-1.7662,-1.7589,-1.7574,-1.7352,-1.6904,-1.6237,-1.5859,-1.4956,-1.3956,-1.3528,-1.2754,-1.1927,-1.1389,-1.085,-1.0314,-0.9776,-0.9579,-0.9579,-0.9579,-0.9579,-0.9579,-0.9579,-0.9579,-0.9579,-0.9579,-0.9579,-0.9579,-0.9579,-0.9579,-0.9579,-0.9579,-0.9579,-0.9652,-0.9734,-0.9681,0.0,0.0,-0.9677,-0.9661,-0.9754,-0.9766,-0.9807,-0.9904,-0.945,-0.9225,-0.9297,-0.7745,-0.6865,-0.6936,-0.5814,-0.5213,-0.5316,-0.5277,-0.5275,-0.5318,-0.5318,-0.5339,-0.5382,-0.5382,-0.519,-0.4816,-0.3932,-0.3476,-0.3343,-0.2246,-0.1926,-0.216,-0.185,-0.1745,-0.1823,-0.1737,-0.179,-0.1808,-0.1781,-0.1784,-0.1778,-3.0889,-3.0889,-3.0889,-3.0889,-3.0889,-3.0518,-2.953,-2.9107,-2.8564,-2.7555,-2.6042,-2.5071,-2.5071,-2.3604,-2.2506,-2.2206,-2.1884,-2.1562,-2.1233,-2.0976,-2.0655,-2.0197,-1.9857,-1.958,-1.9331,-1.8957,-1.8752,-1.8672,-1.835,-1.8189,-1.8189,-1.8189,-1.8233,-1.8306,-1.8379,-1.8328,-1.8196,-1.8269,-1.8255,-1.816,-1.783,-1.7743,-1.7779,-1.741,-1.7185,-1.6951,-1.619,-1.548,-1.4669,-1.3757,-1.2748,-1.1731,-1.1194,-1.0659,-1.0117,-0.9727,-0.9579,-0.9579,-0.9579,-0.9579,-0.9579,-0.9579,-0.9579,-0.9579,-0.9579,-0.9657,-0.9689,-0.9689,-0.9721,-0.975,-0.975,-0.9717,-0.9701,-0.9746,0.0,0.0,0.0,-0.9689,-0.9738,-0.9868,-0.9925,-1.0006,-1.02,-0.9369,-0.8804,-0.8843,-0.7311,-0.6353,-0.6466,-0.5711,-0.5308,-0.538,-0.5382,-0.5382,-0.5382,-0.5382,-0.5382,-0.5382,-0.5268,-0.4931,-0.4479,-0.3755,-0.3141,-0.2693,-0.2076,-0.1791,-0.1783,-0.1822,-0.1811,-0.1802,-0.1732,-0.174,-0.1816,-0.1823,-0.1781,-0.1796,-3.0889,-3.0889,-3.0889,-3.0889,-3.0889,-3.0889,-3.0772,-2.9717,-2.8861,-2.8742,-2.6633,-2.5071,-2.5071,-2.3604,-2.2506,-2.2206,-2.1884,-2.1562,-2.1233,-2.1189,-2.0896,-2.0212,-1.9645,-1.9353,-1.9279,-1.8957,-1.8642,-1.8343,-1.8013,-1.7852,-1.7852,-1.7852,-1.8013,-1.8313,-1.8621,-1.8416,-1.7874,-1.8174,-1.813,-1.7823,-1.7447,-1.7545,-1.7779,-1.741,-1.6904,-1.619,-1.5432,-1.4669,-1.3806,-1.2554,-1.1731,-1.1145,-1.0605,-1.0068,-0.9628,-0.9628,-0.9579,-0.9579,-0.9579,-0.9579,-0.9579,-0.9579,-0.9579,-0.9579,-0.9579,-0.975,-0.9864,-0.9864,-1.0053,-1.0175,-1.0175,-0.9981,-0.9925,-1.0147,0.0,0.0,-0.9843,-0.9864,-0.9868,-0.9884,-1.0034,-1.02,-1.0212,-0.9369,-0.8902,-0.9051,-0.739,-0.6468,-0.6695,-0.5871,-0.5373,-0.5382,-0.5382,-0.5382,-0.5382,-0.5382,-0.5382,-0.5382,-0.4817,-0.4536,-0.4479,-0.3309,-0.275,-0.2693,-0.2076,-0.1779,-0.1809,-0.1781,-0.1775,-0.1807,-0.1778,-0.179,-0.1795,-0.1823,-0.1817,-0.1799,-3.0889,-3.0889,-3.0889,-3.0889,-3.0889,-3.0645,-2.9785,-2.8573,-2.7426,-2.6641,-2.5002,-2.3845,-2.3845,-2.3306,-2.2725,-2.2228,-2.2067,-2.1774,-2.1247,-2.1211,-2.0918,-2.0212,-1.9623,-1.9279,-1.9279,-1.8957,-1.8628,-1.8299,-1.7969,-1.7706,-1.7468,-1.7468,-1.7582,-1.7706,-1.783,-1.786,-1.7823,-1.7947,-1.805,-1.8086,-1.7765,-1.7706,-1.7779,-1.741,-1.7138,-1.681,-1.6048,-1.5092,-1.3986,-1.3028,-1.1824,-1.0654,-1.0458,-1.0019,-0.9579,-0.9579,-0.9579,-0.9579,-0.9579,-0.9579,-0.9579,-0.9579,-0.9579,-0.9657,-0.9762,-0.9839,-0.9916,-1.0082,-1.0163,-1.0212,-1.0212,-1.0155,-1.0131,-1.0204,0.0,-0.9981,-1.0098,-1.011,-1.0099,-1.0213,-1.0286,-1.0371,-1.0481,-0.9183,-0.8336,-0.8391,-0.6816,-0.5846,-0.5882,-0.5603,-0.5382,-0.5382,-0.5382,-0.5382,-0.5382,-0.5382,-0.5382,-0.5382,-0.4761,-0.4313,-0.3923,-0.3085,-0.2469,-0.2132,-0.1907,-0.1789,-0.1777,-0.1825,-0.1815,-0.1805,-0.1817,-0.1822,-0.1825,-0.1801,-0.1805,-0.1797,-3.0889,-3.0889,-3.0889,-3.0889,-3.0889,-3.046,-2.9107,-2.7787,-2.6529,-2.5256,-2.3907,-2.3106,-2.3106,-2.2937,-2.2645,-2.222,-2.2001,-2.1686,-2.124,-2.1115,-2.0808,-2.0205,-1.9813,-1.9484,-1.9279,-1.9162,-1.8884,-1.846,-1.813,-1.7801,-1.7432,-1.733,-1.7279,-1.7286,-1.7388,-1.7545,-1.7669,-1.7772,-1.7947,-1.8116,-1.7794,-1.7721,-1.7779,-1.741,-1.7279,-1.7185,-1.6386,-1.5324,-1.4124,-1.3113,-1.1717,-1.0364,-1.0216,-0.9875,-0.9579,-0.9579,-0.9579,-0.9579,-0.9579,-0.9579,-0.9579,-0.9579,-0.9579,-0.9657,-0.9778,-0.9892,-1.001,-1.0188,-1.0302,-1.0384,-1.0384,-1.0286,-1.0249,-1.0249,-1.0253,-1.0212,-1.0212,-1.031,-1.0355,-1.0375,-1.0534,-1.0627,-1.0684,-0.9302,-0.8306,-0.8029,-0.6694,-0.5764,-0.5424,-0.5396,-0.5382,-0.5382,-0.5382,-0.5382,-0.5382,-0.5382,-0.5382,-0.5382,-0.4594,-0.3977,-0.3587,-0.2805,-0.2188,-0.1795,-0.1795,-0.1789,-0.178,-0.1823,-0.1814,-0.1805,-0.1815,-0.1819,-0.1821,-0.1787,-0.1795,-0.1795,-3.0889,-3.0889,-3.0889,-3.0889,-3.0889,-3.046,-2.9107,-2.7855,-2.6529,-2.5256,-2.3969,-2.3106,-2.3106,-2.2557,-2.2184,-2.2184,-2.1591,-2.1211,-2.1211,-2.0903,-2.0526,-2.0197,-2.0183,-1.9938,-1.9294,-1.9647,-1.9492,-1.8789,-1.8467,-1.8138,-1.7808,-1.7479,-1.7286,-1.7293,-1.7662,-1.7633,-1.7301,-1.7669,-1.7808,-1.7786,-1.741,-1.7523,-1.7772,-1.745,-1.7279,-1.7185,-1.6157,-1.5146,-1.4076,-1.2533,-1.1277,-1.0314,-0.9776,-0.9579,-0.9579,-0.9579,-0.9579,-0.9579,-0.9579,-0.9579,-0.9579,-0.9579,-0.9579,-0.9579,-0.9583,-0.9908,-1.0216,-1.0216,-1.0444,-1.0692,-1.0692,-1.0554,-1.0383,-1.0383,-1.0282,-1.0216,-1.0216,-1.0469,-1.0627,-1.0456,-1.0753,-1.0895,-1.0708,-0.9915,-0.9027,-0.8088,-0.7255,-0.6417,-0.5563,-0.5429,-0.5382,-0.5382,-0.5382,-0.5382,-0.5382,-0.5382,-0.5382,-0.5382,-0.4204,-0.3587,-0.3531,-0.2355,-0.1795,-0.1795,-0.1795,-0.1778,-0.1807,-0.1782,-0.1777,-0.1808,-0.1783,-0.1795,-0.1795,-0.1795,-0.1795,-0.1795,-3.0889,-3.0889,-3.0889,-3.0889,-3.0889,-3.0772,-3.0333,-2.8403,-2.6831,-2.6468,-2.4517,-2.3106,-2.3106,-2.274,-2.2403,-2.2206,-2.1796,-2.1452,-2.1225,-2.1123,-2.0918,-2.0596,-2.0142,-1.9916,-1.9945,-1.9601,-1.9323,-1.9133,-1.8803,-1.8357,-1.7808,-1.7713,-1.7545,-1.7286,-1.7381,-1.7374,-1.7286,-1.7388,-1.7425,-1.7417,-1.7323,-1.7337,-1.7465,-1.7315,-1.7279,-1.7185,-1.6157,-1.4902,-1.3536,-1.2387,-1.1037,-0.9826,-0.9628,-0.9579,-0.9579,-0.9579,-0.9579,-0.9579,-0.9579,-0.9579,-0.9579,-0.9579,-0.9717,-0.9843,-0.9973,-1.0184,-1.0387,-1.0509,-1.0619,-1.0692,-1.0692,-1.0647,-1.0615,-1.0615,-1.057,-1.0534,-1.0534,-1.0623,-1.0672,-1.0623,-1.0708,-1.0753,-1.07,-0.9915,-0.9296,-0.9125,-0.776,-0.6531,-0.5563,-0.5429,-0.5382,-0.5382,-0.4987,-0.4761,-0.4761,-0.5212,-0.5382,-0.5382,-0.4204,-0.3587,-0.3531,-0.2355,-0.1795,-0.1795,-0.1795,-0.179,-0.1782,-0.1791,-0.179,-0.1782,-0.1791,-0.1795,-0.1795,-0.1795,-0.1795,-0.1795,-3.0889,-3.0889,-3.0889,-3.0889,-3.0889,-3.0704,-3.0216,-2.8343,-2.684,-2.6286,-2.4394,-2.3106,-2.3106,-2.271,-2.2381,-2.2198,-2.1767,-2.1423,-2.1218,-2.1211,-2.1123,-2.0925,-2.042,-2.0113,-2.0047,-1.9916,-1.9659,-1.9279,-1.9074,-1.865,-1.8006,-1.7874,-1.764,-1.7279,-1.7279,-1.7279,-1.7279,-1.7279,-1.7279,-1.7279,-1.7279,-1.7279,-1.7279,-1.7279,-1.7239,-1.7106,-1.6346,-1.4902,-1.3253,-1.2533,-1.1082,-0.9579,-0.9579,-0.9579,-0.9579,-0.9579,-0.9579,-0.9579,-0.9579,-0.9579,-0.9595,-0.9713,-0.9807,-0.9933,-1.0171,-1.0302,-1.0411,-1.057,-1.0643,-1.0692,-1.0692,-1.0692,-1.0692,-1.0692,-1.0692,-1.0692,-1.0692,-1.0757,-1.0773,-1.07,-1.0757,-1.0773,-1.07,-1.0245,-0.965,-0.9077,-0.768,-0.649,-0.5563,-0.5429,-0.5382,-0.5382,-0.4817,-0.448,-0.448,-0.4651,-0.4707,-0.4651,-0.3701,-0.3253,-0.3197,-0.2243,-0.1795,-0.1795,-0.1795,-0.1795,-0.1795,-0.1795,-0.1795,-0.1795,-0.1795,-0.1795,-0.1795,-0.1795,-0.1795,-0.1795,-3.0889,-3.0889,-3.0889,-3.0889,-3.0889,-3.046,-2.9294,-2.7907,-2.6589,-2.5431,-2.4031,-2.3106,-2.3106,-2.2579,-2.2213,-2.2184,-2.1591,-2.1211,-2.1211,-2.1211,-2.1211,-2.1211,-2.0896,-2.0435,-1.9874,-2.0347,-2.0201,-1.9323,-1.9294,-1.8957,-1.8343,-1.8013,-1.7684,-1.7323,-1.7293,-1.7279,-1.7279,-1.7279,-1.7279,-1.7279,-1.7279,-1.7279,-1.7279,-1.7232,-1.7106,-1.6979,-1.6636,-1.5045,-1.3022,-1.2587,-1.1179,-0.9579,-0.9579,-0.9579,-0.9579,-0.9579,-0.9579,-0.9583,-0.9599,-0.9652,-0.9697,-0.9888,-0.9933,-0.9977,-1.02,-1.0327,-1.0407,-1.0407,-1.0582,-1.0692,-1.0692,-1.0692,-1.0692,-1.0692,-1.0692,-1.0692,-1.0692,-1.0838,-1.0939,-1.0712,-1.0842,-1.0879,-1.0708,-1.0708,-0.9994,-0.8323,-0.7337,-0.6429,-0.5549,-0.5424,-0.5382,-0.5382,-0.4761,-0.4424,-0.4424,-0.3755,-0.3475,-0.3587,-0.2974,-0.2693,-0.2693,-0.2076,-0.1795,-0.1795,-0.1795,-0.1795,-0.1795,-0.1795,-0.1795,-0.1795,-0.1795,-0.1795,-0.1795,-0.1795,-0.1795,-0.1795,-3.0889,-3.0889,-3.0889,-3.0889,-3.0889,-3.082,-3.0518,-2.8462,-2.6892,-2.6624,-2.4564,-2.3106,-2.3106,-2.2762,-2.2432,-2.2206,-2.1591,-2.1211,-2.1211,-2.1211,-2.1211,-2.1211,-2.0896,-2.0537,-2.0142,-2.0025,-1.9918,-1.9713,-1.9456,-1.9074,-1.8672,-1.835,-1.8021,-1.7699,-1.7443,-1.7279,-1.7279,-1.7279,-1.7279,-1.7279,-1.7279,-1.7279,-1.7232,-1.6662,-1.6676,-1.6885,-1.5961,-1.4567,-1.2829,-1.089,-0.9965,-0.9579,-0.9579,-0.9579,-0.9579,-0.9579,-0.9579,-0.9657,-0.9791,-0.9827,-0.9908,-1.0233,-1.0314,-1.0274,-1.0367,-1.0509,-1.0635,-1.0635,-1.0668,-1.0692,-1.0692,-1.0692,-1.0692,-1.0692,-1.0692,-1.0692,-1.0692,-1.0724,-1.0737,-1.0696,-1.0729,-1.0737,-1.0696,-1.0826,-1.0129,-0.8193,-0.798,-0.7207,-0.5522,-0.5392,-0.5382,-0.5382,-0.437,-0.3811,-0.3811,-0.2746,-0.2691,-0.3587,-0.2974,-0.2693,-0.2693,-0.2076,-0.1795,-0.1795,-0.1795,-0.1795,-0.1795,-0.1795,-0.1795,-0.1795,-0.1795,-0.1795,-0.1795,-0.1795,-0.1795,-0.1798,-3.0889,-3.0889,-3.0889,-3.0889,-3.0889,-3.0704,-3.003,-2.8283,-2.6771,-2.6147,-2.4324,-2.3106,-2.3106,-2.282,-2.244,-2.1993,-2.1496,-2.1211,-2.1211,-2.1211,-2.1211,-2.1211,-2.105,-2.0801,-2.0479,-2.015,-1.9842,-1.958,-1.9566,-1.9309,-1.8789,-1.8613,-1.8277,-1.7808,-1.764,-1.7425,-1.7279,-1.7279,-1.7279,-1.7279,-1.7279,-1.7279,-1.7232,-1.677,-1.6346,-1.5961,-1.5289,-1.3836,-1.1955,-1.0212,-0.9579,-0.9579,-0.9579,-0.9579,-0.9595,-0.9726,-0.975,-0.9791,-0.9969,-1.0018,-1.0083,-1.0367,-1.0383,-1.0456,-1.0538,-1.0627,-1.0692,-1.0692,-1.0692,-1.0692,-1.0692,-1.0692,-1.0692,-1.0692,-1.0692,-1.0692,-1.0692,-1.0692,-1.0692,-1.0692,-1.0692,-1.0724,-1.0814,-1.0492,-0.9653,-0.8242,-0.7747,-0.6886,-0.5495,-0.5418,-0.5424,-0.5382,-0.461,-0.4116,-0.4082,-0.2915,-0.263,-0.3232,-0.259,-0.2254,-0.227,-0.197,-0.1795,-0.1795,-0.1795,-0.1795,-0.1795,-0.1795,-0.1795,-0.1795,-0.1795,-0.1795,-0.1795,-0.1795,-0.1795,-0.1799,-3.0889,-3.0889,-3.083,-3.0587,-3.0577,-3.0089,-2.8811,-2.7486,-2.6286,-2.5256,-2.3907,-2.3106,-2.3106,-2.282,-2.2418,-2.1898,-2.1511,-2.1298,-2.1298,-2.124,-2.1211,-2.1211,-2.1159,-2.0976,-2.0647,-2.0325,-1.9894,-1.9412,-1.9632,-1.9456,-1.8869,-1.8811,-1.8503,-1.7977,-1.7867,-1.7662,-1.7359,-1.7308,-1.7279,-1.7279,-1.7279,-1.7279,-1.7286,-1.6925,-1.6062,-1.4943,-1.4615,-1.306,-1.1028,-0.9965,-0.9579,-0.9583,-0.9661,-0.9673,-0.9705,-0.988,-0.9933,-0.9973,-1.016,-1.0209,-1.0253,-1.0432,-1.0427,-1.0517,-1.066,-1.0692,-1.0692,-1.0692,-1.0692,-1.0692,-1.0692,-1.0692,-1.0692,-1.0692,-1.0692,-1.0704,-1.0737,-1.0712,-1.0704,-1.0737,-1.0712,-1.0753,-1.0907,-1.0164,-0.9248,-0.8307,-0.7452,-0.651,-0.5437,-0.5475,-0.5492,-0.5406,-0.5042,-0.4734,-0.4613,-0.3508,-0.2868,-0.2837,-0.2109,-0.1821,-0.1782,-0.1809,-0.1797,-0.1802,-0.1797,-0.1795,-0.1795,-0.1795,-0.1795,-0.1795,-0.1795,-0.1795,-0.1795,-0.1795,-0.1798,-0.1807,-3.0889,-3.0889,-3.0518,-2.9353,-2.9166,-2.8751,-2.7435,-2.6164,-2.5317,-2.5133,-2.3907,-2.3106,-2.3106,-2.282,-2.2593,-2.2506,-2.1964,-2.1635,-2.1635,-2.1364,-2.1211,-2.1211,-2.094,-2.064,-2.0256,-1.9989,-1.9784,-1.9749,-1.9514,-1.9294,-1.9258,-1.8921,-1.8738,-1.8628,-1.8064,-1.7786,-1.7728,-1.7403,-1.7279,-1.7279,-1.7279,-1.7279,-1.7185,-1.6298,-1.5581,-1.4902,-1.3992,-1.2587,-1.1028,-0.9965,-0.9579,-0.9652,-0.9803,-0.9851,-0.9888,-1.0122,-1.0175,-1.0216,-1.0347,-1.0342,-1.044,-1.0611,-1.066,-1.0664,-1.0688,-1.0692,-1.0692,-1.0692,-1.0692,-1.0692,-1.0692,-1.0692,-1.0692,-1.0692,-1.0692,-1.0749,-1.0911,-1.0794,-1.0753,-1.0967,-1.0789,-1.0704,-1.0724,-1.0598,-0.9812,-0.8168,-0.8039,-0.726,-0.5497,-0.5537,-0.5584,-0.5492,-0.5069,-0.4819,-0.4752,-0.3527,-0.2901,-0.2874,-0.2182,-0.1862,-0.1782,-0.1809,-0.1809,-0.1776,-0.1806,-0.1795,-0.1795,-0.1795,-0.1795,-0.1795,-0.1795,-0.1795,-0.1795,-0.1795,-0.1812,-0.1781,-3.0889,-3.0889,-3.046,-2.9107,-2.892,-2.8197,-2.6225,-2.5439,-2.4826,-2.4092,-2.3479,-2.3106,-2.3106,-2.282,-2.2623,-2.2623,-2.222,-2.1891,-2.1708,-2.1562,-2.1401,-2.1218,-2.1072,-2.0925,-2.0786,-2.0289,-2.0025,-2.0025,-1.952,-1.9279,-1.9324,-1.9133,-1.8964,-1.8767,-1.8299,-1.7984,-1.7794,-1.7417,-1.7279,-1.7279,-1.7279,-1.7239,-1.7066,-1.6494,-1.5289,-1.3715,-1.2092,-1.0982,-1.0274,-0.9883,-0.977,-0.9782,-0.986,-0.9957,-1.0075,-1.0262,-1.0383,-1.0477,-1.0558,-1.0655,-1.0724,-1.07,-1.0692,-1.072,-1.0826,-1.0846,-1.0846,-1.0846,-1.0846,-1.0846,-1.0846,-1.0846,-1.0846,-1.0846,-1.0928,-1.1017,-1.1098,-1.0956,-1.0838,-1.0818,-1.0834,-1.0883,-1.0976,-1.0529,-0.9713,-0.8478,-0.7896,-0.7004,-0.5588,-0.5651,-0.5678,-0.5586,-0.5485,-0.5412,-0.5366,-0.4089,-0.3439,-0.3433,-0.2396,-0.1904,-0.183,-0.1842,-0.1827,-0.1781,-0.1808,-0.1795,-0.1795,-0.1795,-0.1795,-0.1795,-0.1795,-0.1806,-0.1821,-0.1821,-0.184,-0.1868]},{"header":{"parameterUnit":"m.s-1","parameterCategory":1,"la1":30.6,"la2":28.766,"lo1":-90.7593,"lo2":-88.6598,"dy":0.0162,"dx":0.0183,"nx":116,"ny":114,"refTime":"2023-04-16T06:00:00:Z","depth":0,"parameterNumber":3,"parameterNumberName":"V-component_of_WINDS"},"data":[0.0,0.0,0.0,0.0,0.0,0.0,0.0,0.0,0.0,0.0,0.0,0.0,0.0,0.0,0.0,0.0,0.0,0.0,0.0,0.0,0.0,0.0,0.0,0.0,0.0,0.0,0.0,0.0,0.0,0.0,0.0,0.0,0.0,0.0,0.0,0.0,0.0,0.0,0.0,0.0,0.0,0.0,0.0,0.0,0.0,0.0,0.0,0.0,0.0,0.0,0.0,0.0,0.0,0.0,0.0,0.0,0.0,0.0,0.0,0.0,0.0,0.0,0.0,0.0,0.0,0.0,0.0,0.0,0.0,0.0,0.0,0.0,0.0,0.0,0.0,0.0,0.0,0.0,0.0,0.0,0.0,0.0,0.0,0.0,0.0,0.0,0.0,0.0,0.0,0.0,0.0,0.0,0.0,0.0,0.0,0.0,0.0,0.0,0.0,0.0,0.0,0.0,0.0,0.0,0.0,0.0,0.0,0.0,0.0,0.0,0.0,0.0,0.0,0.0,0.0,0.0,0.0,0.0,0.0,0.0,0.0,0.0,0.0,0.0,0.0,0.0,0.0,0.0,0.0,0.0,0.0,0.0,0.0,0.0,0.0,0.0,0.0,0.0,0.0,0.0,0.0,0.0,0.0,0.0,0.0,0.0,0.0,0.0,0.0,0.0,0.0,0.0,0.0,0.0,0.0,0.0,0.0,0.0,0.0,0.0,0.0,0.0,0.0,0.0,0.0,0.0,0.0,0.0,0.0,0.0,0.0,0.0,0.0,0.0,0.0,0.0,0.0,0.0,0.0,0.0,0.0,0.0,0.0,0.0,0.0,0.0,0.0,0.0,0.0,0.0,0.0,0.0,0.0,0.0,0.0,0.0,0.0,0.0,0.0,0.0,0.0,0.0,0.0,0.0,0.0,0.0,0.0,0.0,0.0,0.0,0.0,0.0,0.0,0.0,0.0,0.0,0.0,0.0,0.0,0.0,0.0,0.0,0.0,0.0,0.0,0.0,0.0,0.0,0.0,0.0,0.0,0.0,0.0,0.0,0.0,0.0,0.0,0.0,0.0,0.0,0.0,0.0,0.0,0.0,0.0,0.0,0.0,0.0,0.0,0.0,0.0,0.0,0.0,0.0,0.0,0.0,0.0,0.0,0.0,0.0,0.0,0.0,0.0,0.0,0.0,0.0,0.0,0.0,0.0,0.0,0.0,0.0,0.0,0.0,0.0,0.0,0.0,0.0,0.0,0.0,0.0,0.0,0.0,0.0,0.0,0.0,0.0,0.0,0.0,0.0,0.0,0.0,0.0,0.0,0.0,0.0,0.0,0.0,0.0,0.0,0.0,0.0,0.0,0.0,0.0,0.0,0.0,0.0,0.0,0.0,0.0,0.0,0.0,0.0,0.0,0.0,0.0,0.0,0.0,0.0,0.0,0.0,0.0,0.0,0.0,0.0,0.0,0.0,0.0,0.0,0.0,0.0,0.0,0.0,0.0,0.0,0.0,0.0,0.0,0.0,0.0,0.0,0.0,0.0,0.0,0.0,0.0,0.0,0.0,0.0,0.0,0.0,0.0,0.0,0.0,0.0,0.0,0.0,0.0,0.0,0.0,0.0,0.0,0.0,0.0,0.0,0.0,0.0,0.0,0.0,0.0,0.0,0.0,0.0,0.0,0.0,0.0,0.0,0.0,0.0,0.0,0.0,0.0,0.0,0.0,0.0,0.0,0.0,0.0,0.0,0.0,0.0,0.0,0.0,0.0,0.0,0.0,0.0,0.0,0.0,0.0,0.0,0.0,0.0,0.0,0.0,0.0,0.0,0.0,0.0,0.0,0.0,0.0,0.0,0.0,0.0,0.0,0.0,0.0,0.0,0.0,0.0,0.0,0.0,0.0,0.0,0.0,0.0,0.0,0.0,0.0,0.0,0.0,0.0,0.0,0.0,0.0,0.0,0.0,0.0,0.0,0.0,0.0,0.0,0.0,0.0,0.0,0.0,0.0,0.0,0.0,0.0,0.0,0.0,0.0,0.0,0.0,0.0,0.0,0.0,0.0,0.0,0.0,0.0,0.0,0.0,0.0,0.0,0.0,0.0,0.0,0.0,0.0,0.0,0.0,0.0,0.0,0.0,0.0,0.0,0.0,0.0,0.0,0.0,0.0,0.0,0.0,0.0,0.0,0.0,0.0,0.0,0.0,0.0,0.0,0.0,0.0,0.0,0.0,0.0,0.0,0.0,0.0,0.0,0.0,0.0,0.0,0.0,0.0,0.0,0.0,0.0,0.0,0.0,0.0,0.0,0.0,0.0,0.0,0.0,0.0,0.0,0.0,0.0,0.0,0.0,0.0,0.0,0.0,0.0,0.0,0.0,0.0,0.0,0.0,0.0,0.0,0.0,0.0,0.0,0.0,0.0,0.0,0.0,0.0,0.0,0.0,0.0,0.0,0.0,0.0,0.0,0.0,0.0,0.0,0.0,0.0,0.0,0.0,0.0,0.0,0.0,0.0,0.0,0.0,0.0,0.0,0.0,0.0,0.0,0.0,0.0,0.0,0.0,0.0,0.0,0.0,0.0,0.0,0.0,0.0,0.0,0.0,0.0,0.0,0.0,0.0,0.0,0.0,0.0,0.0,0.0,0.0,0.0,0.0,0.0,0.0,0.0,0.0,0.0,0.0,0.0,0.0,0.0,0.0,0.0,0.0,0.0,0.0,0.0,0.0,0.0,0.0,0.0,0.0,0.0,0.0,0.0,0.0,0.0,0.0,0.0,0.0,0.0,0.0,0.0,0.0,0.0,0.0,0.0,0.0,0.0,0.0,0.0,0.0,0.0,0.0,0.0,0.0,0.0,0.0,0.0,0.0,0.0,0.0,0.0,0.0,0.0,0.0,0.0,0.0,0.0,0.0,0.0,0.0,0.0,0.0,0.0,0.0,0.0,0.0,0.0,0.0,0.0,0.0,0.0,0.0,0.0,0.0,0.0,0.0,0.0,0.0,0.0,0.0,0.0,0.0,0.0,0.0,0.0,0.0,0.0,0.0,0.0,0.0,0.0,0.0,0.0,0.0,0.0,0.0,0.0,0.0,0.0,0.0,0.0,0.0,0.0,0.0,0.0,0.0,0.0,0.0,0.0,0.0,0.0,0.0,0.0,0.0,0.0,0.0,0.0,0.0,0.0,0.0,0.0,0.0,0.0,0.0,0.0,0.0,0.0,0.0,0.0,0.0,0.0,0.0,0.0,0.0,0.0,0.0,0.0,0.0,0.0,0.0,0.0,0.0,0.0,0.0,0.0,0.0,0.0,0.0,0.0,0.0,0.0,0.0,0.0,0.0,0.0,0.0,0.0,0.0,0.0,0.0,0.0,0.0,0.0,0.0,0.0,0.0,0.0,0.0,0.0,0.0,0.0,0.0,0.0,0.0,0.0,0.0,0.0,0.0,0.0,0.0,0.0,0.0,0.0,0.0,0.0,0.0,0.0,0.0,0.0,0.0,0.0,0.0,0.0,0.0,0.0,0.0,0.0,0.0,0.0,0.0,0.0,0.0,0.0,0.0,0.0,0.0,0.0,0.0,0.0,0.0,0.0,0.0,0.0,0.0,0.0,0.0,0.0,0.0,0.0,0.0,0.0,0.0,0.0,0.0,0.0,0.0,0.0,0.0,0.0,0.0,0.0,0.0,0.0,0.0,0.0,0.0,0.0,0.0,0.0,0.0,0.0,0.0,0.0,0.0,0.0,0.0,0.0,0.0,0.0,0.0,0.0,0.0,0.0,0.0,0.0,0.0,0.0,0.0,0.0,0.0,0.0,0.0,0.0,0.0,0.0,0.0,0.0,0.0,0.0,0.0,0.0,0.0,0.0,0.0,0.0,0.0,0.0,0.0,0.0,0.0,0.0,0.0,0.0,0.0,0.0,0.0,0.0,0.0,0.0,0.0,0.0,0.0,0.0,0.0,0.0,0.0,0.0,0.0,0.0,0.0,0.0,0.0,0.0,0.0,0.0,0.0,0.0,0.0,0.0,0.0,0.0,0.0,0.0,0.0,0.0,0.0,0.0,0.0,0.0,0.0,0.0,0.0,0.0,0.0,0.0,0.0,0.0,0.0,0.0,0.0,0.0,0.0,0.0,0.0,0.0,0.0,0.0,0.0,0.0,0.0,0.0,0.0,0.0,0.0,0.0,0.0,0.0,0.0,0.0,0.0,0.0,0.0,0.0,0.0,0.0,0.0,0.0,0.0,0.0,0.0,0.0,0.0,0.0,0.0,0.0,0.0,0.0,0.0,0.0,0.0,0.0,0.0,0.0,0.0,0.0,0.0,0.0,0.0,0.0,0.0,0.0,0.0,0.0,0.0,0.0,0.0,0.0,0.0,0.0,0.0,0.0,0.0,0.0,0.0,0.0,0.0,0.0,0.0,0.0,0.0,0.0,0.0,0.0,0.0,0.0,0.0,0.0,0.0,0.0,0.0,0.0,0.0,0.0,0.0,0.0,0.0,0.0,0.0,0.0,0.0,0.0,0.0,0.0,0.0,0.0,0.0,0.0,0.0,0.0,0.0,0.0,0.0,0.0,0.0,0.0,0.0,0.0,0.0,0.0,0.0,0.0,0.0,0.0,0.0,0.0,0.0,0.0,0.0,0.0,0.0,0.0,0.0,0.0,0.0,0.0,0.0,0.0,0.0,0.0,0.0,0.0,0.0,0.0,0.0,0.0,0.0,0.0,0.0,0.0,0.0,0.0,0.0,0.0,0.0,0.0,0.0,0.0,0.0,0.0,0.0,0.0,0.0,0.0,0.0,0.0,0.0,0.0,0.0,0.0,0.0,0.0,0.0,0.0,0.0,0.0,0.0,0.0,0.0,0.0,0.0,0.0,0.0,0.0,0.0,0.0,0.0,0.0,0.0,0.0,0.0,0.0,0.0,0.0,0.0,0.0,0.0,0.0,0.0,0.0,0.0,0.0,0.0,0.0,0.0,0.0,0.0,0.0,0.0,0.0,0.0,0.0,0.0,0.0,0.0,0.0,0.0,0.0,0.0,0.0,0.0,0.0,0.0,0.0,0.0,0.0,0.0,0.0,0.0,0.0,0.0,0.0,0.0,0.0,0.0,0.0,0.0,0.0,0.0,0.0,0.0,0.0,0.0,0.0,0.0,0.0,0.0,0.0,0.0,0.0,0.0,0.0,0.0,0.0,0.0,0.0,0.0,0.0,0.0,0.0,0.0,0.0,0.0,0.0,0.0,0.0,0.0,0.0,0.0,0.0,0.0,0.0,0.0,0.0,0.0,0.0,0.0,0.0,0.0,0.0,0.0,0.0,0.0,0.0,0.0,0.0,0.0,0.0,0.0,0.0,0.0,0.0,0.0,0.0,0.0,0.0,0.0,0.0,0.0,0.0,0.0,0.0,0.0,0.0,0.0,0.0,0.0,0.0,0.0,0.0,0.0,0.0,0.0,0.0,0.0,0.0,0.0,0.0,0.0,0.0,0.0,0.0,0.0,0.0,0.0,0.0,0.0,0.0,0.0,0.0,0.0,0.0,0.0,0.0,0.0,0.0,0.0,0.0,0.0,0.0,0.0,0.0,0.0,0.0,0.0,0.0,0.0,0.0,0.0,0.0,0.0,0.0,0.0,0.0,0.0,0.0,0.0,0.0,0.0,0.0,0.0,0.0,0.0,0.0,0.0,0.0,0.0,0.0,0.0,0.0,0.0,0.0,0.0,0.0,0.0,0.0,0.0,0.0,0.0,0.0,0.0,0.0,0.0,0.0,0.0,0.0,0.0,0.0,0.0,0.0,0.0,0.0,0.0,0.0,0.0,0.0,0.0,0.0,0.0,0.0,0.0,0.0,0.0,0.0,0.0,0.0,0.0,0.0,0.0,0.0,0.0,0.0,0.0,0.0,0.0,0.0,0.0,0.0,0.0,0.0,0.0,0.0,0.0,0.0,0.0,0.0,0.0,0.0,0.0,0.0,0.0,0.0,0.0,0.0,0.0,0.0,0.0,0.0,0.0,0.0,0.0,0.0,0.0,0.0,0.0,0.0,0.0,0.0,0.0,0.0,0.0,0.0,0.0,0.0,0.0,0.0,0.0,0.0,0.0,0.0,0.0,0.0,0.0,0.0,0.0,0.0,2.9052,0.0,0.0,0.0,0.0,0.0,0.0,0.0,0.0,0.0,0.0,0.0,0.0,0.0,0.0,0.0,0.0,0.0,0.0,0.0,0.0,0.0,0.0,0.0,0.0,0.0,0.0,0.0,0.0,0.0,0.0,0.0,0.0,0.0,0.0,0.0,0.0,0.0,0.0,0.0,0.0,0.0,0.0,0.0,0.0,0.0,0.0,0.0,0.0,0.0,0.0,0.0,0.0,0.0,0.0,0.0,0.0,0.0,0.0,0.0,0.0,0.0,0.0,0.0,0.0,0.0,0.0,0.0,0.0,0.0,0.0,0.0,0.0,0.0,0.0,0.0,0.0,0.0,0.0,0.0,0.0,0.0,0.0,0.0,0.0,0.0,0.0,0.0,0.0,0.0,0.0,0.0,0.0,0.0,0.0,0.0,0.0,0.0,0.0,0.0,0.0,0.0,0.0,0.0,0.0,0.0,0.0,0.0,0.0,0.0,0.0,0.0,0.0,0.0,0.0,0.0,0.0,3.0155,0.0,0.0,0.0,0.0,0.0,0.0,0.0,0.0,0.0,0.0,0.0,0.0,0.0,0.0,0.0,0.0,0.0,0.0,0.0,0.0,0.0,0.0,0.0,0.0,0.0,0.0,0.0,0.0,0.0,0.0,0.0,0.0,0.0,0.0,0.0,0.0,0.0,0.0,0.0,0.0,0.0,0.0,0.0,0.0,0.0,0.0,0.0,0.0,0.0,0.0,0.0,0.0,0.0,0.0,0.0,0.0,0.0,0.0,0.0,0.0,0.0,0.0,0.0,0.0,0.0,0.0,0.0,0.0,0.0,0.0,0.0,0.0,0.0,0.0,0.0,0.0,0.0,0.0,0.0,0.0,0.0,0.0,0.0,0.0,0.0,0.0,0.0,0.0,0.0,0.0,0.0,0.0,0.0,0.0,0.0,0.0,0.0,0.0,0.0,0.0,0.0,0.0,0.0,0.0,0.0,0.0,0.0,0.0,3.4072,3.4398,3.427,3.4417,3.4531,3.4547,3.3114,3.2169,3.1599,3.0925,0.0,0.0,0.0,0.0,0.0,0.0,0.0,0.0,0.0,0.0,0.0,0.0,0.0,0.0,0.0,0.0,0.0,0.0,0.0,0.0,0.0,0.0,0.0,0.0,0.0,0.0,0.0,0.0,0.0,0.0,0.0,0.0,0.0,0.0,0.0,0.0,0.0,0.0,3.1549,3.1549,3.2441,3.3982,0.0,0.0,0.0,0.0,0.0,0.0,0.0,0.0,0.0,0.0,0.0,0.0,0.0,0.0,0.0,0.0,0.0,0.0,0.0,0.0,0.0,0.0,0.0,0.0,0.0,0.0,0.0,0.0,0.0,0.0,0.0,0.0,0.0,0.0,0.0,0.0,0.0,0.0,0.0,0.0,0.0,0.0,0.0,0.0,3.18,3.18,0.0,0.0,0.0,0.0,0.0,0.0,0.0,0.0,0.0,0.0,0.0,0.0,0.0,3.3302,3.3753,3.594,3.6564,3.5652,3.6689,3.6823,3.6163,3.6879,3.7193,3.7207,3.6971,0.0,3.2613,3.2502,0.0,0.0,0.0,0.0,0.0,0.0,0.0,0.0,0.0,0.0,0.0,0.0,0.0,0.0,0.0,0.0,0.0,0.0,0.0,0.0,0.0,0.0,0.0,0.0,0.0,0.0,0.0,0.0,0.0,0.0,0.0,0.0,0.0,0.0,0.0,0.0,3.0312,3.1162,3.2075,3.2075,3.2884,3.4268,3.3148,3.251,3.2249,3.1895,0.0,0.0,0.0,0.0,0.0,0.0,0.0,0.0,0.0,0.0,0.0,0.0,0.0,0.0,0.0,0.0,0.0,0.0,0.0,0.0,0.0,0.0,0.0,0.0,0.0,0.0,0.0,0.0,0.0,0.0,0.0,0.0,0.0,0.0,0.0,0.0,0.0,0.0,0.0,3.2348,3.2579,3.2143,3.1804,3.1446,0.0,0.0,0.0,0.0,0.0,0.0,0.0,0.0,0.0,3.4189,3.5721,3.6684,3.6948,3.8837,3.9542,3.9086,3.9545,3.959,3.9257,3.9608,3.9804,3.9797,3.9316,3.8049,3.6181,3.4308,3.3315,3.2865,0.0,0.0,0.0,0.0,3.2619,3.313,0.0,0.0,0.0,0.0,0.0,0.0,0.0,0.0,0.0,0.0,0.0,0.0,0.0,0.0,0.0,2.9368,0.0,0.0,0.0,0.0,0.0,0.0,0.0,0.0,0.0,0.0,0.0,0.0,3.143,3.2208,3.2869,3.3047,3.3689,3.4666,3.4666,3.4329,3.3745,3.3557,3.2544,0.0,0.0,0.0,0.0,0.0,0.0,0.0,0.0,0.0,0.0,0.0,0.0,0.0,0.0,0.0,0.0,0.0,0.0,0.0,0.0,0.0,0.0,0.0,0.0,0.0,0.0,0.0,0.0,0.0,0.0,0.0,0.0,0.0,0.0,0.0,0.0,0.0,0.0,3.2982,3.3406,3.2593,3.3121,3.3185,0.0,0.0,0.0,0.0,0.0,0.0,3.5478,3.6,3.6629,3.7419,3.9232,4.03,4.0555,4.1773,4.2289,4.2051,4.1866,4.1647,4.1462,4.1665,4.1789,4.1797,4.1149,4.0436,3.951,3.6372,3.4936,3.4609,3.3364,3.2884,3.2958,3.3617,3.4414,3.5193,0.0,0.0,0.0,0.0,0.0,0.0,0.0,0.0,0.0,0.0,0.0,0.0,0.0,0.0,2.9803,3.0448,3.0927,3.0874,0.0,0.0,0.0,0.0,0.0,0.0,0.0,0.0,0.0,3.1537,3.2972,3.3912,3.439,3.5116,3.5693,3.6195,3.6195,3.5649,3.4669,3.3905,3.3133,3.2335,0.0,0.0,0.0,0.0,0.0,0.0,0.0,0.0,0.0,0.0,0.0,0.0,0.0,0.0,0.0,0.0,0.0,0.0,0.0,0.0,0.0,0.0,0.0,0.0,0.0,0.0,0.0,0.0,0.0,0.0,0.0,0.0,0.0,0.0,0.0,0.0,0.0,0.0,0.0,3.308,3.4325,0.0,0.0,0.0,0.0,3.6219,3.6976,3.777,3.8633,3.9461,4.0307,4.112,4.277,4.4024,4.4784,4.5013,4.4692,4.3859,4.3079,4.2318,4.1627,4.2374,4.2727,4.2742,4.2705,4.2203,4.1274,3.8748,3.7222,3.6464,3.639,3.6353,3.6353,3.6409,3.6968,3.7615,0.0,0.0,0.0,0.0,0.0,0.0,0.0,0.0,0.0,0.0,0.0,0.0,0.0,3.0491,3.1486,3.2148,3.272,3.2586,3.1429,0.0,0.0,0.0,0.0,0.0,0.0,0.0,3.2033,3.2877,3.3862,3.4496,3.4891,3.516,3.5543,3.6054,3.6054,3.5989,3.5881,3.5482,3.4726,3.3755,3.3448,3.2309,0.0,0.0,0.0,0.0,0.0,0.0,0.0,0.0,0.0,0.0,0.0,0.0,0.0,0.0,0.0,0.0,0.0,0.0,0.0,0.0,0.0,0.0,0.0,0.0,0.0,0.0,0.0,0.0,0.0,0.0,0.0,0.0,0.0,0.0,0.0,0.0,0.0,3.6855,3.8736,0.0,3.8681,3.9013,3.9618,4.0437,4.0796,4.1571,4.2959,4.3311,4.3849,4.4665,4.5758,4.6238,4.5997,4.6067,4.5918,4.5584,4.4228,4.3726,4.3968,4.3689,4.3578,4.354,4.302,4.263,4.2259,4.0847,3.9161,3.7384,3.6864,3.666,3.6734,3.7254,3.7639,3.7931,0.0,0.0,0.0,0.0,0.0,0.0,0.0,0.0,0.0,0.0,0.0,2.9134,3.023,3.1598,3.2709,3.3372,3.364,0.0,0.0,0.0,0.0,0.0,0.0,0.0,0.0,3.2112,3.3225,3.4488,3.5161,3.5816,3.6424,3.6424,3.6597,3.6956,3.6956,3.6926,3.6929,3.6828,3.601,3.4751,3.4751,3.3732,3.2168,0.0,0.0,0.0,0.0,0.0,0.0,0.0,0.0,0.0,0.0,0.0,0.0,0.0,0.0,0.0,0.0,0.0,0.0,0.0,0.0,0.0,0.0,0.0,0.0,0.0,0.0,0.0,0.0,0.0,0.0,0.0,0.0,0.0,0.0,0.0,3.935,3.981,4.1917,4.2936,4.1974,4.2409,4.2996,4.3534,4.3878,4.4525,4.5639,4.5955,4.6345,4.6884,4.7683,4.772,4.6903,4.6643,4.6494,4.6475,4.5101,4.4878,4.5677,4.4822,4.4432,4.4395,4.3559,4.3039,4.276,4.2222,4.0884,3.9101,3.8562,3.8339,3.8427,3.8952,3.9324,3.9547,0.0,0.0,0.0,0.0,0.0,0.0,0.0,0.0,0.0,0.0,0.0,2.9831,3.0957,3.2304,3.3372,3.4061,0.0,0.0,0.0,0.0,0.0,0.0,0.0,0.0,3.1707,3.3128,3.4656,3.6294,3.7016,3.7914,3.9007,3.9007,3.9007,3.9007,3.9007,3.8572,3.7836,3.7836,3.6842,3.5287,3.5252,3.4542,3.3486,0.0,0.0,0.0,0.0,0.0,0.0,0.0,0.0,0.0,0.0,0.0,0.0,0.0,0.0,0.0,0.0,0.0,0.0,0.0,0.0,0.0,0.0,0.0,0.0,0.0,0.0,0.0,0.0,0.0,0.0,0.0,0.0,0.0,3.683,3.973,4.1771,4.1745,4.357,4.4349,4.3101,4.4451,4.5398,4.5398,4.6122,4.6568,4.6568,4.7311,4.7738,4.7738,4.85,4.8519,4.7701,4.6921,4.6531,4.6531,4.5714,4.5751,4.6513,4.5695,4.5305,4.5265,4.4395,4.3578,4.285,4.285,4.2385,4.1679,4.1609,4.1605,4.1605,4.1605,4.2073,4.25,0.0,0.0,0.0,0.0,0.0,0.0,0.0,0.0,0.0,0.0,2.937,3.0543,3.2579,3.3119,3.3687,0.0,0.0,0.0,0.0,0.0,0.0,0.0,0.0,0.0,3.4398,3.5047,3.6288,3.8105,3.8273,3.8673,3.9221,3.9221,3.9221,3.9221,3.9221,3.9056,3.8744,3.8744,3.8105,3.7019,3.6399,3.5887,3.5444,0.0,0.0,0.0,0.0,0.0,0.0,0.0,0.0,0.0,0.0,0.0,0.0,0.0,0.0,0.0,0.0,0.0,0.0,0.0,0.0,0.0,0.0,0.0,0.0,0.0,0.0,0.0,0.0,0.0,0.0,0.0,0.0,3.9613,3.9494,4.1764,4.3849,4.4947,4.6653,4.7617,4.7257,4.7646,4.7906,4.7906,4.8129,4.824,4.824,4.8444,4.8574,4.8574,4.8779,4.8519,4.7701,4.7478,4.7367,4.7367,4.655,4.6587,4.7348,4.6531,4.5876,4.5363,4.5121,4.4594,4.389,4.389,4.3759,4.3442,4.2114,4.1634,4.1673,4.1673,4.145,4.1078,0.0,0.0,0.0,0.0,0.0,0.0,0.0,0.0,0.0,0.0,2.9825,3.1061,3.3111,3.3742,3.4138,0.0,0.0,0.0,0.0,0.0,0.0,0.0,0.0,3.4649,3.5937,3.6616,3.7703,3.9267,3.9267,3.9595,4.027,4.027,4.027,4.027,4.027,4.0052,3.9694,3.9694,3.9367,3.8771,3.792,3.7141,3.643,3.5997,3.5734,3.559,3.5711,3.5928,3.6184,3.6266,0.0,0.0,0.0,0.0,0.0,0.0,0.0,0.0,0.0,0.0,0.0,0.0,0.0,0.0,0.0,0.0,0.0,0.0,0.0,0.0,0.0,0.0,0.0,0.0,4.0044,4.2012,4.2642,4.4058,4.5591,4.7021,4.807,4.8714,4.8891,4.8909,4.8909,4.8909,4.8909,4.8909,4.8909,4.8909,4.8909,4.8909,4.8909,4.8519,4.7701,4.7367,4.72,4.7181,4.6397,4.645,4.7213,4.6443,4.5842,4.5419,4.5084,4.4703,4.43,4.43,4.43,0.0,0.0,0.0,0.0,0.0,4.2248,4.1554,0.0,0.0,0.0,0.0,0.0,0.0,0.0,0.0,0.0,0.0,0.0,3.1433,3.3072,3.4092,3.4419,0.0,0.0,0.0,0.0,0.0,0.0,3.4057,3.5759,3.6743,3.6958,3.8031,3.9077,4.0137,4.0137,4.0642,4.1648,4.1604,4.1604,4.1604,4.1604,4.1236,4.0625,4.0625,4.0508,4.0259,3.9559,3.8374,3.7067,3.698,3.7301,3.7685,3.7026,3.7153,3.7573,3.6843,0.0,0.0,0.0,0.0,0.0,0.0,0.0,0.0,0.0,0.0,0.0,0.0,0.0,0.0,0.0,0.0,0.0,0.0,0.0,0.0,0.0,0.0,0.0,0.0,4.2184,4.3872,4.585,4.6406,4.7032,4.8175,4.8344,4.855,4.8985,4.9039,4.9039,4.9039,4.9039,4.9002,4.8909,0.0,0.0,0.0,0.0,4.8556,4.785,4.7142,4.6733,4.664,4.5996,4.6062,4.6733,4.6085,4.5723,4.5608,4.4879,4.4483,4.4314,4.4314,4.4314,4.4314,4.4314,4.4314,4.4314,4.4314,4.3772,4.3025,0.0,0.0,0.0,0.0,0.0,0.0,0.0,0.0,0.0,2.991,3.0568,3.1738,3.3974,3.3578,3.3292,0.0,0.0,3.2878,0.0,0.0,3.3683,3.5967,3.6667,3.7701,3.9238,3.994,4.0715,4.1515,4.1515,4.1625,4.1849,4.1692,4.1604,4.1604,4.1604,4.1516,4.1394,4.1394,4.1042,4.0442,4.0284,3.9909,3.9364,3.8777,3.8616,3.872,3.8581,3.8595,3.8677,3.8521,3.8469,3.833,3.7547,0.0,0.0,0.0,0.0,0.0,0.0,0.0,0.0,0.0,0.0,0.0,0.0,0.0,0.0,0.0,0.0,0.0,0.0,0.0,0.0,4.2833,4.4553,4.614,4.7804,4.808,4.8134,4.828,4.8587,4.9062,4.9801,4.9875,4.9875,4.9875,4.9875,4.9577,4.8927,4.8909,4.8909,4.8909,4.8909,4.8834,4.8667,4.8624,4.823,4.7541,0.0,0.0,4.7727,4.7575,4.7155,4.6544,4.6375,4.56,4.4458,4.4458,4.4458,4.4458,4.4397,4.4368,4.4368,4.4368,4.3863,4.317,0.0,0.0,0.0,0.0,0.0,0.0,0.0,0.0,0.0,0.0,2.9967,3.0927,3.3007,3.2823,0.0,0.0,3.2365,0.0,0.0,3.4137,3.5338,3.7603,3.8391,3.9359,4.0622,4.1098,4.1587,4.2103,4.2103,4.2103,4.2103,4.2016,4.1952,4.1952,4.1952,4.1888,4.174,4.174,4.1485,4.1042,0.0,0.0,4.0726,3.9573,3.9359,3.9665,3.9665,3.9604,3.9543,3.9543,3.9299,3.8916,3.8516,3.7854,3.7088,0.0,0.0,0.0,0.0,0.0,0.0,0.0,0.0,0.0,0.0,0.0,0.0,0.0,0.0,3.8023,0.0,0.0,4.2961,4.5273,4.6625,4.7719,4.8753,4.8866,4.8841,4.8768,4.9163,4.9686,5.0285,5.0583,5.0748,5.0748,5.0748,5.0376,4.9559,4.9503,4.9317,4.8909,4.8909,4.8926,4.8996,4.8621,4.8261,4.7898,4.714,4.7037,4.7448,4.703,4.6626,4.6259,4.6259,4.5579,4.4501,4.4501,4.4501,4.4501,4.4454,4.444,4.444,4.444,4.4196,4.3858,0.0,0.0,0.0,0.0,0.0,0.0,0.0,0.0,0.0,0.0,0.0,3.0029,3.1749,3.2006,3.1882,0.0,0.0,0.0,0.0,3.5263,3.6903,3.8925,3.9914,4.0713,4.1391,4.1788,4.2082,4.2308,4.2348,4.2348,4.2308,4.2308,4.2308,4.2308,4.2246,4.2103,4.1913,4.187,4.174,0.0,0.0,0.0,4.1481,4.0389,4.0328,4.0766,4.0609,4.0477,4.0393,4.0393,3.9905,3.9277,3.9277,3.8841,3.8143,3.7239,3.6768,0.0,0.0,0.0,0.0,0.0,0.0,0.0,0.0,0.0,3.7319,3.8725,3.9252,4.0253,4.278,4.3974,4.5291,4.7485,4.8345,4.8913,4.9447,4.9515,4.9515,4.9515,4.9796,5.0166,5.0655,5.1092,5.1379,5.1491,5.151,5.1158,5.0395,5.0358,4.9986,4.9186,4.9168,4.9164,4.9118,4.8427,4.7972,4.7735,4.6634,4.6398,4.6889,4.6419,4.6186,4.6167,4.5848,4.5247,4.4501,4.4501,4.4501,4.4501,4.4501,4.4501,4.4501,4.4501,4.4501,4.4501,0.0,0.0,0.0,0.0,0.0,0.0,0.0,0.0,0.0,0.0,0.0,0.0,0.0,0.0,0.0,0.0,0.0,0.0,0.0,3.5545,3.7136,3.9682,4.0178,4.0713,4.1391,4.1977,4.2267,4.2308,4.249,4.247,4.2308,4.2308,4.2308,4.2287,4.2061,4.1917,4.1892,4.1697,0.0,0.0,0.0,0.0,4.1657,4.2219,4.2459,4.2442,4.1722,4.1442,4.142,4.142,4.095,4.0319,4.0319,4.0266,3.9898,3.8386,0.0,3.5861,3.5598,3.5178,3.5127,3.6427,3.6796,3.776,0.0,0.0,4.12,4.2096,4.336,4.4431,4.4782,4.6028,4.7538,4.9196,4.953,4.9829,5.0585,5.0717,5.0717,5.0717,5.0241,5.0208,5.0963,5.1103,5.1322,5.1816,5.1836,5.1685,5.1287,5.1249,5.0914,5.0166,5.0129,4.9826,4.9197,4.915,4.8378,4.6952,4.7605,4.7579,4.7016,4.765,4.7913,4.7838,4.6354,4.5247,4.4501,4.4501,4.4501,4.4501,4.4501,4.4501,4.4501,4.4501,4.4501,4.4501,0.0,0.0,0.0,0.0,0.0,0.0,0.0,0.0,0.0,0.0,0.0,0.0,0.0,0.0,0.0,0.0,0.0,0.0,3.4783,3.5992,3.7636,3.9791,4.0212,4.0713,4.1391,4.1831,4.2145,4.2308,4.2389,4.245,4.247,4.247,4.247,4.247,4.2351,4.2166,4.1895,4.1805,4.1697,4.1639,0.0,0.0,4.2342,4.2675,4.2816,4.2693,4.1885,4.1025,0.0,0.0,3.9743,3.9182,3.9656,3.9182,3.8324,3.7674,3.6987,0.0,3.7023,3.6917,3.6952,0.0,3.9006,4.0217,4.2324,4.2552,4.2758,4.4442,4.5284,4.6168,4.752,4.8293,4.9082,0.0,5.0382,5.0504,5.0838,5.0891,5.0715,5.0241,5.0197,5.051,5.1305,5.1643,5.2013,5.2561,5.2601,5.2436,5.2122,5.1676,5.1097,5.0313,4.9879,4.9517,4.926,4.9292,4.9002,4.8359,4.7785,4.7575,4.7687,4.703,4.6749,4.6674,4.551,4.4801,4.4501,4.4501,4.4501,4.4501,4.4501,4.4501,4.4501,4.4501,4.4501,4.4501,0.0,0.0,0.0,0.0,0.0,0.0,0.0,0.0,0.0,0.0,0.0,0.0,0.0,0.0,0.0,0.0,0.0,0.0,0.0,3.615,3.7793,3.9368,3.996,0.0,4.1214,4.1574,4.1895,4.2187,4.2481,4.265,4.2752,4.3088,4.3198,4.3156,4.3156,4.2932,4.255,4.2273,4.2176,4.2271,4.2658,4.2816,4.2816,4.2816,4.2412,4.1762,4.1183,4.0112,0.0,0.0,3.8128,3.7619,3.8409,3.79,3.7007,3.7007,3.7007,3.713,3.7654,0.0,0.0,3.9691,4.1095,4.25,4.3518,4.3921,4.4606,4.6442,4.7004,4.7696,4.9381,4.9899,5.0233,5.0803,5.0891,5.0891,5.0891,5.0697,5.0346,4.9776,4.9806,5.0243,5.1183,5.1688,5.2286,5.3038,5.312,5.2994,5.2661,5.2157,5.1409,5.04,4.9832,4.9484,4.9358,4.9358,4.9277,4.9133,4.7913,4.7519,4.7838,4.6617,4.5923,4.566,4.5078,4.4707,4.4501,4.4501,4.4501,4.4501,4.4501,4.4501,4.4501,4.4501,4.4501,4.4501,0.0,0.0,0.0,0.0,0.0,0.0,0.0,0.0,0.0,0.0,0.0,0.0,0.0,0.0,0.0,0.0,0.0,0.0,0.0,3.577,3.745,3.8212,3.9309,4.0196,4.0802,4.1214,4.1591,4.1895,4.2892,4.3266,4.3107,4.4288,4.4731,4.4553,4.4553,4.4422,4.4178,4.3188,4.3184,4.3763,4.3079,4.2816,4.2816,4.2816,4.1394,3.9389,3.9371,0.0,0.0,0.0,3.6531,3.6003,3.6831,3.7042,0.0,3.7007,3.7007,0.0,0.0,0.0,3.9617,4.1148,4.2693,4.4237,4.574,4.6713,4.7485,4.8267,4.9047,4.9635,4.9706,5.0329,5.0855,5.0891,5.0891,5.0891,5.0891,5.0233,4.9741,4.9706,4.9012,4.9051,0.0,5.0854,5.1678,5.3002,5.3146,5.3057,5.2698,5.2806,5.2146,5.0546,5.0471,5.0145,4.9509,4.949,4.9077,4.8232,4.8194,4.7763,4.703,4.6993,4.6505,4.5697,4.566,4.5228,4.4501,4.4501,4.4501,4.4501,4.4501,4.4501,4.4501,4.4501,4.4501,4.4501,0.0,0.0,0.0,0.0,0.0,0.0,0.0,0.0,0.0,0.0,0.0,0.0,0.0,0.0,0.0,0.0,0.0,0.0,0.0,3.4908,3.6161,3.7025,3.8884,4.0018,4.021,4.1079,4.1587,4.1697,4.2555,4.3032,4.312,4.4054,4.4467,4.4401,4.4401,4.4266,4.4002,4.3687,4.3676,4.3834,4.3096,4.2816,4.264,4.1056,3.9673,3.8322,0.0,0.0,0.0,0.0,3.4513,3.4407,3.5233,0.0,0.0,3.5321,3.6549,3.7848,3.8374,0.0,4.1868,4.2868,4.3921,4.5098,4.6642,4.7204,4.7608,4.8337,4.7881,4.7555,4.8064,4.7959,4.7959,4.8486,4.946,4.9908,4.9381,4.9696,4.957,4.8547,4.858,0.0,0.0,0.0,0.0,5.2236,5.2273,5.2126,5.1986,5.2108,5.1655,5.0528,5.0068,4.9721,4.9509,4.8927,4.8495,4.8194,4.7068,4.6129,4.5345,4.5345,4.5176,4.4909,4.4909,4.4745,4.4501,4.4501,4.4501,4.4501,4.4501,4.4501,4.4501,4.4501,4.4501,4.4501,0.0,0.0,0.0,0.0,0.0,0.0,0.0,0.0,0.0,0.0,0.0,0.0,0.0,0.0,0.0,0.0,0.0,0.0,0.0,0.0,3.4918,3.5792,3.7553,3.8704,3.9094,3.983,4.0273,4.0426,4.1305,4.1988,4.2409,4.3403,4.3978,4.4152,4.4261,4.4152,4.3851,4.3307,4.3237,4.3395,4.2078,4.1552,4.1323,3.9269,3.7988,0.0,0.0,0.0,0.0,0.0,3.3108,3.3231,3.4039,3.4302,3.4529,3.5601,3.7163,3.8863,4.0498,4.2043,4.3518,4.4817,4.5536,4.6239,4.7503,4.7801,4.7959,4.8407,4.7495,4.6688,4.6941,4.6547,4.6179,4.6151,4.7204,4.801,4.7839,4.8166,4.8296,4.795,4.8051,4.8359,0.0,0.0,0.0,5.1552,5.1626,5.1452,5.1232,5.1314,5.1007,5.0164,4.9721,4.9509,4.9509,4.8945,4.8363,4.7763,4.6674,4.5585,4.4501,4.4501,4.4501,4.4501,4.4501,4.4501,4.4501,4.4501,4.4501,4.4501,4.4501,4.4501,4.4501,4.4501,4.4501,4.4501,0.0,0.0,0.0,0.0,0.0,0.0,0.0,0.0,0.0,0.0,0.0,0.0,0.0,0.0,0.0,0.0,0.0,0.0,0.0,0.0,0.0,3.4529,3.5472,3.6486,3.76,3.7617,3.7807,3.8197,3.9238,4.0146,4.0938,4.2238,4.3124,4.3635,4.3923,4.3913,4.3576,4.2179,4.2021,4.2512,4.0214,3.9284,3.9147,3.7532,0.0,0.0,0.0,0.0,0.0,0.0,0.0,0.0,0.0,3.4705,3.6213,3.7777,3.881,4.0126,4.3096,4.3957,4.4553,4.6765,4.7327,4.7538,4.8293,4.8468,4.8476,4.8441,4.7756,4.6948,0.0,0.0,4.5572,4.4156,4.4665,4.5569,4.6478,4.6029,4.6246,0.0,0.0,0.0,0.0,0.0,0.0,5.086,0.0,5.0985,5.0439,5.059,5.03,4.9512,4.949,4.9509,4.9509,4.9471,4.8589,4.6936,4.6936,4.6092,4.4501,4.4501,4.4501,4.4501,4.4501,4.4501,4.4501,4.4501,4.4501,4.4501,4.4501,4.4501,4.4501,4.4501,4.4501,4.4501,0.0,0.0,0.0,0.0,0.0,0.0,0.0,0.0,0.0,0.0,0.0,0.0,0.0,0.0,0.0,0.0,0.0,0.0,0.0,0.0,0.0,0.0,0.0,0.0,0.0,0.0,0.0,0.0,0.0,3.7983,3.8212,3.915,3.9668,0.0,4.0458,4.0695,4.0648,4.1071,4.1354,4.1389,0.0,3.9284,3.9076,0.0,0.0,0.0,0.0,0.0,0.0,0.0,0.0,0.0,0.0,3.6742,3.783,3.941,4.0849,4.2201,4.3535,4.4746,4.5758,4.6354,4.6495,4.6755,4.7752,4.753,4.7155,4.7269,4.5772,4.4352,0.0,0.0,0.0,4.4158,4.5841,0.0,4.6643,4.7754,0.0,4.8411,0.0,4.8547,4.8876,4.8106,0.0,0.0,4.9501,4.9656,4.9119,4.9867,4.9948,4.9164,4.9361,4.9509,4.9509,4.8852,4.7687,4.6035,4.6035,4.5491,4.4501,4.4501,4.4501,4.4501,4.4501,4.4501,4.4501,4.4501,4.4501,4.4501,4.4501,4.4501,4.4501,4.4501,4.4501,4.4501,0.0,0.0,0.0,0.0,0.0,0.0,0.0,0.0,0.0,0.0,0.0,0.0,0.0,0.0,0.0,0.0,0.0,0.0,0.0,0.0,0.0,0.0,0.0,0.0,0.0,0.0,0.0,0.0,0.0,0.0,0.0,3.7221,3.77,3.8368,3.8791,3.8962,3.9003,0.0,0.0,0.0,0.0,0.0,0.0,0.0,0.0,0.0,0.0,0.0,0.0,0.0,0.0,3.695,3.776,3.876,3.9954,4.1516,0.0,4.3518,4.4624,4.553,4.6284,4.6635,4.6748,4.6727,4.6748,4.6672,4.6371,4.5512,4.4314,0.0,4.298,0.0,0.0,0.0,0.0,0.0,4.5847,4.6896,4.7903,0.0,4.8808,0.0,4.9383,4.8713,4.8288,0.0,4.8693,4.8803,4.8767,4.9228,4.9335,4.901,4.9179,4.9345,4.9509,4.9002,4.7932,4.6279,4.6279,4.566,4.4501,4.4501,4.4501,4.4501,0.0,4.4501,4.4501,4.4501,4.4501,4.4501,4.4501,4.4501,4.4501,4.4501,4.4501,4.4501,0.0,0.0,0.0,0.0,0.0,0.0,0.0,0.0,0.0,0.0,0.0,0.0,0.0,0.0,0.0,0.0,0.0,0.0,0.0,0.0,0.0,0.0,0.0,0.0,0.0,0.0,0.0,0.0,0.0,0.0,0.0,0.0,0.0,0.0,0.0,0.0,0.0,0.0,0.0,0.0,0.0,0.0,0.0,0.0,0.0,0.0,0.0,0.0,0.0,0.0,3.8427,3.8585,3.9603,4.0832,4.2219,4.3746,4.4202,4.4501,4.5828,4.6284,4.6495,4.7099,4.7194,4.6794,4.5587,4.5787,4.5683,4.3729,0.0,4.3099,4.2351,4.2277,4.217,4.1618,0.0,4.3271,4.5054,4.5513,4.6516,4.88,4.9144,4.9456,5.0057,4.9383,4.8855,4.8746,4.8293,4.8288,4.8802,4.8641,4.8678,4.8991,4.8991,4.9162,4.9509,4.9509,4.8664,4.7012,4.7012,4.6129,4.4501,4.4501,4.4501,4.4501,4.4501,0.0,4.4501,4.4501,4.4501,4.4501,4.4501,4.4501,4.4501,4.4501,4.4501,4.4501,0.0,0.0,0.0,0.0,0.0,0.0,0.0,0.0,0.0,0.0,3.3119,3.3166,0.0,0.0,0.0,0.0,0.0,0.0,0.0,0.0,0.0,0.0,0.0,0.0,0.0,0.0,0.0,0.0,0.0,0.0,0.0,0.0,0.0,0.0,0.0,0.0,0.0,0.0,0.0,0.0,0.0,0.0,0.0,0.0,0.0,0.0,0.0,0.0,0.0,0.0,4.0081,4.045,4.2464,4.3289,4.3799,4.5337,4.5793,4.5863,4.6126,4.6695,4.7064,4.653,4.6062,4.557,4.488,4.4493,0.0,0.0,4.2985,4.2732,4.1955,4.2217,4.2727,4.325,0.0,0.0,0.0,0.0,4.938,0.0,0.0,0.0,0.0,0.0,0.0,0.0,4.7814,4.7824,4.7929,4.8093,4.8439,4.8974,4.8991,4.9162,4.9509,4.9509,4.8664,4.7012,4.7012,4.6129,4.4501,4.4501,4.4501,4.4501,4.4501,0.0,4.4501,4.4501,4.4501,4.4501,4.4501,4.4501,4.4501,4.4501,4.4501,4.4501,0.0,0.0,0.0,0.0,0.0,0.0,0.0,3.2658,3.3309,3.3309,3.3309,3.3309,3.3309,3.3309,3.3309,0.0,0.0,0.0,0.0,0.0,0.0,0.0,0.0,0.0,0.0,0.0,0.0,0.0,0.0,0.0,0.0,0.0,0.0,0.0,0.0,0.0,0.0,0.0,0.0,0.0,0.0,0.0,0.0,0.0,0.0,0.0,0.0,0.0,0.0,0.0,4.0147,4.0976,4.3658,4.4799,4.5231,4.5986,4.6495,4.6835,4.6835,4.7397,4.7801,4.7029,4.6427,4.5569,4.375,0.0,0.0,0.0,4.1977,4.2158,4.1759,4.1937,0.0,0.0,0.0,0.0,0.0,0.0,0.0,0.0,0.0,0.0,0.0,0.0,0.0,0.0,0.0,4.7762,4.7911,4.8015,4.8308,4.8784,4.8784,4.901,4.9509,4.9039,4.8213,4.6993,4.6542,4.5679,4.4501,4.4501,4.4501,4.4501,4.4501,0.0,4.4501,4.4501,4.4501,4.4501,4.4501,4.4501,4.4501,4.4501,4.4537,4.4605,0.0,0.0,0.0,0.0,0.0,0.0,0.0,3.3011,3.3309,3.3309,3.3309,3.3309,3.3309,3.3309,3.3309,0.0,0.0,0.0,0.0,0.0,0.0,0.0,0.0,0.0,0.0,0.0,0.0,0.0,0.0,0.0,0.0,0.0,0.0,0.0,0.0,0.0,0.0,0.0,0.0,0.0,0.0,0.0,0.0,0.0,0.0,0.0,0.0,0.0,0.0,0.0,3.9726,4.0731,4.3483,4.5098,4.5933,4.5758,4.652,4.7397,4.7397,4.7819,4.8135,4.7538,4.6775,4.5478,4.2803,4.243,0.0,0.0,4.127,4.1904,4.1723,4.1705,4.1958,0.0,4.2901,0.0,0.0,0.0,0.0,0.0,0.0,0.0,0.0,0.0,0.0,0.0,0.0,0.0,4.8094,4.8114,4.8288,4.8678,4.8678,4.8942,4.949,4.8626,4.78,4.6993,4.6129,4.5284,4.4501,4.4501,4.4501,4.4501,4.4501,0.0,0.0,4.4537,4.4551,4.4578,4.4578,4.4578,4.4578,4.4578,4.4659,4.4732,0.0,0.0,0.0,0.0,0.0,0.0,0.0,3.3011,3.3309,3.3309,3.3309,3.3309,3.3309,3.3309,3.3309,0.0,0.0,0.0,0.0,0.0,0.0,0.0,0.0,0.0,0.0,0.0,0.0,0.0,0.0,0.0,0.0,0.0,0.0,0.0,0.0,0.0,0.0,0.0,0.0,0.0,0.0,0.0,0.0,0.0,0.0,0.0,0.0,0.0,0.0,0.0,0.0,3.9687,4.1394,4.343,4.5062,4.4325,0.0,0.0,4.7397,4.745,4.7485,4.7415,4.6065,4.4328,4.2578,0.0,0.0,4.0836,4.1723,4.2574,4.1831,4.1705,4.1958,0.0,0.0,4.3733,0.0,0.0,0.0,0.0,0.0,0.0,0.0,0.0,0.0,0.0,4.7968,0.0,4.8114,4.8114,4.8383,4.894,4.8957,4.9146,4.9509,4.8626,4.78,4.6993,4.6129,4.5284,4.4501,4.4501,4.4501,4.4501,4.4501,0.0,0.0,4.4685,4.4745,4.4858,4.4858,4.4858,4.4858,4.4858,4.4858,4.487,0.0,0.0,0.0,0.0,0.0,0.0,3.3038,3.3187,3.3309,3.3309,3.3309,3.3309,3.3309,3.3309,3.3309,3.3309,0.0,0.0,0.0,0.0,0.0,0.0,0.0,0.0,0.0,0.0,0.0,0.0,0.0,0.0,0.0,0.0,0.0,0.0,0.0,0.0,0.0,0.0,0.0,0.0,0.0,0.0,0.0,0.0,0.0,0.0,0.0,0.0,0.0,0.0,0.0,0.0,3.8778,4.0428,0.0,0.0,4.4904,4.6221,4.7151,4.7731,4.7959,4.7503,4.5965,4.4135,4.2543,0.0,4.127,4.0619,4.1379,4.2067,4.1759,4.1705,4.1795,0.0,0.0,0.0,0.0,0.0,0.0,0.0,0.0,0.0,0.0,0.0,0.0,4.7949,4.8035,0.0,4.8623,4.8495,4.8587,4.8974,4.8991,4.9162,4.9509,4.8626,4.8044,4.7706,4.6354,4.5528,4.5209,4.4707,4.4501,4.4496,4.4578,0.0,0.0,4.4802,4.4846,4.4895,4.4895,4.4895,4.4895,4.4895,4.4943,4.5014,0.0,0.0,0.0,0.0,0.0,3.3309,3.3309,3.3309,3.3309,3.3309,3.3309,3.3309,3.3309,3.3309,3.3309,3.3309,3.3309,0.0,0.0,0.0,0.0,0.0,0.0,0.0,0.0,0.0,0.0,0.0,0.0,0.0,0.0,0.0,0.0,0.0,0.0,0.0,0.0,0.0,0.0,0.0,0.0,0.0,0.0,0.0,0.0,0.0,0.0,0.0,0.0,0.0,0.0,0.0,0.0,0.0,0.0,0.0,4.3588,4.5027,4.6362,4.7274,4.7688,4.7169,4.5605,4.3829,0.0,4.1492,4.0854,4.0854,4.1488,4.2049,4.2049,4.2049,4.2049,0.0,0.0,4.2538,0.0,0.0,0.0,0.0,0.0,4.6468,0.0,4.7638,4.7891,4.8094,4.8269,0.0,4.8974,4.8906,4.8942,4.9146,4.9146,4.9262,4.9509,4.8626,4.8082,4.7838,4.6392,4.5585,4.5341,4.4759,4.4501,4.4515,4.4646,0.0,0.0,4.4895,4.4979,4.5033,4.5033,4.5033,4.5033,4.5033,4.508,4.5159,0.0,0.0,0.0,0.0,0.0,0.0,3.3309,3.3309,3.3309,3.3309,3.3309,3.3309,3.3309,3.3309,3.3309,3.3309,3.3309,0.0,0.0,0.0,0.0,0.0,0.0,0.0,0.0,0.0,0.0,3.3309,3.3309,0.0,0.0,0.0,0.0,0.0,0.0,0.0,0.0,0.0,0.0,0.0,0.0,0.0,0.0,0.0,0.0,0.0,0.0,0.0,0.0,0.0,0.0,0.0,0.0,0.0,0.0,0.0,4.1516,4.4079,4.4904,4.5653,4.6214,4.6214,4.4786,4.3205,0.0,4.1925,4.1687,4.1687,4.2339,4.2901,4.2901,4.2901,4.2901,4.2901,4.2901,0.0,4.3987,0.0,0.0,0.0,0.0,0.0,4.6432,4.746,4.8114,4.8114,4.8659,0.0,4.8991,4.9311,4.949,4.949,4.949,4.9509,4.9509,4.8626,4.78,4.7012,4.6129,4.5284,4.4501,4.4501,4.4501,4.4515,0.0,0.0,0.0,4.5038,4.517,4.5297,4.5297,4.5297,4.5297,4.5297,4.5297,4.5297,0.0,0.0,0.0,0.0,0.0,0.0,0.0,3.3309,3.3309,3.3309,3.3309,3.3309,3.3309,3.3309,3.3309,3.3309,3.3309,0.0,0.0,0.0,0.0,0.0,0.0,0.0,0.0,0.0,3.3309,3.3309,3.3309,3.3309,3.3293,3.3477,0.0,0.0,0.0,0.0,0.0,0.0,0.0,0.0,0.0,0.0,0.0,0.0,0.0,0.0,0.0,0.0,0.0,0.0,0.0,0.0,0.0,0.0,0.0,0.0,0.0,0.0,4.4024,4.4311,4.4251,4.4941,4.3565,4.2109,4.2416,4.1643,4.1035,4.1596,4.2339,4.2901,4.2901,4.2901,4.2901,4.2901,4.2901,0.0,0.0,0.0,0.0,0.0,0.0,0.0,0.0,0.0,4.827,4.8677,4.8889,0.0,4.9345,4.9443,4.9509,4.9509,4.9509,4.9509,4.9509,4.9227,4.8964,4.8701,4.7274,4.6467,4.6171,4.5007,4.4501,0.0,0.0,0.0,0.0,4.5148,4.5265,4.5307,4.5307,4.5307,4.5307,4.5307,4.5307,4.5307,0.0,0.0,0.0,0.0,0.0,0.0,0.0,3.3309,3.3309,3.3309,3.3309,3.3309,3.3309,3.3309,3.3309,3.3309,3.3309,0.0,0.0,0.0,0.0,0.0,0.0,0.0,0.0,3.3309,3.3309,3.3309,3.3309,3.3309,3.3309,3.3398,3.3607,3.3848,0.0,0.0,0.0,0.0,0.0,0.0,0.0,0.0,3.848,0.0,0.0,0.0,0.0,0.0,0.0,0.0,0.0,0.0,0.0,0.0,0.0,0.0,3.9817,0.0,0.0,4.3518,4.3663,4.3686,4.2767,0.0,4.2085,4.1538,4.118,4.1995,4.2538,4.2901,4.2901,4.2901,4.2901,4.2901,4.2901,0.0,0.0,0.0,0.0,0.0,0.0,0.0,0.0,4.8584,4.9048,4.9421,0.0,0.0,5.0375,5.0128,4.994,4.994,4.9659,4.9509,4.9509,4.9509,4.9189,4.8551,4.75,4.6659,4.6021,4.497,4.4528,0.0,0.0,0.0,0.0,4.5203,4.5307,4.5307,4.5307,4.5307,4.5307,4.5307,4.5307,4.5307,0.0,0.0,0.0,0.0,0.0,0.0,0.0,3.3309,3.3309,3.3309,3.3309,3.3309,3.3309,3.3309,3.3309,3.3309,0.0,0.0,0.0,0.0,0.0,0.0,0.0,0.0,0.0,3.3309,3.3309,3.3309,3.3309,3.3309,3.3309,3.3555,3.3822,3.4126,3.4399,0.0,0.0,0.0,0.0,0.0,0.0,0.0,0.0,0.0,0.0,0.0,0.0,0.0,0.0,0.0,0.0,0.0,0.0,0.0,0.0,0.0,0.0,0.0,0.0,4.3102,0.0,0.0,0.0,0.0,4.1584,4.1574,0.0,4.2647,4.2846,4.2901,4.2901,4.2901,4.2901,4.292,4.2901,4.3191,0.0,4.4279,0.0,0.0,4.7574,0.0,4.808,4.9288,5.0143,5.0235,0.0,0.0,5.1855,5.1067,5.0651,5.0707,4.9922,4.9509,4.9509,4.9509,4.8701,4.7087,4.703,4.6148,4.4576,4.4533,4.4578,0.0,0.0,0.0,0.0,4.5235,4.5307,4.5307,4.5307,4.5307,4.5307,4.5307,4.5307,4.5307,0.0,0.0,0.0,0.0,0.0,0.0,0.0,0.0,0.0,0.0,3.3309,3.3309,3.3309,3.3309,3.3309,0.0,0.0,0.0,0.0,0.0,0.0,0.0,0.0,0.0,0.0,3.3309,3.3309,3.3309,3.3309,3.3309,3.3309,3.3346,3.3658,3.4126,3.444,0.0,0.0,0.0,0.0,0.0,0.0,0.0,0.0,0.0,0.0,0.0,3.7444,3.7271,0.0,0.0,0.0,0.0,0.0,0.0,0.0,0.0,4.043,4.1105,4.1443,0.0,4.2248,4.2656,4.2334,4.1866,0.0,0.0,0.0,0.0,0.0,0.0,0.0,4.2901,4.2957,4.316,4.3032,4.3248,4.4254,0.0,0.0,4.6561,4.8226,4.8938,4.7702,4.8615,4.9633,0.0,0.0,5.0391,5.1818,5.056,5.0053,5.0688,4.9922,4.9509,4.9509,4.9509,4.8964,4.7913,4.7293,4.6448,4.5397,4.4888,4.4672,0.0,0.0,0.0,4.5114,4.5235,4.5307,4.5307,4.5307,4.5307,4.5307,4.5307,4.5307,4.5307,0.0,0.0,0.0,0.0,0.0,0.0,0.0,0.0,0.0,0.0,0.0,0.0,0.0,0.0,0.0,0.0,0.0,0.0,0.0,0.0,0.0,0.0,0.0,0.0,3.3309,3.3309,3.3309,3.3309,3.3609,3.3751,3.3767,3.4362,3.4541,3.4391,3.4805,0.0,0.0,0.0,0.0,0.0,3.9533,0.0,0.0,0.0,0.0,0.0,3.7271,3.7066,0.0,3.7143,3.7201,3.7403,0.0,0.0,0.0,0.0,4.0812,4.1198,4.1031,4.0979,4.1034,4.1234,4.1506,4.1506,4.0818,0.0,0.0,0.0,0.0,0.0,0.0,0.0,0.0,4.3087,4.3303,0.0,0.0,0.0,0.0,4.7767,4.8675,4.9399,0.0,0.0,0.0,0.0,0.0,5.1574,5.2437,5.1292,5.0635,5.0707,4.9922,4.9509,4.9509,4.9509,4.8889,4.7631,4.7218,4.6383,4.5232,4.4861,4.4776,0.0,0.0,0.0,4.5192,4.5275,4.5307,4.5307,4.5307,4.5307,4.5307,4.5307,4.5307,4.5307,0.0,0.0,0.0,0.0,0.0,0.0,0.0,0.0,0.0,0.0,0.0,0.0,0.0,0.0,0.0,0.0,0.0,0.0,0.0,0.0,0.0,0.0,0.0,3.3309,3.3309,3.3309,3.3309,3.3309,3.3972,3.4288,3.4331,3.5514,3.5642,3.486,3.5305,3.5864,0.0,0.0,0.0,0.0,3.9972,0.0,0.0,0.0,0.0,0.0,0.0,0.0,0.0,3.7297,3.7428,3.7845,3.9147,0.0,0.0,0.0,0.0,0.0,4.0456,4.0329,4.022,3.9695,4.0564,4.1144,3.9713,0.0,0.0,0.0,0.0,0.0,0.0,0.0,0.0,0.0,0.0,0.0,4.5626,4.6117,4.7112,4.9055,4.9067,0.0,5.1951,0.0,0.0,0.0,0.0,5.2923,5.3186,5.225,5.1349,5.0538,4.9865,4.9377,4.9114,4.9246,4.8532,4.7012,4.6895,4.6078,4.4712,4.4732,4.4902,4.5103,0.0,0.0,4.5307,4.5307,4.5307,4.5307,4.5307,4.5307,4.5307,4.5307,4.5307,4.5307,0.0,0.0,0.0,0.0,0.0,0.0,0.0,0.0,0.0,0.0,0.0,0.0,0.0,0.0,0.0,0.0,0.0,0.0,0.0,0.0,0.0,0.0,3.3309,3.3309,3.3309,3.3309,3.3309,3.3309,3.3972,3.4288,3.4304,3.5142,3.5541,3.5546,3.5439,3.5815,3.6554,3.7328,3.7899,3.8357,3.9164,0.0,0.0,0.0,0.0,0.0,0.0,0.0,0.0,3.7297,3.7428,3.7648,3.788,0.0,0.0,0.0,0.0,0.0,3.9534,3.9568,3.9695,4.0184,4.051,4.0456,3.9604,0.0,0.0,0.0,0.0,0.0,0.0,0.0,4.2976,0.0,0.0,4.625,0.0,0.0,4.932,4.879,0.0,5.0193,4.9709,0.0,0.0,0.0,0.0,5.1703,5.313,5.174,5.0504,4.9715,4.9565,4.8814,4.7406,4.8063,4.7932,4.6993,4.637,4.559,4.4712,4.495,4.5068,4.5114,0.0,4.5286,4.5307,4.5307,4.5307,4.5307,4.5307,4.5307,4.5307,4.5307,4.5307,4.5307,0.0,0.0,0.0,0.0,0.0,0.0,0.0,0.0,0.0,0.0,0.0,0.0,0.0,0.0,0.0,0.0,0.0,0.0,0.0,0.0,0.0,3.3309,3.3309,3.3309,3.3309,3.3656,3.383,3.383,3.492,3.5442,3.5442,3.541,3.5974,3.6944,3.5753,3.5803,3.6823,3.7554,3.795,3.8181,0.0,0.0,0.0,0.0,0.0,0.0,0.0,0.0,0.0,0.0,3.7775,3.8006,3.8438,0.0,0.0,0.0,0.0,0.0,3.8845,3.8752,3.8826,3.917,3.9894,4.0202,3.9007,0.0,0.0,0.0,0.0,0.0,0.0,0.0,4.4027,4.545,0.0,4.6452,4.7952,4.8197,4.8414,0.0,0.0,5.0179,0.0,0.0,0.0,0.0,0.0,0.0,5.2475,5.1349,5.0125,4.8833,4.9246,4.8701,4.703,4.7368,4.7168,4.6393,4.6048,4.5545,4.4919,4.5038,4.5148,4.5203,0.0,4.5307,4.5307,4.5307,4.5307,4.5307,4.5307,4.5307,4.5307,4.5307,4.5307,4.5307,0.0,0.0,0.0,0.0,0.0,0.0,0.0,0.0,0.0,0.0,0.0,0.0,0.0,0.0,0.0,0.0,0.0,0.0,0.0,0.0,3.3309,3.3309,3.3451,3.353,3.353,3.4036,3.4367,3.4557,3.5777,3.6558,3.6829,3.6123,3.6568,3.7902,3.602,3.5808,3.6923,3.7501,3.7787,3.79,0.0,0.0,0.0,0.0,0.0,0.0,0.0,0.0,0.0,0.0,0.0,0.0,0.0,0.0,0.0,3.9133,3.9133,3.8971,3.8372,3.8354,3.8444,3.8263,3.9097,3.9695,3.8699,0.0,0.0,0.0,0.0,0.0,0.0,4.4114,0.0,4.7459,4.7213,4.7242,4.8694,4.8116,4.8039,4.9309,4.9442,5.0331,0.0,0.0,0.0,0.0,0.0,0.0,5.1649,5.086,4.9734,4.8251,4.8664,4.8194,4.6711,4.6534,4.6266,4.59,4.5751,4.5464,4.5103,4.5136,4.5203,4.5307,4.5307,4.5307,4.5307,4.5307,4.5307,4.5307,4.5307,4.5307,4.5307,4.5307,4.5307,4.5307,0.0,0.0,0.0,0.0,0.0,0.0,0.0,0.0,0.0,0.0,0.0,0.0,0.0,0.0,0.0,0.0,0.0,0.0,0.0,0.0,3.3309,3.3309,3.3893,3.4225,3.4225,3.4273,3.462,3.5315,3.6058,3.7011,3.8153,3.7285,3.7153,3.7586,3.6047,3.5815,3.6544,3.6596,3.6798,3.7077,3.7148,0.0,0.0,0.0,0.0,0.0,0.0,0.0,0.0,0.0,0.0,0.0,0.0,0.0,3.8299,3.8299,3.8299,3.8281,3.8227,3.8752,3.9115,3.839,3.8281,0.0,3.9187,3.9894,0.0,0.0,0.0,0.0,0.0,4.578,4.6733,4.7965,4.8916,4.9936,5.108,0.0,5.045,5.0563,5.0582,0.0,0.0,0.0,0.0,0.0,0.0,0.0,5.0801,5.0016,4.9152,4.8232,4.7537,4.673,4.5791,4.5165,4.5208,4.5881,4.5275,4.5012,4.5095,4.5224,4.5297,4.5307,4.5307,4.5307,4.5307,4.5307,4.5307,4.5307,4.5307,4.5307,4.5307,4.5307,4.5307,4.5307,0.0,0.0,0.0,0.0,0.0,0.0,0.0,0.0,0.0,0.0,0.0,0.0,0.0,0.0,0.0,0.0,0.0,0.0,0.0,0.0,3.3309,3.3309,3.3546,3.4083,3.4952,3.5394,3.5758,3.6026,3.6738,3.7343,3.7783,3.6584,3.6523,3.7343,3.5661,3.5632,3.6874,3.6613,3.669,3.7007,3.7007,3.7007,0.0,0.0,0.0,0.0,0.0,0.0,0.0,0.0,3.8141,3.8209,3.8209,3.8209,3.8209,3.8209,3.8209,3.8209,3.8209,3.8426,3.8589,3.8281,0.0,0.0,0.0,0.0,0.0,0.0,0.0,0.0,0.0,0.0,4.7811,4.8734,4.9528,5.0357,5.1319,5.1016,5.0707,5.0707,0.0,0.0,0.0,0.0,0.0,0.0,0.0,0.0,5.0707,4.994,4.9096,4.8232,4.8438,4.765,4.5716,4.6572,4.6412,4.5275,4.5107,4.5084,4.5243,4.5286,4.5307,4.5307,4.5307,4.5307,4.5307,4.5307,4.5307,4.5307,4.5307,4.5307,4.5307,4.5307,4.5307,4.5307,0.0,0.0,0.0,0.0,0.0,0.0,0.0,0.0,0.0,0.0,0.0,0.0,0.0,0.0,0.0,0.0,0.0,0.0,0.0,3.3309,3.3309,3.3309,3.3498,3.4067,3.5015,3.5947,3.6503,3.6753,3.7417,3.7756,3.7725,3.6698,3.6745,3.765,3.6183,3.6082,3.7055,3.6908,3.6852,3.6849,3.6968,3.7007,0.0,0.0,0.0,0.0,0.0,0.0,0.0,0.0,3.8209,3.8209,3.8209,3.8209,3.8209,3.8209,3.8209,3.8209,3.8209,3.8209,3.8209,0.0,0.0,0.0,0.0,0.0,0.0,0.0,0.0,0.0,0.0,0.0,0.0,0.0,5.0379,5.113,5.1498,5.1291,5.0973,0.0,0.0,0.0,0.0,0.0,0.0,0.0,0.0,0.0,0.0,4.9527,4.8945,4.8626,4.8683,4.8007,4.6505,4.7287,4.6876,4.5274,4.5205,4.5203,4.5307,4.5307,4.5307,4.5307,4.5307,4.5307,4.5307,4.5307,4.5307,4.5307,4.5307,4.5307,4.5307,4.5307,4.5307,4.5307,0.0,0.0,0.0,0.0,0.0,0.0,0.0,0.0,0.0,0.0,0.0,0.0,0.0,0.0,0.0,0.0,0.0,0.0,3.3309,3.3309,3.3309,3.3309,3.3941,3.4288,3.4304,3.571,3.6785,3.751,3.8042,3.8278,3.8306,3.8093,3.8192,3.8556,3.7817,3.7293,3.7046,3.7434,3.7192,3.6544,3.6869,3.7007,3.7007,0.0,0.0,0.0,0.0,0.0,0.0,0.0,3.8209,3.8209,3.8209,3.8209,3.8209,3.8209,3.8209,3.8209,3.8209,3.8209,3.8209,0.0,0.0,0.0,0.0,0.0,0.0,0.0,0.0,0.0,0.0,0.0,0.0,5.0076,5.1579,5.2505,5.1973,5.1893,0.0,0.0,0.0,0.0,0.0,0.0,0.0,0.0,0.0,0.0,0.0,4.8683,4.8607,4.9471,4.7894,4.7406,4.8176,4.6836,4.6127,4.6089,4.557,4.5326,4.5307,4.5307,4.5307,4.5307,4.5307,4.5307,4.5307,4.5307,4.5307,4.5307,4.5307,4.5307,4.5307,4.5307,4.5307,4.5307,0.0,0.0,0.0,0.0,0.0,0.0,0.0,0.0,0.0,0.0,0.0,0.0,0.0,0.0,0.0,0.0,0.0,0.0,0.0,3.3988,3.3783,3.3324,3.3482,3.4051,3.5047,3.6437,3.7275,3.751,3.7655,3.7727,3.7711,3.7137,3.7215,3.7786,3.7265,3.7361,3.7973,3.772,3.7621,3.7618,3.772,3.7444,3.706,0.0,0.0,0.0,0.0,0.0,0.0,0.0,0.0,0.0,3.8209,3.8209,3.8209,3.8209,3.8209,3.8209,3.8209,3.8625,0.0,3.8354,0.0,0.0,0.0,0.0,0.0,0.0,0.0,0.0,0.0,0.0,0.0,4.8565,5.009,5.1249,5.1086,0.0,0.0,0.0,0.0,0.0,0.0,0.0,0.0,0.0,0.0,0.0,0.0,4.9246,4.9227,4.949,4.902,4.8615,4.8338,4.8629,4.7941,4.633,4.6824,4.6443,4.5307,4.5307,4.5307,4.5307,4.5307,4.5307,4.5307,4.5307,4.5307,4.5307,4.5307,4.5307,4.5307,4.5307,4.5307,4.5307,0.0,0.0,0.0,0.0,0.0,0.0,0.0,0.0,0.0,0.0,0.0,0.0,0.0,0.0,0.0,0.0,0.0,0.0,0.0,0.0,3.3988,3.3324,3.3668,3.4595,3.6107,3.6985,3.7559,3.7847,3.7831,3.7671,3.7416,3.7496,3.781,3.8322,3.8088,3.8095,3.825,3.8447,3.8277,3.7927,3.8383,3.8304,3.7918,0.0,0.0,0.0,0.0,0.0,0.0,0.0,0.0,0.0,3.8209,3.8209,3.8209,3.8209,3.8426,3.868,3.868,3.9242,0.0,3.971,4.1579,4.354,0.0,0.0,0.0,0.0,0.0,0.0,0.0,0.0,0.0,4.8058,4.949,5.0707,5.0707,0.0,0.0,0.0,0.0,0.0,0.0,0.0,0.0,0.0,0.0,0.0,0.0,4.9509,4.9509,4.9509,4.9509,4.9303,4.8919,4.8907,4.8219,4.6872,4.6827,4.6271,4.5307,4.5307,4.5307,4.5307,4.5307,4.5307,4.5307,4.5307,4.5307,4.5307,4.5307,4.5488,4.5736,4.5411,4.5488,4.5774,0.0,0.0,0.0,0.0,0.0,0.0,0.0,0.0,0.0,0.0,0.0,0.0,0.0,0.0,0.0,0.0,0.0,0.0,0.0,0.0,3.4178,3.353,3.4441,3.5739,3.7297,3.7366,3.7707,3.8351,3.8322,3.7998,3.7481,3.8623,3.9295,3.9542,3.9757,3.9208,3.8169,3.9422,3.9093,3.7856,3.8951,3.9354,3.9213,3.8497,0.0,0.0,0.0,0.0,0.0,0.0,0.0,0.0,3.8209,3.8209,3.8209,3.8209,3.8753,3.9387,3.9387,0.0,0.0,4.1687,4.3178,0.0,4.7017,0.0,0.0,0.0,0.0,0.0,0.0,4.8478,4.8896,4.8341,4.9574,5.061,0.0,0.0,0.0,0.0,0.0,0.0,0.0,0.0,0.0,0.0,0.0,0.0,0.0,4.9509,4.9509,4.9505,4.9505,4.9559,4.9622,4.8234,4.753,4.7474,4.6094,4.5373,4.5307,4.5307,4.5307,4.5307,4.5307,4.5307,4.5307,4.5307,4.5307,4.5307,4.5307,4.5755,4.6309,4.5564,4.5755,4.6385,0.0,0.0,0.0,0.0,0.0,0.0,0.0,0.0,0.0,0.0,0.0,0.0,0.0,0.0,0.0,0.0,0.0,0.0,0.0,0.0,3.5663,3.4968,3.5908,3.6835,3.7654,3.7996,3.8093,3.7942,3.824,3.8458,3.8559,3.8831,3.9005,3.9086,4.0019,3.9749,3.8706,3.9879,3.9812,3.9007,3.988,3.9849,3.9266,3.9111,3.8655,0.0,0.0,0.0,0.0,0.0,0.0,0.0,3.8209,3.8209,3.8209,3.8209,3.8753,3.9387,3.9387,4.0473,0.0,0.0,4.3832,4.6275,4.8455,0.0,0.0,0.0,0.0,0.0,0.0,4.8692,4.9424,4.8648,4.9287,0.0,0.0,0.0,0.0,0.0,0.0,0.0,0.0,0.0,0.0,0.0,0.0,0.0,4.9509,4.9509,4.9551,4.9653,4.9667,4.9424,4.8998,4.8656,4.7912,0.0,4.6394,4.5908,4.5307,4.5307,4.5307,4.5307,4.5307,4.5307,4.5307,4.5307,4.5307,4.5307,4.5307,4.5422,4.5545,4.5354,4.5411,4.5564,0.0,0.0,0.0,0.0,0.0,0.0,0.0,0.0,0.0,0.0,0.0,0.0,0.0,0.0,0.0,0.0,0.0,0.0,0.0,0.0,0.0,3.6538,3.7058,3.7715,3.849,3.8896,3.902,3.8823,3.9182,3.9086,0.0,0.0,0.0,3.98,0.0,4.0435,3.9571,4.0228,4.0274,3.9901,4.0344,4.0256,3.9831,3.9463,3.8813,3.8006,3.7271,0.0,0.0,0.0,0.0,0.0,0.0,0.0,3.8209,3.8209,3.9007,3.9948,4.0,0.0,0.0,4.3939,0.0,0.0,0.0,0.0,0.0,0.0,0.0,0.0,4.8066,4.9059,4.9608,4.8742,0.0,0.0,0.0,0.0,0.0,0.0,0.0,0.0,0.0,0.0,0.0,0.0,0.0,4.9509,4.9509,4.9509,4.9567,4.9692,4.9296,4.8983,4.8801,4.8002,4.7224,4.65,4.6118,4.5698,4.5307,4.5307,4.5307,4.5307,4.5307,4.5307,4.5307,4.5307,4.5307,4.5307,4.5307,4.5545,4.5831,4.543,4.5545,4.5927,0.0,0.0,0.0,0.0,0.0,0.0,0.0,0.0,0.0,0.0,0.0,0.0,0.0,0.0,0.0,0.0,0.0,0.0,0.0,0.0,0.0,0.0,3.7947,3.8414,3.9388,3.9746,3.9926,0.0,0.0,0.0,0.0,0.0,0.0,4.0752,0.0,4.0984,4.0263,4.0556,4.0625,4.052,4.0643,4.0695,4.0608,3.9814,3.9094,3.8392,3.7496,3.7435,3.7773,3.7648,0.0,0.0,0.0,0.0,3.8209,3.8241,3.9257,4.0435,4.0753,0.0,4.4286,4.6143,4.8108,0.0,0.0,0.0,0.0,0.0,0.0,4.8694,4.8764,4.9428,4.9732,0.0,0.0,0.0,0.0,0.0,0.0,0.0,0.0,0.0,0.0,0.0,0.0,0.0,0.0,4.948,4.9341,4.9476,4.9537,4.9537,4.8838,4.845,4.84,4.7017,4.6313,4.629,4.5621,4.5307,4.5307,4.5307,4.5307,4.5307,4.5307,4.5307,4.5307,4.5307,4.5307,4.5307,4.5307,4.5698,4.6214,4.5545,4.5717,4.6405,0.0,0.0,0.0,0.0,0.0,0.0,0.0,0.0,0.0,0.0,0.0,0.0,0.0,0.0,0.0,0.0,0.0,0.0,0.0,0.0,0.0,0.0,3.8536,3.9032,3.9781,3.9875,4.0045,0.0,0.0,0.0,0.0,0.0,0.0,4.0977,0.0,0.0,4.0035,4.1033,4.1078,4.0555,4.12,4.1446,4.1376,4.0625,0.0,0.0,3.8497,3.8212,3.845,3.7809,3.7863,0.0,0.0,0.0,3.8224,3.8417,3.9104,4.0026,0.0,0.0,4.5394,0.0,0.0,0.0,0.0,0.0,0.0,0.0,4.9553,4.9033,4.9033,4.9701,0.0,0.0,0.0,0.0,0.0,0.0,0.0,0.0,0.0,0.0,0.0,0.0,0.0,0.0,4.932,4.94,4.8756,4.9339,4.9433,4.8929,4.8808,4.8121,4.6811,4.6582,4.6135,4.5449,4.5364,4.5307,4.5307,4.5307,4.5307,4.5307,4.5307,4.5307,4.5307,4.5307,4.5307,4.5307,4.5307,4.5383,4.5449,4.5345,4.5383,4.5468,0.0,0.0,0.0,0.0,0.0,0.0,0.0,0.0,0.0,0.0,0.0,0.0,0.0,0.0,0.0,0.0,0.0,0.0,0.0,0.0,0.0,3.8892,3.9013,3.9228,3.9563,3.9969,4.0245,0.0,0.0,0.0,0.0,4.1255,4.1226,0.0,0.0,0.0,0.0,4.0942,4.1025,4.1095,4.1007,4.0972,0.0,0.0,0.0,0.0,0.0,0.0,0.0,3.8523,3.8528,3.8862,3.8862,0.0,0.0,0.0,3.9061,0.0,4.2006,4.375,4.5257,0.0,0.0,0.0,0.0,0.0,0.0,0.0,4.9003,4.9243,4.9691,5.0054,0.0,0.0,0.0,0.0,0.0,0.0,0.0,0.0,0.0,0.0,0.0,0.0,0.0,0.0,4.9186,4.9167,4.9316,4.8751,4.852,4.8801,4.7888,4.711,4.6519,4.6042,4.564,4.5307,4.5307,4.5307,4.5307,4.5307,4.5307,4.5307,4.5307,4.5307,4.5307,4.5307,4.5307,4.5307,4.5307,4.5307,4.5307,4.5307,4.5307,4.543,0.0,0.0,0.0,0.0,0.0,0.0,0.0,0.0,0.0,0.0,0.0,0.0,0.0,0.0,0.0,0.0,0.0,0.0,0.0,0.0,0.0,3.9148,3.9352,3.9494,3.9582,4.022,0.0,0.0,0.0,0.0,4.1604,4.1604,4.1431,0.0,4.1471,4.1604,0.0,0.0,0.0,0.0,0.0,4.0783,0.0,0.0,0.0,0.0,0.0,0.0,0.0,0.0,0.0,3.9299,3.937,3.8861,0.0,0.0,0.0,0.0,0.0,0.0,0.0,0.0,0.0,0.0,0.0,0.0,0.0,0.0,4.8487,4.9213,4.9595,0.0,0.0,0.0,0.0,0.0,0.0,0.0,0.0,0.0,0.0,0.0,0.0,0.0,0.0,0.0,4.9244,4.9079,4.9359,4.8333,4.7897,4.8203,4.7003,4.6306,4.6194,4.5602,4.5307,4.5307,4.5307,4.5307,4.5307,4.5307,4.5307,4.5307,4.5307,4.5307,4.5307,4.5307,4.5307,4.5307,4.5307,4.5307,4.5307,4.5307,4.5307,4.5468,0.0,0.0,0.0,0.0,0.0,0.0,0.0,0.0,0.0,0.0,0.0,0.0,0.0,0.0,3.751,3.751,0.0,0.0,0.0,0.0,0.0,3.8805,3.9494,0.0,4.0326,4.0731,0.0,0.0,0.0,0.0,4.1604,4.1604,4.1582,4.156,4.1582,4.1604,4.1604,0.0,0.0,0.0,4.1569,4.1552,0.0,0.0,0.0,0.0,0.0,0.0,0.0,0.0,0.0,0.0,0.0,0.0,0.0,0.0,0.0,0.0,0.0,0.0,0.0,0.0,0.0,0.0,0.0,0.0,0.0,0.0,4.8487,4.885,0.0,0.0,0.0,0.0,0.0,0.0,0.0,0.0,0.0,0.0,0.0,0.0,0.0,0.0,0.0,0.0,4.9694,4.9402,4.7976,4.8424,4.8069,4.665,4.6547,4.6126,4.5373,4.5326,4.5307,4.5307,4.5307,4.5307,4.5307,4.5307,4.5307,4.5307,4.5307,4.5307,4.5307,4.5307,4.5307,4.5307,4.5307,4.5307,4.5307,4.5307,4.5307,4.5307,0.0,0.0,0.0,0.0,0.0,0.0,0.0,0.0,0.0,0.0,0.0,0.0,0.0,3.751,3.751,3.751,3.7655,0.0,0.0,0.0,0.0,3.9094,3.9625,3.9961,4.0096,4.0693,0.0,0.0,0.0,4.1604,4.1604,4.1604,4.1604,4.1604,4.1604,4.1604,4.1604,4.1604,0.0,0.0,4.1604,4.1604,4.1604,0.0,0.0,0.0,0.0,0.0,0.0,0.0,0.0,0.0,0.0,0.0,0.0,0.0,0.0,0.0,0.0,0.0,0.0,0.0,0.0,0.0,0.0,0.0,4.6194,4.6194,4.6844,4.7341,0.0,0.0,0.0,0.0,0.0,0.0,0.0,0.0,0.0,0.0,0.0,0.0,0.0,0.0,0.0,0.0,0.0,4.9224,4.8659,4.7793,4.7056,4.6519,4.6003,4.5583,4.5307,4.5307,4.5307,4.5307,4.5307,4.5307,4.5307,4.5307,4.5307,4.5307,4.5307,4.5307,4.5307,4.5307,4.5307,4.5307,4.5307,4.5307,4.5307,4.5307,4.5307,4.5373,0.0,0.0,0.0,0.0,0.0,0.0,0.0,0.0,0.0,0.0,0.0,0.0,0.0,0.0,3.751,3.751,3.7756,3.8046,3.8363,3.8655,3.8942,3.9299,3.979,4.007,4.007,0.0,0.0,0.0,0.0,0.0,0.0,4.1604,4.1604,4.1604,4.1604,4.1604,0.0,0.0,0.0,4.1604,4.1604,4.1604,4.1604,0.0,0.0,0.0,0.0,0.0,0.0,0.0,0.0,0.0,0.0,0.0,0.0,0.0,0.0,0.0,0.0,0.0,0.0,0.0,0.0,0.0,0.0,0.0,4.5307,4.5307,4.5946,0.0,0.0,0.0,0.0,0.0,0.0,0.0,0.0,0.0,0.0,0.0,0.0,0.0,0.0,0.0,0.0,0.0,0.0,0.0,4.8697,4.757,4.6691,4.6118,4.5583,4.5307,4.5307,4.5307,4.5307,4.5307,4.5307,4.5307,4.5307,4.5307,4.5307,4.5307,4.5307,4.5307,4.5307,4.5307,4.5307,4.5307,4.5307,4.5307,4.5326,4.5602,4.5698,4.5774,0.0,0.0,0.0,0.0,0.0,0.0,0.0,0.0,0.0,0.0,0.0,0.0,0.0,0.0,0.0,3.7539,3.7756,3.8075,3.8391,3.8655,3.8958,3.9299,0.0,0.0,0.0,0.0,0.0,0.0,0.0,0.0,0.0,0.0,4.1604,4.1604,4.1604,4.1604,4.1604,0.0,4.1604,4.1604,0.0,4.1604,4.1604,0.0,0.0,0.0,4.1604,4.1604,0.0,4.2142,0.0,0.0,0.0,0.0,0.0,0.0,0.0,0.0,0.0,0.0,0.0,0.0,0.0,0.0,4.393,0.0,4.5269,4.5269,4.5908,0.0,0.0,0.0,0.0,0.0,0.0,0.0,0.0,0.0,0.0,0.0,0.0,0.0,0.0,0.0,0.0,0.0,5.0302,4.9576,4.7884,4.775,4.6978,4.5364,4.5307,4.5307,4.5307,4.5307,4.5307,4.5307,4.5307,4.5307,4.5307,4.5307,4.5307,4.5307,4.5307,4.5307,4.5307,4.5307,4.5307,4.5307,4.5307,4.5307,4.5392,4.6175,4.6462,4.6481,0.0,0.0,0.0,0.0,0.0,0.0,0.0,0.0,0.0,0.0,0.0,0.0,0.0,0.0,3.7889,3.8135,3.8387,3.8595,3.8667,3.8985,3.9218,3.9299,4.0011,4.04,4.04,0.0,0.0,0.0,0.0,0.0,0.0,0.0,0.0,0.0,4.1604,4.1604,4.1604,4.1604,0.0,4.1604,4.1604,4.1604,0.0,0.0,0.0,0.0,0.0,4.1604,4.167,0.0,4.2144,4.2002,0.0,0.0,0.0,0.0,0.0,0.0,3.9689,0.0,0.0,0.0,0.0,0.0,0.0,0.0,0.0,4.435,4.5048,0.0,0.0,0.0,0.0,0.0,0.0,0.0,0.0,0.0,0.0,0.0,0.0,0.0,0.0,0.0,0.0,0.0,5.0302,4.9576,4.7884,4.6653,4.5774,4.5307,4.5307,4.5307,4.5307,4.5307,4.5307,4.5307,4.5307,4.5307,4.5307,4.5307,4.5307,4.5307,4.5307,4.5307,4.5307,4.5307,4.5307,4.5307,4.5307,4.5307,4.5326,4.5545,4.5621,4.5642,0.0,0.0,0.0,0.0,0.0,0.0,0.0,0.0,0.0,0.0,0.0,0.0,0.0,0.0,0.0,3.7943,3.8476,3.8805,3.8805,3.9282,3.9563,3.9563,4.0262,4.0659,4.0659,4.1277,0.0,0.0,0.0,0.0,0.0,0.0,0.0,0.0,0.0,0.0,0.0,0.0,0.0,0.0,4.1604,0.0,0.0,4.1604,4.1604,0.0,0.0,0.0,4.1648,4.1998,4.2249,0.0,0.0,0.0,0.0,0.0,0.0,0.0,0.0,0.0,0.0,0.0,0.0,0.0,4.1407,4.2497,4.3491,0.0,4.3902,0.0,0.0,0.0,0.0,0.0,0.0,0.0,0.0,0.0,0.0,0.0,0.0,0.0,0.0,4.9805,4.9939,5.0264,4.9996,4.906,4.736,4.6003,4.5307,4.5307,4.5307,4.5307,4.5307,4.5307,4.5307,4.5307,4.5307,4.5307,4.5307,4.5307,4.5307,4.5307,4.5307,4.5307,4.5307,4.5307,4.5307,4.5307,4.5307,4.5307,4.5345,4.5679,4.5835,4.5888,0.0,0.0,0.0,3.7583,3.7139,3.6904,0.0,0.0,0.0,0.0,0.0,0.0,0.0,0.0,0.0,0.0,3.8221,3.8745,3.8745,3.947,3.9901,3.9901,4.0597,4.1001,4.1001,4.1386,0.0,0.0,0.0,0.0,0.0,0.0,0.0,0.0,0.0,0.0,0.0,0.0,0.0,4.1604,4.1604,4.1604,0.0,0.0,4.1604,4.1604,4.1604,4.1604,4.1648,4.187,4.2249,0.0,0.0,0.0,0.0,0.0,4.1333,0.0,0.0,0.0,0.0,0.0,0.0,0.0,4.1182,4.1931,4.265,4.266,4.2737,0.0,0.0,0.0,0.0,0.0,0.0,0.0,0.0,0.0,0.0,0.0,0.0,0.0,4.8869,4.8945,4.9251,4.9977,4.927,4.8181,4.6729,4.5793,4.5307,4.5307,4.5307,4.5307,4.5307,4.5307,4.5307,4.5307,4.5307,4.5307,4.5307,4.5307,4.5307,4.5307,4.5307,4.5307,4.5307,4.5307,4.5307,4.5307,4.5307,4.5307,4.5403,4.6235,4.6549,4.6608,0.0,0.0,0.0,3.8164,3.8592,3.8527,3.7508,0.0,0.0,0.0,0.0,0.0,0.0,0.0,0.0,0.0,3.8197,3.8305,3.8305,3.9308,3.9901,3.9901,4.0597,4.1001,4.1001,4.1386,4.1604,4.1604,0.0,0.0,0.0,0.0,0.0,0.0,0.0,0.0,0.0,0.0,0.0,4.1604,4.1604,0.0,4.1604,4.1604,4.1604,4.1604,4.1604,4.1604,4.167,4.2082,4.2371,4.2692,0.0,0.0,0.0,0.0,0.0,0.0,0.0,0.0,0.0,0.0,0.0,0.0,4.0427,4.0993,4.1625,0.0,4.2316,0.0,0.0,0.0,0.0,0.0,0.0,0.0,0.0,0.0,0.0,0.0,0.0,0.0,4.8036,4.8048,4.8113,4.8266,4.7494,4.7169,4.7521,4.6118,4.5307,4.5307,4.5307,4.5307,4.5307,4.5307,4.5307,4.5307,4.5307,4.5307,4.5307,4.5307,4.5307,4.5307,4.5307,4.5307,4.5307,4.5307,4.5307,4.5307,4.5307,4.5307,4.5413,4.6397,4.631,4.5971,0.0,0.0,0.0,3.8363,3.8728,3.8825,3.8452,0.0,0.0,0.0,0.0,0.0,0.0,0.0,0.0,0.0,0.0,0.0,0.0,3.9457,4.0051,4.041,4.1001,4.1295,4.1295,4.1515,4.1604,4.1604,0.0,0.0,0.0,0.0,0.0,0.0,0.0,0.0,0.0,0.0,4.1604,4.1604,4.1604,0.0,4.1604,4.1604,4.1604,4.1604,4.1604,4.1604,4.167,4.2142,4.2412,0.0,0.0,4.3385,4.3222,0.0,4.3179,4.3055,0.0,0.0,0.0,4.1701,0.0,0.0,0.0,4.058,4.0636,4.0767,4.1149,4.1608,4.2077,0.0,0.0,0.0,0.0,0.0,0.0,0.0,0.0,0.0,0.0,0.0,4.7111,4.7139,4.7139,4.7139,4.7139,4.7139,4.7139,4.6347,4.5908,4.5908,4.5507,4.5307,4.5307,4.5307,4.5307,4.5307,4.5307,4.5307,4.5307,4.5307,4.5307,4.5307,4.5307,4.5307,4.5307,4.5307,4.5307,4.5307,4.537,4.5409,4.5467,4.6038,4.6008,4.5917,0.0,0.0,0.0,3.8593,3.8914,3.9239,0.0,0.0,0.0,0.0,0.0,0.0,0.0,0.0,0.0,0.0,0.0,0.0,0.0,0.0,4.0378,4.0966,4.1386,4.1604,4.1604,4.1604,4.1604,4.1604,0.0,0.0,0.0,0.0,0.0,0.0,0.0,0.0,0.0,0.0,0.0,4.1736,0.0,4.1692,4.1604,4.1604,4.1604,4.1604,4.1604,4.1604,4.167,4.2142,4.2414,4.2637,4.3195,4.3662,0.0,0.0,0.0,0.0,0.0,0.0,0.0,0.0,0.0,4.1411,0.0,0.0,0.0,4.0264,4.0191,0.0,0.0,0.0,0.0,0.0,0.0,0.0,0.0,0.0,0.0,0.0,0.0,0.0,0.0,4.65,4.65,4.65,4.7311,4.7406,4.6557,4.65,4.6424,4.6271,4.564,4.5307,4.5307,4.5307,4.5307,4.5307,4.5307,4.5307,4.5307,4.5307,4.5307,4.5307,4.5307,4.5307,4.5307,4.5338,4.5329,4.5339,4.5457,4.5504,4.5541,4.5881,4.5964,4.6097,3.8694,3.9245,0.0,0.0,4.0778,4.1411,0.0,0.0,0.0,0.0,0.0,0.0,0.0,0.0,0.0,0.0,0.0,0.0,3.9245,0.0,0.0,4.1001,4.1386,4.1604,4.1604,4.1604,4.1604,4.1604,4.1604,0.0,0.0,0.0,0.0,0.0,4.1892,0.0,0.0,0.0,4.2225,0.0,4.2225,4.1956,0.0,4.1604,4.1604,4.1604,4.1604,4.1604,4.167,0.0,4.2454,4.2789,0.0,4.3857,4.4121,4.427,0.0,0.0,0.0,0.0,0.0,0.0,4.3101,0.0,0.0,0.0,4.0892,4.098,0.0,0.0,0.0,0.0,0.0,0.0,0.0,0.0,0.0,0.0,0.0,0.0,0.0,0.0,0.0,4.65,4.65,4.65,4.7311,4.7406,4.6557,4.65,4.6175,4.5449,4.5364,4.5307,4.5307,4.5307,4.5307,4.5307,4.5307,4.5307,4.5307,4.5307,4.5307,4.5307,4.5307,4.5307,4.5317,4.5438,4.5476,4.5476,4.5495,4.5504,4.5617,4.6647,4.6591,4.6338,3.8832,3.9205,0.0,0.0,4.0409,0.0,0.0,0.0,0.0,0.0,0.0,0.0,0.0,0.0,0.0,0.0,0.0,3.9307,0.0,0.0,0.0,4.1323,4.1515,4.1604,4.1604,4.1604,4.1604,4.1604,4.1719,0.0,0.0,0.0,0.0,0.0,4.2187,0.0,4.247,0.0,4.2308,0.0,0.0,0.0,0.0,4.1827,4.1784,4.1784,4.1934,4.2124,4.2295,0.0,4.2977,0.0,0.0,0.0,0.0,0.0,0.0,0.0,0.0,0.0,0.0,0.0,0.0,0.0,4.291,0.0,4.1607,0.0,0.0,0.0,0.0,0.0,0.0,0.0,4.2507,0.0,0.0,0.0,0.0,0.0,0.0,0.0,0.0,0.0,0.0,0.0,4.7035,4.7635,4.7272,4.6768,4.6577,4.6748,4.5812,4.5307,4.5307,4.5307,4.5307,4.5307,4.5307,4.5307,4.5307,4.5307,4.5307,4.5307,4.5307,4.5307,4.5317,4.5438,4.5504,4.5522,4.5676,4.5739,4.5807,4.6352,4.6663,4.7065,3.8969,0.0,0.0,0.0,0.0,0.0,0.0,0.0,0.0,0.0,0.0,0.0,4.0475,4.0739,0.0,0.0,3.9758,4.0032,0.0,0.0,4.0871,0.0,0.0,0.0,4.1604,4.1604,4.1604,4.1604,4.1805,0.0,0.0,0.0,0.0,0.0,0.0,4.2472,4.267,0.0,4.2452,4.2452,4.2452,4.243,4.2351,4.2103,4.2019,4.204,4.2246,4.2454,4.2713,4.294,4.3318,0.0,4.403,0.0,0.0,0.0,0.0,0.0,4.4501,0.0,0.0,0.0,0.0,0.0,0.0,0.0,0.0,0.0,0.0,0.0,0.0,0.0,0.0,0.0,0.0,0.0,0.0,0.0,0.0,0.0,0.0,0.0,0.0,0.0,0.0,0.0,0.0,4.7857,4.715,4.6729,4.6691,4.7111,4.5927,4.5307,4.5307,4.5307,4.5307,4.5307,4.5307,4.5307,4.5307,4.5307,4.5307,4.5307,4.5307,4.5328,4.536,4.5504,4.5584,4.5624,4.5834,4.5918,4.5937,4.6075,4.668,4.7528,3.9299,3.9879,0.0,0.0,0.0,0.0,0.0,0.0,0.0,0.0,0.0,0.0,0.0,0.0,0.0,0.0,0.0,4.0375,4.039,0.0,4.099,0.0,0.0,4.1604,0.0,4.1604,4.1604,4.1604,4.1805,0.0,0.0,0.0,0.0,0.0,0.0,4.2689,4.2882,4.2882,4.2882,4.2882,4.2882,4.2767,4.257,0.0,4.2287,4.2287,4.2287,0.0,0.0,4.294,4.3353,0.0,0.0,0.0,0.0,0.0,0.0,0.0,0.0,0.0,0.0,4.4501,0.0,0.0,0.0,0.0,4.3257,0.0,0.0,0.0,0.0,0.0,0.0,0.0,0.0,0.0,0.0,0.0,0.0,0.0,0.0,0.0,0.0,0.0,0.0,0.0,0.0,0.0,4.5517,4.6099,4.6156,4.5392,4.5326,4.5307,4.5307,4.5307,4.5307,4.5307,4.5307,4.5307,4.5307,4.5307,4.5307,4.5307,4.5307,4.537,4.5504,4.5643,4.5769,4.59,4.5958,4.5997,4.6012,4.6146,4.6702,4.7531,0.0,0.0,0.0,0.0,0.0,0.0,0.0,4.2539,0.0,0.0,4.2704,0.0,0.0,4.2919,4.2953,0.0,0.0,4.2105,4.1619,4.1464,0.0,0.0,0.0,4.1604,0.0,0.0,0.0,0.0,0.0,0.0,0.0,0.0,0.0,0.0,0.0,4.2843,0.0,0.0,0.0,0.0,0.0,4.364,4.3546,0.0,0.0,4.253,4.265,4.2976,0.0,4.3441,4.3823,4.4273,4.4335,4.4426,4.4501,4.4501,4.4501,0.0,0.0,0.0,4.4501,4.4501,0.0,0.0,0.0,0.0,0.0,0.0,0.0,0.0,0.0,0.0,0.0,0.0,0.0,0.0,0.0,0.0,0.0,0.0,0.0,0.0,0.0,0.0,0.0,0.0,0.0,0.0,0.0,4.5851,4.5831,4.6099,4.5583,4.5307,4.5307,4.5307,4.5307,4.5307,4.5307,4.5307,4.5307,4.5307,4.5339,4.5419,4.5419,4.5513,4.5632,4.5776,4.5866,4.5906,4.5964,4.6002,4.6012,4.615,4.6702,4.7609,4.0746,0.0,0.0,0.0,0.0,0.0,0.0,0.0,0.0,0.0,4.4045,0.0,4.4026,0.0,4.4164,0.0,4.3032,4.2517,4.1788,4.1528,0.0,4.1386,4.152,0.0,0.0,0.0,0.0,0.0,0.0,4.2409,0.0,0.0,0.0,0.0,0.0,4.2901,4.2955,4.3751,4.4095,0.0,0.0,4.4095,0.0,0.0,4.2824,4.2728,0.0,4.3178,4.3579,4.3662,4.4002,4.4364,4.4468,4.4501,4.4501,4.4501,4.4501,4.4501,4.4501,4.4501,0.0,4.4501,4.4501,0.0,4.4501,0.0,0.0,0.0,0.0,0.0,0.0,0.0,0.0,0.0,0.0,0.0,0.0,4.4953,0.0,0.0,0.0,0.0,0.0,0.0,0.0,0.0,0.0,0.0,0.0,0.0,4.5545,4.6061,4.5564,4.5307,4.5307,4.5307,4.5307,4.5307,4.5307,4.5307,4.5307,4.5339,4.5429,4.5504,4.5558,4.5651,4.5776,4.5854,4.5899,4.5937,4.598,4.6002,4.6012,4.615,4.6914,4.8112,4.1458,0.0,0.0,0.0,4.1028,0.0,0.0,0.0,4.444,0.0,4.492,4.5516,4.4771,4.4718,4.4467,4.3737,4.2724,4.1822,4.1098,4.1084,0.0,0.0,4.1386,4.1697,4.1913,0.0,0.0,0.0,0.0,0.0,0.0,0.0,0.0,0.0,4.2901,0.0,4.2973,4.3788,4.4204,4.4258,4.4186,4.415,4.4059,4.3227,4.2901,4.292,4.292,4.3105,4.3373,4.3629,4.3889,4.417,4.4426,4.4501,4.4501,4.4501,4.4501,4.4501,4.4501,4.4501,4.4501,4.4501,0.0,0.0,0.0,0.0,4.4501,0.0,0.0,0.0,0.0,0.0,0.0,0.0,0.0,0.0,0.0,0.0,0.0,0.0,0.0,0.0,0.0,0.0,0.0,0.0,0.0,0.0,0.0,0.0,4.5307,4.5307,4.5307,4.5307,4.5307,4.5307,4.5307,4.5307,4.5307,4.5307,4.5298,4.5438,4.5513,4.5531,4.564,4.5783,4.5906,4.5906,4.5943,4.6002,4.6002,4.6002,4.6022,4.615,4.7293,4.8915,4.2208,4.2208,4.2142,0.0,4.2092,4.2456,0.0,0.0,0.0,0.0,4.5218,4.5516,4.4771,4.502,4.5043,4.4592,4.4082,0.0,0.0,0.0,0.0,4.1466,4.1542,4.1697,4.1913,4.244,0.0,4.3409,0.0,0.0,4.3692,0.0,0.0,0.0,0.0,0.0,4.2992,4.4385,4.5689,4.6667,4.5472,4.4983,0.0,0.0,4.3032,4.3196,4.3196,4.3493,4.3905,4.3968,4.417,4.4411,4.4487,4.4501,4.4501,4.4501,4.4501,4.4501,4.4501,4.4501,4.4501,4.4501,4.4501,4.4501,0.0,0.0,0.0,0.0,0.0,0.0,0.0,0.0,0.0,0.0,0.0,0.0,0.0,0.0,0.0,4.5307,0.0,0.0,0.0,0.0,0.0,0.0,0.0,0.0,0.0,0.0,0.0,4.5307,4.5307,4.5307,4.5307,4.5307,4.5307,4.5307,4.5307,4.535,4.5448,4.5485,4.5618,4.5798,4.5826,4.5899,4.5969,4.5969,4.598,4.6002,4.6002,4.6066,4.615,4.6192,4.7293,4.8837,4.2969,4.2969,0.0,4.2969,0.0,0.0,4.4026,4.4423,0.0,4.5135,4.5814,0.0,4.5698,4.6062,4.6283,4.6089,4.5367,0.0,4.4656,0.0,0.0,4.2287,4.2379,4.2353,4.2207,4.2554,0.0,4.3936,0.0,0.0,4.4077,0.0,0.0,0.0,0.0,4.2701,4.2484,4.4095,4.5707,4.7083,4.5816,0.0,0.0,4.3498,4.3142,4.3477,4.3477,4.3679,4.3936,4.406,4.4199,4.4335,4.4454,4.4501,4.4501,4.4501,4.4501,4.4501,4.4501,4.4501,4.4501,4.4501,4.4501,4.4501,4.4501,4.4501,4.4501,0.0,0.0,0.0,0.0,0.0,0.0,0.0,0.0,0.0,0.0,0.0,0.0,0.0,4.5307,0.0,0.0,0.0,0.0,0.0,0.0,0.0,0.0,0.0,0.0,4.5307,4.564,4.566,4.5307,4.564,4.564,4.5307,4.536,4.5438,4.5504,4.5627,4.5761,4.59,4.5925,4.5972,4.6002,4.6002,4.6002,4.6002,4.6002,4.6051,4.6193,4.6582,4.7605,4.8857,4.3598,4.3664,0.0,0.0,0.0,0.0,0.0,4.4951,0.0,4.5847,0.0,4.7022,4.7033,4.7385,4.7601,4.7573,0.0,4.5734,4.5629,4.4924,4.4143,4.3341,4.3522,4.3376,4.2771,4.268,4.3178,0.0,0.0,4.3197,4.424,0.0,0.0,0.0,0.0,0.0,0.0,4.357,4.5128,4.6432,4.5617,4.5291,4.5128,4.3498,4.3214,4.3646,4.3679,4.3763,4.3841,4.406,4.4155,4.4199,4.4426,4.4501,4.4501,4.4501,4.4501,4.4501,4.4501,4.4501,4.4501,4.4501,4.4501,4.4501,4.4501,4.4501,4.4501,4.4501,4.4501,4.4501,0.0,0.0,0.0,0.0,0.0,0.0,0.0,0.0,0.0,0.0,0.0,0.0,0.0,0.0,0.0,0.0,0.0,0.0,0.0,0.0,0.0,4.5357,4.5997,4.6073,4.5491,0.0,4.6094,4.5491,4.5515,4.554,4.5566,4.5791,4.5906,4.5925,4.5969,4.6002,4.6002,4.6002,4.6002,4.6002,4.6002,4.6032,4.6219,4.7077,4.7992,4.8912,4.3598,0.0,0.0,0.0,0.0,4.4903,4.55,4.6113,4.656,4.6692,4.7355,4.7794,4.7804,4.7619,4.7538,4.7508,4.706,0.0,0.0,0.0,0.0,4.446,4.4468,4.4217,4.3616,4.4207,4.4705,0.0,4.3587,4.3604,4.5037,0.0,0.0,0.0,0.0,0.0,4.2792,4.4403,0.0,4.6432,4.5617,4.5291,4.5128,4.3498,4.3105,4.3408,4.3612,4.3968,4.4368,4.4411,4.4426,4.444,4.4487,4.4501,4.4501,4.4501,4.4501,4.4501,4.4501,4.4501,4.4501,4.4501,4.4501,4.4501,4.4501,4.4501,4.4501,4.4501,4.4501,4.4501,4.4501,0.0,0.0,0.0,0.0,0.0,0.0,0.0,0.0,0.0,0.0,4.5307,0.0,0.0,0.0,0.0,0.0,0.0,0.0,0.0,0.0,0.0,4.5592,0.0,0.0,0.0,4.6056,4.6446,4.5909,4.5723,4.5826,4.588,4.5925,4.598,4.5991,4.6002,4.6002,4.6002,4.6002,4.6002,4.6002,4.6032,4.6219,4.7077,4.7999,4.8911,4.4738,0.0,0.0,0.0,0.0,0.0,0.0,4.751,4.7578,4.7117,4.7351,4.7608,4.7669,4.8379,4.8837,4.8853,4.8448,4.8032,4.764,4.6972,4.6233,4.5462,4.5551,4.5119,4.3974,4.4337,4.4576,4.4675,4.3063,4.2882,4.4005,0.0,0.0,0.0,0.0,4.1759,0.0,0.0,0.0,4.6432,4.5617,4.5291,4.5128,4.3498,4.3069,4.332,4.3442,4.3841,4.4306,4.444,4.4501,4.4501,4.4501,4.4501,4.4501,4.4501,4.4501,4.4501,4.4501,4.4501,4.4501,4.4501,4.4501,4.4501,4.4501,4.4501,4.4501,4.4501,4.4501,4.4501,4.4501,4.4551,0.0,0.0,0.0,0.0,0.0,0.0,0.0,0.0,0.0,0.0,0.0,0.0,0.0,0.0,0.0,0.0,0.0,0.0,0.0,0.0,0.0,0.0,0.0,0.0,0.0,4.6179,4.5912,4.5845,4.59,4.5931,4.5958,4.6002,4.6002,4.6002,4.6002,4.6002,4.6002,4.6002,4.6002,4.6032,4.6258,4.7587,4.8386,4.8923,0.0,4.5614,0.0,0.0,4.6858,4.7037,4.8316,4.8515,4.8251,4.7573,4.7584,4.7785,4.8027,4.9298,5.0178,5.0342,4.9813,4.9388,4.9227,4.8066,4.7097,4.6467,4.6473,4.5834,4.4385,4.4349,4.4258,0.0,4.2483,4.2122,0.0,0.0,0.0,0.0,0.0,0.0,0.0,0.0,4.5345,4.6432,4.5617,4.5291,4.5128,4.3498,4.3069,4.3303,4.3373,4.3677,4.414,4.4411,4.4501,4.4501,4.4501,4.4501,4.4501,4.4501,4.4501,4.4501,4.4501,4.4501,4.4501,4.4501,4.4501,4.4501,4.4501,4.4501,4.4501,4.4501,4.4501,4.4501,4.4501,4.4556,0.0,0.0,0.0,0.0,0.0,0.0,0.0,0.0,0.0,0.0,4.5307,0.0,0.0,0.0,0.0,4.5965,4.5326,4.6103,4.6329,0.0,0.0,4.6617,4.6287,0.0,4.6476,4.5997,4.5957,4.5912,4.5912,4.5989,4.6002,4.6002,4.6002,4.6002,4.6002,4.6002,4.6002,4.6002,4.6002,4.6027,4.6264,4.7841,4.8578,4.8917,0.0,0.0,0.0,0.0,0.0,4.8333,4.8498,4.8515,4.8467,4.84,4.8832,4.946,5.0133,5.0198,5.0456,5.1128,5.0466,4.9716,4.8988,4.8124,4.7621,4.7548,4.6882,4.6087,4.52,4.5182,4.482,0.0,4.2483,4.2122,0.0,0.0,0.0,0.0,0.0,0.0,0.0,4.5309,4.6359,4.6432,4.5617,4.5291,4.5128,4.3498,4.3069,4.3338,4.3579,4.3857,4.414,4.4411,4.4501,4.4501,4.4501,4.4501,4.4501,4.4501,4.4501,4.4501,4.4501,4.4501,4.4501,4.4501,4.4501,4.4501,4.4501,4.4501,4.4501,4.4501,4.4501,4.4501,4.4501,4.4699,4.4858,0.0,0.0,0.0,0.0,0.0,0.0,0.0,0.0,0.0,0.0,4.5307,0.0,0.0,4.5446,4.5373,4.5307,4.6234,4.676,4.6764,0.0,4.7414,4.8138,4.6783,4.6375,4.695,4.631,4.5986,4.5986,4.5997,4.6002,4.6002,4.6002,4.6002,4.6002,4.6002,4.6002,4.6002,4.6002,4.6002,4.6139,4.7143,4.8034,4.8847,0.0,0.0,0.0,0.0,0.0,0.0,0.0,4.9388,4.8815,4.8815,4.8954,4.9316,5.0056,5.0371,5.0756,5.1424,5.1089,5.047,4.9673,4.8424,4.7717,4.7717,4.6939,4.6124,4.5327,4.5291,4.4675,0.0,0.0,0.0,0.0,0.0,0.0,0.0,0.0,4.3462,4.3733,4.5689,4.6794,4.712,4.5816,4.5291,4.5128,4.3498,4.2957,4.3105,4.3373,4.3629,4.3905,4.417,4.4368,4.4501,4.4501,4.4501,4.4501,4.4501,4.4501,4.4501,4.4501,4.4501,4.4501,4.4501,4.4501,4.4501,4.4501,4.4501,4.4501,4.4501,4.4501,4.451,4.4605,4.4712,4.4821,0.0,0.0,0.0,0.0,0.0,0.0,0.0,0.0,0.0,0.0,0.0,0.0,0.0,0.0,4.5429,4.5429,4.5876,4.6364,4.6877,0.0,4.6817,4.7726,4.6582,4.6155,4.6445,4.6136,4.6002,4.6002,4.6002,4.6002,4.6002,4.6002,4.6002,4.6002,4.6002,4.6002,4.606,4.6579,4.6795,4.6946,4.7852,4.8766,4.9591,5.0677,0.0,5.0708,0.0,5.0837,5.021,5.1337,5.0473,4.9576,4.9357,4.9385,4.9559,4.9866,5.0542,5.1157,5.1551,5.1423,5.085,4.9818,4.8242,4.7355,4.7355,4.6576,0.0,4.5653,4.5417,4.4621,4.3244,4.2448,0.0,0.0,0.0,0.0,0.0,4.3244,4.4258,4.4892,4.6269,4.7047,4.7228,4.5852,4.5164,4.4802,4.3407,4.2939,4.305,4.332,4.3595,4.3857,4.4124,4.4335,4.4501,4.4501,4.4501,4.4501,4.4501,4.4501,4.4501,4.4501,4.4501,4.4501,4.4501,4.4501,4.4501,4.4501,4.4501,4.4515,4.4537,4.4551,4.4592,4.4719,4.4783,4.487,4.508,0.0,0.0,0.0,0.0,0.0,0.0,4.5307,4.5307,4.5307,4.5307,0.0,0.0,0.0,0.0,4.5504,4.588,0.0,0.0,0.0,0.0,0.0,4.6443,4.6002,4.6002,4.6002,4.6002,4.6002,4.6002,4.6002,4.6002,4.6002,4.6002,4.6002,4.6002,4.6002,4.6099,4.6968,4.7349,4.7518,4.8382,4.9299,5.0093,5.0677,5.143,5.2068,5.2101,5.2201,5.2266,5.2283,5.1657,5.093,5.0168,5.0608,5.0705,4.9976,5.0911,5.1576,5.1601,5.1423,5.0615,4.9018,4.7428,4.6522,0.0,0.0,4.5689,4.6468,4.5707,4.4892,4.4077,0.0,0.0,4.1723,0.0,4.3299,4.4132,4.5743,4.6468,4.6522,4.7355,4.7246,4.645,4.5635,4.482,4.4023,4.3227,4.305,4.332,4.3595,4.3857,4.414,4.4411,4.4501,4.4501,4.4501,4.4501,4.4501,4.4501,4.4501,4.4501,4.4501,4.4501,4.4501,4.4501,4.4501,4.4501,4.4501,4.4501,4.4542,4.4672,4.4699,4.4751,4.487,4.501,4.5103,4.5103,0.0,0.0,0.0,0.0,0.0,0.0,4.5307,4.5307,4.5307,4.5307,0.0,0.0,0.0,0.0,0.0,0.0,0.0,4.7094,4.7227,0.0,4.7293,4.6443,4.6002,4.6002,4.6002,4.6002,4.6002,4.6002,4.6002,4.6002,4.6002,4.6002,4.6002,4.6002,4.6002,4.6099,4.6968,4.7335,4.7503,4.8382,4.9299,5.0093,5.2421,5.2859,5.3061,5.3061,5.2639,5.23,5.23,5.1674,5.0947,5.0185,5.0272,5.0273,4.9947,5.0911,5.1786,0.0,5.1646,5.085,0.0,4.8206,4.7319,4.7319,4.6558,4.625,4.6504,4.625,4.5454,4.4095,0.0,0.0,0.0,4.2774,4.3046,4.3317,4.4385,4.4856,4.491,4.5725,4.5924,4.5617,4.4802,4.4331,4.4005,4.3227,4.2957,4.305,4.3338,4.3595,4.3857,4.414,4.4335,4.4501,4.4501,4.4501,4.4501,4.4501,4.4501,4.4501,4.4501,4.4501,4.4501,4.4501,4.4501,4.4501,4.4501,4.4565,4.4672,4.4815,4.4833,4.487,4.5003,4.508,4.5136,4.5213,4.5275,0.0,0.0,0.0,0.0,0.0,4.5307,4.5307,4.5307,4.5307,0.0,0.0,0.0,0.0,0.0,0.0,0.0,0.0,4.6651,0.0,4.7293,4.6443,4.6002,4.6002,4.6002,4.6002,4.6002,4.6002,4.6002,4.6002,4.6002,4.6022,4.6075,4.6075,4.6424,4.7034,4.791,4.8639,4.9204,4.9533,5.0215,5.089,5.3349,5.3501,5.3501,5.3501,5.3078,5.2756,5.2756,5.2367,5.1792,5.1031,5.1083,5.1059,5.0708,5.1421,0.0,5.2162,5.1623,5.0959,5.0166,4.8586,4.7717,4.7717,4.6939,4.6649,4.6957,4.6649,0.0,4.5001,4.4693,4.4132,4.3372,4.3661,4.3625,4.339,4.4186,4.4548,4.4584,4.5091,4.5128,4.4802,4.4295,4.3914,4.3588,4.31,4.2957,4.3087,4.3355,4.3629,4.3889,4.4155,4.435,4.4501,4.4501,4.4524,4.4584,4.4584,4.4584,4.4578,4.4632,4.4646,4.4646,4.4646,4.4646,4.4646,4.4646,4.4725,4.4808,4.4943,4.4986,4.5022,4.5148,4.517,4.5203,4.5286,4.5307,4.5307,4.5307,0.0,0.0,0.0,0.0,0.0,0.0,4.5307,4.5579,0.0,0.0,0.0,0.0,0.0,0.0,4.6687,4.6241,0.0,4.6812,4.6268,4.6002,4.6002,4.6327,4.6327,4.6021,4.6346,4.6307,4.6002,4.6002,4.6032,4.6098,4.6098,4.6434,4.7072,4.8241,4.9051,4.9591,4.9965,5.0642,5.1238,5.345,5.3501,5.3501,0.0,5.3501,0.0,5.3501,5.3501,5.3213,5.2418,5.274,5.2709,5.1959,5.2255,5.2282,5.1694,0.0,0.0,0.0,4.8731,4.7844,4.7787,4.7083,4.6993,4.7681,4.6975,4.6558,4.6504,4.5689,4.491,4.4186,4.4947,4.4892,4.4204,4.491,4.5218,4.52,4.5164,4.4693,4.4023,4.4023,4.357,4.2901,4.2901,4.3069,4.3338,4.3579,4.3857,4.414,4.4397,4.4468,4.4501,4.4515,4.4592,4.4712,4.4712,4.4712,4.4751,4.4877,4.4895,4.4895,4.4895,4.4895,4.4895,4.4907,4.4907,4.4943,4.5091,4.5114,4.5159,4.5286,4.5307,4.5307,4.5307,4.5307,4.5307,4.5307,0.0,0.0,0.0,0.0,0.0,0.0,4.5307,4.5369,0.0,0.0,0.0,0.0,0.0,4.6968,4.6041,4.6002,4.6002,4.6002,4.606,4.6118,4.6196,4.7007,4.6929,4.6118,4.6934,4.6837,4.6002,4.6007,4.6081,4.6199,4.6126,4.6248,4.6615,4.8112,4.8779,4.9001,4.9878,5.0674,5.1082,0.0,0.0,5.3501,5.3501,5.3501,5.3501,5.3501,5.3501,5.3213,5.2418,5.2835,5.2884,5.2001,5.2403,5.2615,5.2329,5.1669,5.1212,5.1013,5.0071,4.9257,4.8637,4.842,4.8113,4.7717,4.7518,4.712,4.6504,4.5689,4.52,4.5019,4.52,4.52,4.5001,4.4566,4.4385,4.4331,4.3715,4.3372,4.3172,4.3172,4.3082,4.2901,4.2901,4.3069,4.3303,4.3373,4.3712,4.4106,4.417,4.4321,4.4528,4.4619,4.4672,4.4712,4.4712,4.4757,4.4858,4.4883,4.4895,4.4895,4.4895,4.4895,4.4919,4.5026,4.5038,4.5091,4.5233,4.5246,4.5246,4.5297,4.5307,4.5307,4.5307,4.5307,4.5307,4.5307,4.5307,0.0,0.0,4.5307,4.5307,4.5307,4.5307,4.5628,0.0,0.0,0.0,0.0,4.7751,4.7589,4.606,4.6002,4.6002,4.6002,4.6657,4.7337,4.7997,4.8191,4.7842,4.7007,4.7262,4.6868,4.6007,4.6102,4.6505,4.7042,4.6427,4.7354,4.9152,4.8879,4.9196,4.9903,5.0761,5.0805,5.0436,5.3382,5.3501,5.3501,5.3501,5.3501,5.3501,5.3501,5.3501,5.3348,5.2909,5.3355,5.3532,5.3011,5.3095,5.3164,5.3054,5.2299,5.1846,5.1846,5.0764,4.9908,4.9474,4.8749,4.8149,4.7717,4.7717,4.75,4.7065,4.6613,4.6214,4.5852,4.5852,4.5653,4.5273,4.4838,4.444,4.4059,4.3625,4.3245,4.2901,4.2901,4.2901,4.2901,4.2901,4.3069,4.332,4.3442,4.3761,4.4124,4.4229,4.4383,4.451,4.4659,4.4732,4.4796,4.4858,4.4931,4.4991,4.5068,4.5091,4.5091,4.5091,4.5091,4.5103,4.517,4.5192,4.5203,4.5286,4.5307,4.5307,4.5307,4.5307,4.5307,4.5307,4.5307,4.5307,4.5307,4.5307,0.0,4.5307,4.5307,4.5307,4.5307,4.5307,4.5541,4.6167,4.6309,0.0,4.7067,4.7674,4.757,4.6618,4.6987,4.7181,4.7181,4.7667,4.8133,4.8599,4.9007,4.8735,4.79,4.8346,4.8064,4.7247,4.7303,4.7613,4.8019,4.7566,4.8213,4.9462,4.8974,4.9325,5.0163,5.0631,5.077,5.069,5.3501,5.3501,5.3501,5.3501,5.3501,5.3501,5.3501,5.3501,5.3501,5.3501,5.3998,5.432,5.4215,5.4104,5.3947,5.3729,5.3078,5.2625,5.2498,5.1212,5.0365,5.0112,4.8786,4.7953,4.7717,4.7591,4.7518,4.7518,4.7409,4.7065,4.6504,4.6504,4.6196,4.5653,4.5544,4.5037,4.4258,4.415,4.3625,4.2901,4.2901,4.2901,4.2901,4.2901,4.3087,4.339,4.3612,4.3889,4.4199,4.4426,4.4515,4.4551,4.4699,4.4821,4.4955,4.5091,4.5136,4.5159,4.5275,4.5307,4.5307,4.5307,4.5307,4.5307,4.5307,4.5307,4.5307,4.5307,4.5307,4.5307,4.5307,4.5307,4.5345,4.5449,4.5373,4.5345,4.5449,0.0,4.5307,4.5307,4.5307,4.5307,4.5307,4.5307,4.5397,4.563,4.5791,4.6294,4.7221,4.7532,4.7686,4.7686,4.8289,4.8658,4.8794,4.8794,4.8852,4.9007,4.9745,4.9629,4.8819,4.9567,4.9473,4.871,4.8709,4.8824,4.8998,4.8847,4.8957,4.9189,4.9052,4.9442,5.0124,5.0397,5.0789,5.1141,5.3501,5.3501,5.3501,5.3501,5.3501,5.3501,5.3501,5.3501,5.3501,5.3501,5.4496,5.4946,5.4267,5.5061,5.5124,5.3802,5.3585,5.3222,5.2534,5.2263,5.1502,5.0166,4.9876,4.9094,4.7735,4.7029,4.6703,4.6703,4.6015,4.5961,4.6504,4.6504,4.6812,4.7301,4.6631,4.587,4.5073,4.4385,4.3625,4.2901,4.2901,4.2901,4.2901,4.2901,4.3196,4.3646,4.3679,4.4017,4.444,4.4487,4.4584,4.4699,4.4821,4.4955,4.5103,4.5224,4.5275,4.5256,4.5297,4.5307,4.5307,4.5307,4.5307,4.5307,4.5307,4.5307,4.5307,4.5307,4.5307,4.5307,4.5307,4.5307,4.5507,4.6194,4.5736,4.5545,4.6214,0.0,4.5307,4.5307,4.5307,4.5307,4.5307,4.5307,4.5594,4.6284,4.6558,4.7105,4.797,4.8955,4.9499,4.9499,4.891,4.8949,4.9693,4.9693,5.0076,5.0794,5.093,5.0542,4.9693,4.9891,4.9519,4.8695,4.8758,4.9208,4.9837,4.9098,4.9675,5.0926,5.0182,4.9987,5.028,5.1746,5.1453,5.0494,5.3501,5.3501,5.3501,5.3501,5.3501,5.3618,5.3946,5.3962,5.4091,5.4474,5.5325,5.5734,5.538,5.5728,5.554,5.4454,5.3947,5.3367,5.2552,5.2082,5.1321,5.0166,4.9673,4.8912,4.7735,4.692,4.6504,4.6504,4.5689,4.549,4.5852,4.5852,4.6051,4.6395,4.6015,4.5653,4.5273,4.4892,4.453,4.415,4.3715,4.3534,4.3498,4.3082,4.305,4.3285,4.3425,4.3744,4.4094,4.4248,4.4477,4.4706,4.4846,4.4979,4.5125,4.5265,4.5307,4.5307,4.5307,4.5307,4.5307,4.5307,4.5307,4.5307,4.5307,4.5307,4.5307,4.5307,4.5307,4.5307,4.5307,4.5307,4.5411,4.5793,4.5545,0.0,0.0,4.5526,4.5449,4.5889,4.5946,4.6137,4.6596,4.671,4.6914,4.7278,4.7557,4.8087,4.8964,4.9582,5.012,5.0581,5.0212,5.0192,5.06,5.06,5.0794,5.1202,5.1202,5.0986,5.0592,5.0668,5.0505,5.0162,5.0184,5.0432,5.0735,4.9868,4.9969,5.0612,4.9735,4.9694,5.0202,5.1004,5.1082,5.0926,5.3501,5.3501,5.3501,5.3501,5.3501,5.3668,5.4106,5.4313,5.4579,5.5117,5.5848,5.6311,5.6311,5.6117,5.5703,5.4961,5.4164,5.3367,5.2552,5.1919,5.1122,5.0148,4.9148,4.8312,4.7696,4.692,4.6413,4.6214,4.5417,4.5019,4.5019,4.5019,4.5128,4.5309,4.549,4.5363,4.5037,4.5218,4.5182,4.4947,4.4132,4.3914,4.4005,4.3227,4.2939,4.3032,4.3303,4.3562,4.3841,4.4136,4.4458,4.4757,4.4895,4.5045,4.517,4.5275,4.5307,4.5307,4.5307,4.5307,4.5307,4.5307,4.5307,4.5307,4.5307,4.543,4.5583,4.5583,4.5736,4.587,4.587,4.5717,4.564,4.5851,0.0,0.0,0.0,4.5583,4.5812,4.6424,4.6691,4.7073,4.7731,4.7921,4.8087,4.8299,4.8554,4.9083,4.9954,5.0125,5.0503,5.1183,5.1202,5.1202,5.1202,5.1202,5.1202,5.1202,5.1194,5.1208,5.1191,5.1288,5.1349,5.1394,5.1403,5.1297,5.1063,5.0592,5.028,5.0046,4.9599,4.9813,5.0436,5.0631,5.1004,5.1433,5.3501,5.3501,5.3501,5.3501,5.3501,5.3501,5.3568,5.4027,5.4422,5.4485,5.5525,5.6311,5.6311,5.6117,5.5703,5.4961,5.4164,5.3367,5.2552,5.2444,5.1719,5.0184,4.8623,4.7751,4.7717,4.692,4.6142,4.5399,4.4584,4.4186,4.4186,4.4186,4.4584,4.5327,4.6087,4.558,4.424,4.4983,4.4874,4.4114,4.3318,4.3425,4.4005,4.3227,4.305,4.3303,4.3579,4.3841,4.4121,4.4513,4.4757,4.4907,4.5038,4.5181,4.5297,4.5297,4.5307,4.5307,4.5307,4.5307,4.5307,4.5307,4.5307,4.5307,4.5307,4.587,4.6405,4.6405,4.7043,4.7616,4.7616,4.6959,4.6691,4.7483,0.0,0.0,4.6309,4.6405,4.6424,4.65,4.7207,4.7731,4.7788,4.7921,4.8327,4.9134,4.9451,4.9974,5.085,5.103,5.1125,5.1202,5.1202,5.1202,5.1202,5.1202,5.1202,5.1202,5.12,5.1206,5.1191,5.1339,5.1391,5.1394,5.1403,5.0945,5.0241,5.1004,5.0828,5.0163,5.0926,5.1258,5.1394,5.2214,5.2038,5.1511,5.3501,5.3501,5.3501,5.3501,5.3501,5.3618,5.4011,5.4596,5.5159,5.5543,5.6321,5.6863,5.6863,5.679,5.6247,5.5015,5.4617,5.3892,5.2589,5.2498,5.1774,5.0184,4.8568,4.7717,4.7717,4.692,4.6106,4.5291,4.4476,4.3824,4.3372,4.3372,4.3516,4.3824,4.4132,4.4204,4.4114,4.4421,4.4675,4.4765,4.3969,4.3824,4.4005,4.3227,4.2957,4.3087,4.3355,4.3677,4.4023,4.4336,4.4713,4.5026,4.5072,4.5192,4.5307,4.5307,4.5307,4.5307,4.5307,4.5307,4.5307,4.5307,4.5307,4.543,4.5927,4.629,4.6653,4.7177,4.7559,4.7788,4.7788,4.7521,4.7406,4.775,0.0,4.6959,4.7253,4.7311,4.7513,4.8048,4.8391,4.8793,4.9308,4.9547,4.9815,5.0142,5.0913,5.1309,5.1128,5.1159,5.1202,5.1202,5.1202,5.1202,5.1202,5.1202,5.1202,5.1202,5.1205,5.1225,5.1276,5.1353,5.1405,5.1401,5.139,5.1219,5.0887,5.067,5.0397,5.0124,5.0455,5.0592,5.069,5.157,5.1687,5.1453,5.3501,5.3501,5.3501,5.3501,5.3501,5.3701,5.4313,5.4978,5.5618,5.6229,5.6837,5.7188,5.7188,5.6772,5.6047,5.4997,5.4454,5.3675,5.257,5.2263,5.1502,5.0166,4.9039,4.8224,4.7717,4.7428,4.6739,4.5689,4.4874,4.4059,4.3281,4.3028,4.2901,4.2919,4.3173,4.3425,4.3733,4.3987,4.4421,4.4838,4.4041,4.386,4.4005,4.3227,4.2901,4.2939,4.325,4.3575,4.3958,4.427,4.4701,4.5114,4.5148,4.5243,4.5307,4.5307,4.5307,4.5307,4.5307,4.5307,4.5307,4.5307,4.5307,4.543,4.6003,4.6538,4.7092,4.7674,4.8208,4.859,4.859,4.8391,4.822,4.822,4.7979,4.7788,4.7788,4.8246,4.8716,4.9071,4.9557,4.9996,5.0264,5.0498,5.0652,5.0696,5.1717,5.2104,5.161,5.1338,5.1202,5.1202,5.1202,5.1202,5.1202,5.1202,5.1202,5.1202,5.122,5.1252,5.13,5.1369,5.1399,5.1394,5.1394,5.1238,5.0965,5.0631,5.0358,5.0124,5.0397,5.0514,5.0573,5.118,5.1394,5.1394,5.3501,5.3501,5.3501,5.3501,5.3501,5.3701,5.4313,5.4966,5.5618,5.6229,5.6811,5.7188,5.7188,5.583,5.4907,5.4907,5.344,5.2498,5.2498,5.1737,5.0963,5.0148,5.0112,4.9347,4.7753,4.8475,4.8094,4.6504,4.5707,4.4892,4.4077,4.3262,4.2919,4.2937,4.3715,4.3643,4.2955,4.3733,4.4077,4.4023,4.3227,4.3371,4.3987,4.319,4.2901,4.2939,4.3357,4.3679,4.3974,4.4438,4.4814,4.5125,4.5265,4.5307,4.5307,4.5307,4.5307,4.5307,4.5307,4.5307,4.5307,4.5307,4.5307,4.5307,4.5326,4.6615,4.7807,4.7807,4.9137,5.0302,5.0302,4.9652,4.911,4.911,4.8372,4.7807,4.7807,4.9251,4.9996,4.9194,5.0588,5.1257,5.0378,5.0421,5.0548,5.0707,5.1621,5.2264,5.2381,5.1649,5.1202,5.1202,5.1202,5.1202,5.1202,5.1202,5.1202,5.1202,5.1273,5.13,5.1304,5.1372,5.1394,5.1394,5.1394,5.0906,5.0182,5.1043,5.0887,5.0202,5.1063,5.1394,5.1394,5.1394,5.1394,5.1394,5.3501,5.3501,5.3501,5.3501,5.3501,5.3568,5.375,5.4707,5.5473,5.5647,5.6555,5.7188,5.7188,5.6283,5.545,5.4961,5.3947,5.3096,5.2534,5.2281,5.1774,5.0977,4.9854,4.9293,4.9365,4.8514,4.7826,4.7355,4.654,4.5436,4.4077,4.3842,4.3425,4.2919,4.3155,4.3137,4.2919,4.3173,4.3263,4.3245,4.301,4.3046,4.3226,4.2992,4.2901,4.2939,4.3357,4.3742,4.4102,4.4479,4.4893,4.5254,4.5297,4.5307,4.5307,4.5307,4.5307,4.5307,4.5307,4.5307,4.5307,4.5307,4.5717,4.6309,4.692,4.7914,4.8869,4.9442,4.9958,5.0302,5.0302,5.0092,4.9939,4.9939,4.9729,4.9557,4.9557,4.9977,5.0206,4.9977,5.0378,5.0588,5.034,5.0421,5.0777,5.1423,5.1923,5.225,5.2381,5.1649,5.1202,5.1202,5.1203,5.1205,5.1205,5.12,5.1202,5.1202,5.1273,5.13,5.1304,5.1372,5.1394,5.1394,5.1394,5.1258,5.1023,5.1297,5.1258,5.1043,5.1297,5.1394,5.1394,5.1394,5.1394,5.1394,5.3501,5.3501,5.3501,5.3501,5.3501,5.3584,5.3816,5.4738,5.549,5.5733,5.6608,5.7188,5.7188,5.621,5.5395,5.4943,5.3874,5.3023,5.2516,5.2498,5.2281,5.1792,5.0542,4.9782,4.9619,4.9293,4.8659,4.7717,4.721,4.616,4.4566,4.424,4.3661,4.2901,4.2901,4.2901,4.2901,4.2901,4.2901,4.2901,4.2901,4.2901,4.2901,4.2901,4.2938,4.3012,4.3286,4.3742,4.4209,4.4438,4.4862,4.5307,4.5307,4.5307,4.5307,4.5307,4.5307,4.5307,4.5307,4.5307,4.5383,4.5698,4.6137,4.6729,4.7597,4.8468,4.9243,4.9729,5.0073,5.0302,5.0302,5.0302,5.0302,5.0302,5.0302,5.0302,5.0302,5.0608,5.0684,5.034,5.0608,5.0684,5.034,5.0355,5.083,5.1808,5.1777,5.192,5.2381,5.1649,5.1202,5.1202,5.12,5.1211,5.1211,5.1234,5.1229,5.1234,5.1312,5.1342,5.1346,5.1377,5.1394,5.1394,5.1394,5.1394,5.1394,5.1394,5.1394,5.1394,5.1394,5.1394,5.1394,5.1394,5.1394,5.1394,5.3501,5.3501,5.3501,5.3501,5.3501,5.3701,5.4235,5.4918,5.5589,5.6128,5.6785,5.7188,5.7188,5.5884,5.4979,5.4907,5.344,5.2498,5.2498,5.2498,5.2498,5.2498,5.1719,5.0578,4.9036,5.0361,4.9999,4.7826,4.7753,4.692,4.5399,4.4584,4.3769,4.301,4.2937,4.2901,4.2901,4.2901,4.2901,4.2901,4.2901,4.2901,4.2901,4.292,4.3012,4.3104,4.3196,4.3693,4.4318,4.4443,4.4838,4.5307,4.5307,4.5307,4.5307,4.5307,4.5307,4.5326,4.5403,4.5411,4.5621,4.6519,4.6729,4.694,4.7731,4.8582,4.9224,4.9224,4.9786,5.0302,5.0302,5.0302,5.0302,5.0302,5.0302,5.0302,5.0302,5.099,5.1188,5.0397,5.1009,5.1181,5.0378,5.0378,5.0823,5.1816,5.1393,5.1436,5.2245,5.161,5.1202,5.1202,5.1205,5.1215,5.1215,5.1288,5.1308,5.13,5.1379,5.1394,5.1394,5.1403,5.1394,5.1394,5.1394,5.1394,5.1394,5.1394,5.1394,5.1394,5.1394,5.1394,5.1394,5.1394,5.1394,5.1414,5.3501,5.3501,5.3501,5.3501,5.3501,5.3517,5.3668,5.4676,5.5443,5.5507,5.6492,5.7188,5.7188,5.6337,5.5522,5.4961,5.344,5.2498,5.2498,5.2498,5.2498,5.2498,5.1719,5.0832,4.9854,4.9564,4.9144,4.8637,4.8004,4.721,4.6214,4.5417,4.4603,4.3806,4.3172,4.2901,4.2901,4.2901,4.2901,4.2901,4.2901,4.2901,4.292,4.3124,4.316,4.3141,4.3409,4.3855,4.4374,4.4929,4.5184,4.5307,4.5307,4.5307,4.5307,4.5307,4.5307,4.543,4.6061,4.6233,4.6615,4.8143,4.8525,4.8594,4.8774,4.9442,5.0034,5.0034,5.0187,5.0302,5.0302,5.0302,5.0302,5.0302,5.0302,5.0302,5.0302,5.0455,5.0512,5.0321,5.0474,5.0512,5.0321,5.0932,5.1215,5.1006,5.1475,5.1687,5.1462,5.1299,5.1202,5.1202,5.124,5.1284,5.1284,5.1333,5.1355,5.13,5.1379,5.1394,5.1394,5.1403,5.1394,5.1394,5.1394,5.1394,5.1394,5.1394,5.1394,5.1394,5.1394,5.1394,5.1394,5.1394,5.1394,5.1492,5.3501,5.3501,5.3501,5.3501,5.3501,5.3584,5.3898,5.4769,5.5502,5.5755,5.6617,5.7188,5.7188,5.6482,5.554,5.4436,5.3204,5.2498,5.2498,5.2498,5.2498,5.2498,5.21,5.1484,5.0687,4.9872,4.9112,4.8312,4.8275,4.7642,4.6504,4.6069,4.5236,4.4077,4.3661,4.3263,4.2901,4.2901,4.2901,4.2901,4.2901,4.2901,4.292,4.3123,4.3286,4.3409,4.3629,4.405,4.4617,4.5129,4.5307,4.5307,4.5307,4.5307,4.5383,4.5755,4.587,4.6061,4.6901,4.7131,4.7436,4.8774,4.911,4.9194,4.9576,4.9996,5.0302,5.0302,5.0302,5.0302,5.0302,5.0302,5.0302,5.0302,5.0302,5.0302,5.0302,5.0302,5.0302,5.0302,5.0302,5.0455,5.0875,5.1002,5.1148,5.1315,5.1451,5.1436,5.121,5.1552,5.161,5.1202,5.2042,5.2299,5.1871,5.2341,5.2375,5.1911,5.1576,5.163,5.2001,5.1583,5.1394,5.1394,5.1394,5.1394,5.1394,5.1394,5.1394,5.1394,5.1394,5.1394,5.1394,5.1394,5.1394,5.1511,5.3501,5.3501,5.3534,5.3651,5.3634,5.3865,5.4471,5.5129,5.5733,5.6229,5.6837,5.7188,5.7188,5.6482,5.5486,5.42,5.3241,5.2715,5.2715,5.257,5.2498,5.2498,5.2371,5.1919,5.1104,5.0307,4.9238,4.7895,4.8438,4.8004,4.6703,4.6558,4.5798,4.4494,4.4222,4.3715,4.31,4.2973,4.2901,4.2901,4.2901,4.2901,4.2919,4.3105,4.3392,4.3707,4.3839,4.4266,4.4856,4.5184,4.5307,4.5326,4.5449,4.5507,4.566,4.6481,4.6729,4.692,4.7799,4.8028,4.8239,4.9079,4.932,4.948,5.0149,5.0302,5.0302,5.0302,5.0302,5.0302,5.0302,5.0302,5.0302,5.0302,5.0302,5.0359,5.0512,5.0397,5.0359,5.0512,5.0397,5.0588,5.1314,5.081,5.0826,5.172,5.1396,5.117,5.1196,5.2096,5.2251,5.1435,5.2964,5.3443,5.2728,5.3518,5.3615,5.303,5.2223,5.2136,5.2665,5.1804,5.1472,5.1609,5.1453,5.1394,5.1394,5.1394,5.1394,5.1394,5.1394,5.1394,5.1394,5.1394,5.1492,5.1746,5.3501,5.3501,5.3668,5.4203,5.4281,5.4502,5.5177,5.5791,5.6201,5.6284,5.6837,5.7188,5.7188,5.6482,5.5921,5.5703,5.4363,5.3548,5.3548,5.2878,5.2498,5.2498,5.1828,5.1086,5.0293,4.9474,4.8967,4.8728,4.8149,4.7753,4.7515,4.683,4.6377,4.6106,4.4711,4.4023,4.3878,4.3209,4.2901,4.2901,4.2901,4.2901,4.2939,4.3304,4.3546,4.3742,4.4042,4.4443,4.4856,4.5184,4.5307,4.5411,4.6118,4.6347,4.6519,4.7368,4.7616,4.7807,4.8678,4.8919,4.9117,4.992,5.0149,5.0168,5.0283,5.0302,5.0302,5.0302,5.0302,5.0302,5.0302,5.0302,5.0302,5.0302,5.0302,5.0569,5.1334,5.0779,5.0588,5.1322,5.076,5.0359,5.0455,5.0402,5.0481,5.0852,5.1485,5.166,5.1229,5.2678,5.3125,5.2251,5.3255,5.373,5.3637,5.381,5.4219,5.4846,5.4038,5.3327,5.2665,5.1804,5.1804,5.2489,5.1726,5.1394,5.1394,5.1394,5.1394,5.1394,5.1394,5.1394,5.1394,5.1394,5.1882,5.2646,5.3501,5.3501,5.3701,5.4313,5.4391,5.4747,5.5762,5.6146,5.642,5.6758,5.7036,5.7188,5.7188,5.6482,5.5993,5.5993,5.4997,5.4182,5.3729,5.3367,5.2969,5.2516,5.2154,5.1792,5.1448,5.0216,4.9564,4.9564,4.8315,4.7717,4.7678,4.7355,4.6939,4.645,4.5291,4.4512,4.4041,4.3245,4.2901,4.2901,4.2901,4.2938,4.3049,4.3251,4.3629,4.417,4.5127,4.5309,4.5174,4.5761,4.5965,4.6023,4.6385,4.6844,4.7398,4.8277,4.885,4.9289,4.9671,5.013,5.0455,5.034,5.0302,5.0436,5.0932,5.1028,5.1028,5.1028,5.1028,5.1028,5.1028,5.1028,5.1028,5.1028,5.141,5.183,5.2212,5.1544,5.099,5.0894,5.0971,5.12,5.1639,5.1752,5.209,5.278,5.2831,5.276,5.2614,5.3766,5.4019,5.3145,5.4471,5.4949,5.4482,5.5024,5.5244,5.5147,5.4869,5.4517,5.411,5.2741,5.2331,5.2646,5.1785,5.1394,5.1394,5.1394,5.1394,5.1394,5.1394,5.1707,5.2136,5.2136,5.2683,5.3483]}]]